[[{"header":{"parameterUnit":"m.s-1","parameterCategory":1,"la1":31.0,"la2":29.5877,"lo1":-88.7671,"lo2":-86.6584,"dy":0.0162,"dx":0.0185,"nx":115,"ny":88,"refTime":"2023-08-16T12:00:00:Z","depth":0,"parameterNumber":2,"parameterNumberName":"U-component_of_WINDS"},"data":[0.0,0.0,0.0,0.0,0.0,0.0,0.0,0.0,0.0,0.0,0.0,0.0,0.0,0.0,0.0,0.0,0.0,0.0,0.0,0.0,0.0,0.0,0.0,0.0,0.0,0.0,0.0,0.0,0.0,0.0,0.0,0.0,0.0,0.0,0.0,0.0,0.0,0.0,0.0,0.0,0.0,0.0,0.0,0.0,0.0,0.0,0.0,0.0,0.0,0.0,0.0,0.0,0.0,0.0,0.0,0.0,0.0,0.0,0.0,0.0,0.0,0.0,0.0,0.0,0.0,0.0,0.0,0.0,0.0,0.0,0.0,0.0,0.0,0.0,0.0,0.0,0.0,0.0,0.0,0.0,0.0,0.0,0.0,0.0,0.0,0.0,0.0,0.0,0.0,0.0,0.0,0.0,0.0,0.0,0.0,0.0,0.0,0.0,0.0,0.0,0.0,0.0,0.0,0.0,0.0,0.0,0.0,0.0,0.0,0.0,0.0,0.0,0.0,0.0,0.0,0.0,0.0,0.0,0.0,0.0,0.0,0.0,0.0,0.0,0.0,0.0,0.0,0.0,0.0,0.0,0.0,0.0,0.0,0.0,0.0,0.0,0.0,0.0,0.0,0.0,0.0,0.0,0.0,0.0,0.0,0.0,0.0,0.0,0.0,0.0,0.0,0.0,0.0,0.0,0.0,0.0,0.0,0.0,0.0,0.0,0.0,0.0,0.0,0.0,0.0,0.0,0.0,0.0,0.0,0.0,0.0,0.0,0.0,0.0,0.0,0.0,0.0,0.0,0.0,0.0,0.0,0.0,0.0,0.0,0.0,0.0,0.0,0.0,0.0,0.0,0.0,0.0,0.0,0.0,0.0,0.0,0.0,0.0,0.0,0.0,0.0,0.0,0.0,0.0,0.0,0.0,0.0,0.0,0.0,0.0,0.0,0.0,0.0,0.0,0.0,0.0,0.0,0.0,0.0,0.0,0.0,0.0,0.0,0.0,0.0,0.0,0.0,0.0,0.0,0.0,0.0,0.0,0.0,0.0,0.0,0.0,0.0,0.0,0.0,0.0,0.0,0.0,0.0,0.0,0.0,0.0,0.0,0.0,0.0,0.0,0.0,0.0,0.0,0.0,0.0,0.0,0.0,0.0,0.0,0.0,0.0,0.0,0.0,0.0,0.0,0.0,0.0,0.0,0.0,0.0,0.0,0.0,0.0,0.0,0.0,0.0,0.0,0.0,0.0,0.0,0.0,0.0,0.0,0.0,0.0,0.0,0.0,0.0,0.0,0.0,0.0,0.0,0.0,0.0,0.0,0.0,0.0,0.0,0.0,0.0,0.0,0.0,0.0,0.0,0.0,0.0,0.0,0.0,0.0,0.0,0.0,0.0,0.0,0.0,0.0,0.0,0.0,0.0,0.0,0.0,0.0,0.0,0.0,0.0,0.0,0.0,0.0,0.0,0.0,0.0,0.0,0.0,0.0,0.0,0.0,0.0,0.0,0.0,0.0,0.0,0.0,0.0,0.0,0.0,0.0,0.0,0.0,0.0,0.0,0.0,0.0,0.0,0.0,0.0,0.0,0.0,0.0,0.0,0.0,0.0,0.0,0.0,0.0,0.0,0.0,0.0,0.0,0.0,0.0,0.0,0.0,0.0,0.0,0.0,0.0,0.0,0.0,0.0,0.0,0.0,0.0,0.0,0.0,0.0,0.0,0.0,0.0,0.0,0.0,0.0,0.0,0.0,0.0,0.0,0.0,0.0,0.0,0.0,0.0,0.0,0.0,0.0,0.0,0.0,0.0,0.0,0.0,0.0,0.0,0.0,0.0,0.0,0.0,0.0,0.0,0.0,0.0,0.0,0.0,0.0,0.0,0.0,0.0,0.0,0.0,0.0,0.0,0.0,0.0,0.0,0.0,0.0,0.0,0.0,0.0,0.0,0.0,0.0,0.0,0.0,0.0,0.0,0.0,0.0,0.0,0.0,0.0,0.0,0.0,0.0,0.0,0.0,0.0,0.0,0.0,0.0,0.0,0.0,0.0,0.0,0.0,0.0,0.0,0.0,0.0,0.0,0.0,0.0,0.0,0.0,0.0,0.0,0.0,0.0,0.0,0.0,0.0,0.0,0.0,0.0,0.0,0.0,0.0,0.0,0.0,0.0,0.0,0.0,0.0,0.0,0.0,0.0,0.0,0.0,0.0,0.0,0.0,0.0,0.0,0.0,0.0,0.0,0.0,0.0,0.0,0.0,0.0,0.0,0.0,0.0,0.0,0.0,0.0,0.0,0.0,0.0,0.0,0.0,0.0,0.0,0.0,0.0,0.0,0.0,0.0,0.0,0.0,0.0,0.0,0.0,0.0,0.0,0.0,0.0,0.0,0.0,0.0,0.0,0.0,0.0,0.0,0.0,0.0,0.0,0.0,0.0,0.0,0.0,0.0,0.0,0.0,0.0,0.0,0.0,0.0,0.0,0.0,0.0,0.0,0.0,0.0,0.0,0.0,0.0,0.0,0.0,0.0,0.0,0.0,0.0,0.0,0.0,0.0,0.0,0.0,0.0,0.0,0.0,0.0,0.0,0.0,0.0,0.0,0.0,0.0,0.0,0.0,0.0,0.0,0.0,0.0,0.0,0.0,0.0,0.0,0.0,0.0,0.0,0.0,0.0,0.0,0.0,0.0,0.0,0.0,0.0,0.0,0.0,0.0,0.0,0.0,0.0,0.0,0.0,0.0,0.0,0.0,0.0,0.0,0.0,0.0,0.0,0.0,0.0,0.0,0.0,0.0,0.0,0.0,0.0,0.0,0.0,0.0,0.0,0.0,0.0,0.0,0.0,0.0,0.0,0.0,0.0,0.0,0.0,0.0,0.0,0.0,0.0,0.0,0.0,0.0,0.0,0.0,0.0,0.0,0.0,0.0,0.0,0.0,0.0,0.0,0.0,0.0,0.0,0.0,0.0,0.0,0.0,0.0,0.0,0.0,0.0,0.0,0.0,0.0,0.0,0.0,0.0,0.0,0.0,0.0,0.0,0.0,0.0,0.0,0.0,0.0,0.0,0.0,0.0,0.0,0.0,0.0,0.0,0.0,0.0,0.0,0.0,0.0,0.0,0.0,0.0,0.0,0.0,0.0,0.0,0.0,0.0,0.0,0.0,0.0,0.0,0.0,0.0,0.0,0.0,0.0,0.0,0.0,0.0,0.0,0.0,0.0,0.0,0.0,0.0,0.0,0.0,0.0,0.0,0.0,0.0,0.0,0.0,0.0,0.0,0.0,0.0,0.0,0.0,0.0,0.0,0.0,0.0,0.0,0.0,0.0,0.0,0.0,0.0,0.0,0.0,0.0,0.0,0.0,0.0,0.0,0.0,0.0,0.0,0.0,0.0,0.0,0.0,0.0,0.0,0.0,0.0,0.0,0.0,0.0,0.0,0.0,0.0,0.0,0.0,0.0,0.0,0.0,0.0,0.0,0.0,0.0,0.0,0.0,0.0,0.0,0.0,0.0,0.0,0.0,0.0,0.0,0.0,0.0,0.0,0.0,0.0,0.0,0.0,0.0,0.0,0.0,0.0,0.0,0.0,0.0,0.0,0.0,0.0,0.0,0.0,0.0,0.0,0.0,0.0,0.0,0.0,0.0,0.0,0.0,0.0,0.0,0.0,0.0,0.0,0.0,0.0,0.0,0.0,0.0,0.0,0.0,0.0,0.0,0.0,0.0,0.0,0.0,0.0,0.0,0.0,0.0,0.0,0.0,0.0,0.0,0.0,0.0,0.0,0.0,0.0,0.0,0.0,0.0,0.0,0.0,0.0,0.0,0.0,0.0,0.0,0.0,0.0,0.0,0.0,0.0,0.0,0.0,0.0,0.0,0.0,0.0,0.0,0.0,0.0,0.0,0.0,0.0,0.0,0.0,0.0,0.0,0.0,0.0,0.0,0.0,0.0,0.0,0.0,0.0,0.0,0.0,0.0,0.0,0.0,0.0,0.0,0.0,0.0,0.0,0.0,0.0,0.0,0.0,0.0,0.0,0.0,0.0,0.0,0.0,0.0,0.0,0.0,0.0,0.0,0.0,0.0,0.0,0.0,0.0,0.0,0.0,0.0,0.0,0.0,0.0,0.0,0.0,0.0,0.0,0.0,0.0,0.0,0.0,0.0,0.0,0.0,0.0,0.0,0.0,0.0,0.0,0.0,0.0,0.0,0.0,0.0,0.0,0.0,0.0,0.0,0.0,0.0,0.0,0.0,0.0,0.0,0.0,0.0,0.0,0.0,0.0,0.0,0.0,0.0,-1.1296,0.0,0.0,0.0,0.0,0.0,0.0,0.0,0.0,0.0,0.0,0.0,0.0,0.0,0.0,0.0,0.0,0.0,0.0,0.0,0.0,0.0,0.0,0.0,0.0,0.0,0.0,0.0,0.0,0.0,0.0,0.0,0.0,0.0,0.0,0.0,0.0,0.0,0.0,0.0,0.0,0.0,0.0,0.0,0.0,0.0,0.0,0.0,0.0,0.0,0.0,0.0,0.0,0.0,0.0,0.0,0.0,0.0,0.0,0.0,0.0,0.0,0.0,0.0,0.0,0.0,0.0,0.0,0.0,0.0,0.0,0.0,0.0,0.0,0.0,0.0,0.0,0.0,0.0,0.0,0.0,0.0,0.0,0.0,0.0,0.0,0.0,0.0,0.0,0.0,0.0,0.0,0.0,0.0,0.0,0.0,0.0,0.0,0.0,0.0,0.0,0.0,0.0,0.0,0.0,0.0,0.0,0.0,0.0,0.0,0.0,-1.3423,-1.291,-1.2729,-1.2484,-1.2201,0.0,0.0,0.0,0.0,0.0,0.0,0.0,0.0,0.0,0.0,0.0,0.0,0.0,0.0,0.0,0.0,0.0,0.0,0.0,0.0,0.0,0.0,0.0,0.0,0.0,0.0,0.0,0.0,0.0,0.0,0.0,0.0,0.0,0.0,0.0,0.0,0.0,0.0,0.0,0.0,0.0,0.0,0.0,0.0,0.0,0.0,0.0,0.0,0.0,0.0,0.0,0.0,0.0,0.0,0.0,0.0,0.0,0.0,0.0,0.0,0.0,0.0,0.0,0.0,0.0,0.0,0.0,0.0,0.0,0.0,0.0,0.0,0.0,0.0,0.0,0.0,0.0,0.0,0.0,0.0,0.0,0.0,0.0,0.0,0.0,0.0,0.0,0.0,0.0,0.0,0.0,0.0,0.0,0.0,0.0,0.0,0.0,0.0,0.0,0.0,0.0,0.0,0.0,0.0,0.0,0.0,0.0,0.0,0.0,0.0,0.0,0.0,-1.3192,-1.3053,-1.294,0.0,0.0,0.0,0.0,0.0,0.0,0.0,0.0,0.0,0.0,0.0,0.0,0.0,0.0,0.0,0.0,0.0,0.0,0.0,0.0,0.0,0.0,0.0,0.0,0.0,0.0,0.0,0.0,0.0,0.0,0.0,0.0,0.0,0.0,0.0,0.0,0.0,0.0,0.0,0.0,0.0,0.0,0.0,0.0,0.0,0.0,0.0,0.0,0.0,0.0,0.0,0.0,0.0,0.0,0.0,0.0,0.0,0.0,0.0,0.0,0.0,0.0,0.0,0.0,0.0,0.0,0.0,0.0,0.0,0.0,0.0,0.0,0.0,0.0,0.0,0.0,0.0,0.0,0.0,0.0,0.0,0.0,0.0,0.0,0.0,0.0,0.0,0.0,0.0,0.0,0.0,0.0,0.0,0.0,0.0,0.0,0.0,0.0,0.0,0.0,0.0,0.0,0.0,0.0,0.0,0.0,0.0,0.0,0.0,0.0,-1.4219,-1.3767,-1.3667,0.0,-1.2551,0.0,0.0,0.0,0.0,0.0,0.0,0.0,0.0,0.0,0.0,0.0,0.0,0.0,0.0,0.0,0.0,0.0,0.0,0.0,0.0,0.0,0.0,0.0,0.0,0.0,0.0,0.0,0.0,0.0,0.0,0.0,0.0,0.0,0.0,0.0,0.0,0.0,0.0,0.0,0.0,0.0,0.0,0.0,0.0,0.0,0.0,0.0,0.0,0.0,0.0,0.0,0.0,0.0,0.0,0.0,0.0,0.0,0.0,0.0,0.0,0.0,0.0,0.0,0.0,0.0,0.0,0.0,0.0,0.0,0.0,0.0,0.0,0.0,0.0,0.0,0.0,0.0,0.0,0.0,0.0,0.0,0.0,0.0,0.0,0.0,0.0,0.0,0.0,0.0,0.0,0.0,0.0,0.0,0.0,0.0,0.0,0.0,0.0,0.0,0.0,0.0,0.0,0.0,0.0,0.0,0.0,0.0,0.0,0.0,0.0,-1.4276,-1.4153,-1.3985,-1.3622,0.0,0.0,0.0,0.0,0.0,0.0,0.0,0.0,0.0,0.0,0.0,0.0,0.0,0.0,0.0,0.0,0.0,0.0,0.0,0.0,0.0,0.0,0.0,0.0,0.0,0.0,0.0,0.0,0.0,0.0,0.0,0.0,0.0,0.0,0.0,0.0,0.0,0.0,0.0,0.0,0.0,0.0,0.0,0.0,0.0,0.0,0.0,0.0,0.0,0.0,0.0,0.0,0.0,0.0,0.0,0.0,0.0,0.0,0.0,0.0,0.0,0.0,0.0,0.0,0.0,0.0,0.0,0.0,0.0,0.0,0.0,0.0,0.0,0.0,0.0,0.0,0.0,0.0,0.0,0.0,0.0,0.0,0.0,0.0,0.0,0.0,0.0,0.0,0.0,0.0,0.0,0.0,0.0,0.0,0.0,0.0,0.0,0.0,0.0,0.0,0.0,0.0,0.0,0.0,0.0,0.0,0.0,0.0,0.0,0.0,-1.4335,-1.4222,-1.427,-1.4144,-1.3891,-1.3507,0.0,0.0,0.0,0.0,0.0,0.0,0.0,0.0,0.0,0.0,0.0,0.0,0.0,0.0,0.0,0.0,0.0,0.0,0.0,0.0,0.0,0.0,0.0,0.0,0.0,0.0,0.0,0.0,0.0,0.0,0.0,0.0,0.0,0.0,0.0,0.0,0.0,0.0,0.0,0.0,0.0,0.0,0.0,0.0,0.0,0.0,0.0,0.0,0.0,0.0,0.0,0.0,0.0,0.0,0.0,0.0,0.0,0.0,0.0,0.0,0.0,0.0,0.0,0.0,0.0,0.0,0.0,0.0,0.0,0.0,0.0,0.0,0.0,0.0,0.0,0.0,0.0,0.0,0.0,0.0,0.0,0.0,0.0,0.0,0.0,0.0,0.0,0.0,0.0,0.0,0.0,0.0,0.0,0.0,0.0,0.0,0.0,0.0,0.0,0.0,0.0,0.0,0.0,0.0,0.0,0.0,0.0,0.0,-1.4429,-1.4284,-1.4141,-1.4032,-1.4127,-1.4075,0.0,0.0,0.0,0.0,0.0,0.0,0.0,0.0,0.0,0.0,0.0,0.0,0.0,0.0,0.0,0.0,0.0,0.0,0.0,0.0,0.0,0.0,0.0,0.0,0.0,0.0,0.0,0.0,0.0,0.0,0.0,0.0,0.0,0.0,0.0,0.0,0.0,0.0,0.0,0.0,0.0,0.0,0.0,0.0,0.0,0.0,0.0,0.0,0.0,0.0,0.0,0.0,0.0,0.0,0.0,0.0,0.0,0.0,0.0,0.0,0.0,0.0,0.0,0.0,0.0,0.0,0.0,0.0,0.0,0.0,0.0,0.0,0.0,0.0,0.0,0.0,0.0,0.0,0.0,0.0,0.0,0.0,0.0,0.0,0.0,0.0,0.0,0.0,0.0,0.0,0.0,0.0,0.0,0.0,0.0,0.0,0.0,0.0,0.0,0.0,0.0,0.0,0.0,0.0,0.0,0.0,0.0,0.0,0.0,-1.4413,-1.4268,-1.4187,-1.4141,-1.404,-1.4056,0.0,0.0,0.0,0.0,0.0,0.0,0.0,0.0,0.0,0.0,0.0,0.0,0.0,0.0,0.0,0.0,0.0,0.0,0.0,0.0,0.0,0.0,0.0,0.0,0.0,0.0,0.0,0.0,0.0,0.0,0.0,0.0,0.0,0.0,0.0,0.0,0.0,0.0,0.0,0.0,0.0,0.0,0.0,0.0,0.0,0.0,0.0,0.0,0.0,0.0,0.0,0.0,0.0,0.0,0.0,0.0,0.0,0.0,0.0,0.0,0.0,0.0,0.0,0.0,0.0,0.0,0.0,0.0,0.0,0.0,0.0,0.0,0.0,0.0,0.0,0.0,0.0,0.0,0.0,0.0,0.0,0.0,0.0,0.0,0.0,0.0,0.0,0.0,0.0,0.0,0.0,0.0,0.0,0.0,0.0,0.0,0.0,0.0,0.0,0.0,0.0,0.0,0.0,0.0,0.0,0.0,0.0,0.0,0.0,-1.4413,0.0,-1.4189,-1.4141,-1.404,-1.401,0.0,0.0,0.0,0.0,0.0,0.0,0.0,0.0,0.0,0.0,0.0,0.0,0.0,0.0,0.0,0.0,0.0,0.0,0.0,0.0,0.0,0.0,0.0,0.0,0.0,0.0,0.0,0.0,0.0,0.0,0.0,0.0,0.0,0.0,0.0,0.0,0.0,0.0,0.0,0.0,0.0,0.0,0.0,0.0,0.0,0.0,0.0,0.0,0.0,0.0,0.0,0.0,0.0,0.0,0.0,0.0,0.0,0.0,0.0,0.0,0.0,0.0,0.0,0.0,0.0,0.0,0.0,0.0,0.0,0.0,0.0,0.0,0.0,0.0,0.0,0.0,0.0,0.0,0.0,0.0,0.0,0.0,0.0,0.0,0.0,0.0,0.0,0.0,0.0,0.0,0.0,0.0,0.0,0.0,0.0,0.0,0.0,0.0,0.0,0.0,0.0,0.0,0.0,0.0,0.0,0.0,0.0,0.0,-1.4772,-1.4456,-1.4376,-1.4246,-1.4032,-1.4138,-1.3914,0.0,0.0,0.0,0.0,0.0,0.0,0.0,0.0,0.0,0.0,0.0,0.0,0.0,0.0,0.0,0.0,0.0,0.0,0.0,0.0,0.0,0.0,0.0,0.0,0.0,0.0,0.0,0.0,0.0,0.0,0.0,0.0,0.0,0.0,0.0,0.0,0.0,0.0,0.0,0.0,0.0,0.0,0.0,0.0,0.0,0.0,0.0,0.0,0.0,0.0,0.0,0.0,0.0,0.0,0.0,0.0,0.0,0.0,0.0,0.0,0.0,0.0,0.0,0.0,0.0,0.0,0.0,0.0,0.0,0.0,0.0,0.0,0.0,0.0,0.0,0.0,0.0,0.0,0.0,0.0,0.0,0.0,0.0,0.0,0.0,0.0,0.0,0.0,0.0,0.0,0.0,0.0,0.0,0.0,0.0,0.0,0.0,0.0,0.0,0.0,0.0,0.0,0.0,0.0,0.0,0.0,0.0,0.0,0.0,-1.5775,-1.5213,-1.488,-1.4816,-1.4223,-1.3778,0.0,0.0,0.0,0.0,0.0,0.0,0.0,0.0,0.0,0.0,0.0,0.0,0.0,0.0,0.0,0.0,0.0,0.0,0.0,0.0,0.0,0.0,0.0,0.0,0.0,0.0,0.0,0.0,0.0,0.0,0.0,0.0,0.0,0.0,0.0,0.0,0.0,0.0,0.0,0.0,0.0,0.0,0.0,0.0,0.0,0.0,0.0,0.0,0.0,0.0,0.0,0.0,0.0,0.0,0.0,0.0,0.0,0.0,0.0,0.0,0.0,0.0,0.0,0.0,0.0,0.0,0.0,0.0,0.0,0.0,0.0,0.0,0.0,0.0,0.0,0.0,0.0,0.0,0.0,0.0,0.0,0.0,0.0,0.0,0.0,0.0,0.0,0.0,0.0,0.0,0.0,0.0,0.0,0.0,0.0,0.0,0.0,0.0,0.0,0.0,0.0,0.0,0.0,0.0,0.0,0.0,0.0,0.0,0.0,-1.7406,-1.6233,-1.5521,-1.5413,-1.4687,-1.3983,-1.3357,0.0,0.0,0.0,0.0,0.0,0.0,0.0,0.0,0.0,0.0,0.0,0.0,0.0,0.0,0.0,0.0,0.0,0.0,0.0,0.0,0.0,0.0,0.0,0.0,0.0,0.0,0.0,0.0,0.0,0.0,0.0,0.0,0.0,0.0,0.0,0.0,0.0,0.0,0.0,0.0,0.0,0.0,0.0,0.0,0.0,0.0,0.0,0.0,0.0,0.0,0.0,0.0,0.0,0.0,0.0,0.0,0.0,0.0,0.0,0.0,0.0,0.0,0.0,0.0,0.0,0.0,0.0,0.0,0.0,0.0,0.0,0.0,0.0,0.0,0.0,0.0,0.0,0.0,0.0,0.0,0.0,0.0,0.0,0.0,0.0,0.0,0.0,0.0,0.0,0.0,0.0,0.0,0.0,0.0,0.0,0.0,0.0,0.0,0.0,0.0,0.0,0.0,0.0,0.0,0.0,0.0,0.0,0.0,-1.927,-1.7421,-1.632,-1.6045,-1.544,-1.4476,0.0,0.0,0.0,0.0,0.0,0.0,0.0,0.0,0.0,0.0,0.0,0.0,0.0,0.0,0.0,0.0,0.0,0.0,0.0,0.0,0.0,0.0,0.0,0.0,0.0,0.0,0.0,0.0,0.0,0.0,0.0,0.0,0.0,0.0,0.0,0.0,0.0,0.0,0.0,0.0,0.0,0.0,0.0,0.0,0.0,0.0,0.0,0.0,0.0,0.0,0.0,0.0,0.0,0.0,0.0,0.0,0.0,0.0,0.0,0.0,0.0,0.0,0.0,0.0,0.0,0.0,0.0,0.0,0.0,0.0,0.0,0.0,0.0,0.0,0.0,0.0,0.0,0.0,0.0,0.0,0.0,0.0,0.0,0.0,0.0,0.0,0.0,0.0,0.0,0.0,0.0,0.0,0.0,0.0,0.0,0.0,0.0,0.0,0.0,0.0,0.0,0.0,0.0,0.0,0.0,0.0,0.0,0.0,0.0,-1.9888,-1.9506,-1.903,-1.8439,-1.6558,-1.53,0.0,0.0,0.0,0.0,0.0,0.0,0.0,0.0,0.0,0.0,0.0,0.0,0.0,0.0,0.0,0.0,0.0,0.0,0.0,0.0,0.0,0.0,0.0,0.0,0.0,0.0,0.0,0.0,0.0,0.0,0.0,0.0,0.0,0.0,0.0,0.0,0.0,0.0,0.0,0.0,0.0,0.0,0.0,0.0,0.0,0.0,0.0,0.0,0.0,0.0,0.0,0.0,0.0,0.0,0.0,0.0,0.0,0.0,0.0,0.0,0.0,0.0,0.0,0.0,0.0,0.0,0.0,0.0,0.0,0.0,0.0,0.0,0.0,0.0,0.0,0.0,0.0,0.0,0.0,0.0,0.0,0.0,0.0,0.0,0.0,0.0,0.0,0.0,0.0,0.0,0.0,0.0,0.0,0.0,0.0,0.0,0.0,0.0,0.0,0.0,0.0,0.0,0.0,0.0,0.0,0.0,0.0,0.0,-1.987,-2.0207,-2.1055,-2.1306,-2.0885,-1.7847,-1.5972,0.0,0.0,0.0,0.0,0.0,0.0,0.0,0.0,0.0,0.0,0.0,0.0,0.0,0.0,0.0,0.0,0.0,0.0,0.0,0.0,0.0,0.0,0.0,0.0,0.0,0.0,0.0,0.0,0.0,0.0,0.0,0.0,0.0,0.0,0.0,0.0,0.0,0.0,0.0,0.0,0.0,0.0,0.0,0.0,0.0,0.0,0.0,0.0,0.0,0.0,0.0,0.0,0.0,0.0,0.0,0.0,0.0,0.0,0.0,0.0,0.0,0.0,0.0,0.0,0.0,0.0,0.0,0.0,0.0,0.0,0.0,0.0,0.0,0.0,0.0,0.0,0.0,0.0,0.0,0.0,0.0,0.0,0.0,0.0,0.0,0.0,0.0,0.0,0.0,0.0,0.0,0.0,0.0,0.0,0.0,0.0,0.0,0.0,0.0,0.0,0.0,0.0,0.0,0.0,0.0,0.0,0.0,0.0,-2.0604,-2.0389,-2.2089,-2.2982,-2.2815,-1.915,-1.6749,0.0,0.0,0.0,0.0,0.0,0.0,0.0,0.0,0.0,0.0,0.0,0.0,0.0,0.0,0.0,0.0,0.0,0.0,0.0,0.0,0.0,0.0,0.0,0.0,0.0,0.0,0.0,0.0,0.0,0.0,0.0,0.0,0.0,0.0,0.0,0.0,0.0,0.0,0.0,0.0,0.0,0.0,0.0,0.0,0.0,0.0,0.0,0.0,0.0,0.0,0.0,0.0,0.0,0.0,0.0,0.0,0.0,0.0,0.0,0.0,0.0,0.0,0.0,0.0,0.0,0.0,0.0,0.0,0.0,0.0,0.0,0.0,0.0,0.0,0.0,0.0,0.0,0.0,0.0,0.0,0.0,0.0,0.0,0.0,0.0,0.0,0.0,0.0,0.0,0.0,0.0,0.0,0.0,0.0,0.0,0.0,0.0,0.0,0.0,0.0,0.0,0.0,0.0,0.0,0.0,0.0,0.0,0.0,-2.0915,-2.1379,-2.2429,-2.2977,-2.296,-2.0061,-1.846,0.0,0.0,0.0,0.0,0.0,0.0,0.0,0.0,0.0,0.0,0.0,0.0,0.0,0.0,0.0,0.0,0.0,0.0,0.0,0.0,0.0,0.0,0.0,0.0,0.0,0.0,0.0,0.0,0.0,0.0,0.0,0.0,0.0,0.0,0.0,0.0,0.0,0.0,0.0,0.0,0.0,0.0,0.0,0.0,0.0,0.0,0.0,0.0,-0.7749,0.0,0.0,0.0,0.0,0.0,0.0,0.0,0.0,0.0,0.0,0.0,0.0,0.0,0.0,0.0,0.0,0.0,0.0,0.0,0.0,0.0,0.0,0.0,0.0,0.0,0.0,0.0,0.0,0.0,0.0,0.0,0.0,0.0,0.0,0.0,0.0,0.0,0.0,0.0,0.0,0.0,0.0,0.0,0.0,0.0,0.0,0.0,0.0,0.0,0.0,0.0,0.0,0.0,0.0,0.0,0.0,0.0,0.0,0.0,-2.0952,-2.1607,-2.2524,-2.3008,-2.2937,-2.1085,-1.9852,0.0,0.0,0.0,0.0,0.0,0.0,0.0,0.0,0.0,0.0,0.0,0.0,0.0,0.0,0.0,0.0,0.0,0.0,0.0,0.0,0.0,0.0,0.0,0.0,0.0,0.0,0.0,0.0,0.0,0.0,0.0,0.0,0.0,0.0,0.0,0.0,0.0,0.0,0.0,0.0,0.0,0.0,0.0,0.0,0.0,0.0,0.0,0.0,0.0,0.0,0.0,0.0,0.0,0.0,0.0,0.0,0.0,0.0,0.0,0.0,0.0,0.0,0.0,0.0,0.0,0.0,0.0,0.0,0.0,0.0,0.0,0.0,0.0,0.0,0.0,0.0,0.0,0.0,0.0,0.0,0.0,0.0,0.0,0.0,0.0,0.0,0.0,0.0,0.0,0.0,0.0,0.0,0.0,0.0,0.0,0.0,0.0,0.0,0.0,0.0,0.0,0.0,0.0,0.0,0.0,0.0,0.0,-2.0107,-2.0967,-2.17,-2.2568,-2.3015,-2.3005,-2.2018,-2.0903,-1.9727,0.0,0.0,0.0,0.0,0.0,0.0,0.0,0.0,0.0,0.0,0.0,0.0,0.0,0.0,0.0,0.0,0.0,0.0,0.0,0.0,0.0,0.0,0.0,0.0,0.0,0.0,0.0,0.0,0.0,0.0,0.0,0.0,0.0,0.0,0.0,0.0,0.0,0.0,-1.379,-1.3265,0.0,0.0,0.0,0.0,0.0,0.0,0.0,0.0,-0.7059,0.0,0.0,0.0,0.0,0.0,0.0,0.0,0.0,0.0,0.0,0.0,0.0,0.0,0.0,0.0,0.0,0.0,0.0,0.0,0.0,0.0,0.0,0.0,0.0,0.0,0.0,0.0,0.0,0.0,0.0,0.0,0.0,0.0,0.0,0.0,0.0,0.0,0.0,0.0,0.0,0.0,0.0,0.0,0.0,0.0,0.0,0.0,0.0,0.0,0.0,0.0,0.0,0.0,0.0,0.0,0.0,-2.0058,-2.047,-2.1327,-2.2638,-2.2994,-2.3144,-2.3074,-2.2252,-2.1446,-2.0579,0.0,0.0,0.0,0.0,0.0,0.0,0.0,0.0,0.0,0.0,0.0,0.0,0.0,0.0,0.0,0.0,0.0,0.0,0.0,0.0,0.0,0.0,0.0,0.0,0.0,0.0,0.0,0.0,0.0,0.0,0.0,0.0,0.0,0.0,0.0,0.0,0.0,0.0,0.0,-1.2736,-1.1256,0.0,0.0,0.0,0.0,0.0,0.0,0.0,0.0,-0.7639,0.0,0.0,0.0,0.0,0.0,0.0,0.0,0.0,0.0,0.0,0.0,0.0,0.0,0.0,0.0,0.0,0.0,0.0,0.0,0.0,0.0,0.0,0.0,0.0,0.0,0.0,0.0,0.0,0.0,0.0,0.0,0.0,0.0,0.0,0.0,0.0,0.0,0.0,0.0,0.0,0.0,0.0,0.0,0.0,0.0,0.0,0.0,0.0,0.0,0.0,0.0,0.0,0.0,0.0,0.0,-2.0041,-2.1235,-2.2412,-2.3533,-2.4077,-2.4146,-2.3749,-2.3003,-2.2022,0.0,0.0,0.0,0.0,0.0,0.0,0.0,0.0,0.0,0.0,0.0,0.0,0.0,0.0,0.0,0.0,0.0,0.0,0.0,0.0,0.0,0.0,0.0,0.0,0.0,0.0,0.0,0.0,0.0,0.0,0.0,0.0,0.0,0.0,0.0,0.0,0.0,0.0,0.0,0.0,-1.1804,-1.0977,-1.1192,0.0,0.0,0.0,0.0,0.0,0.0,-0.8933,-0.938,0.0,0.0,0.0,0.0,0.0,0.0,0.0,0.0,0.0,0.0,0.0,0.0,0.0,0.0,0.0,0.0,0.0,0.0,0.0,0.0,0.0,0.0,0.0,0.0,0.0,0.0,0.0,0.0,0.0,0.0,0.0,0.0,0.0,0.0,0.0,0.0,0.0,0.0,0.0,0.0,0.0,0.0,0.0,0.0,0.0,0.0,0.0,0.0,0.0,0.0,0.0,0.0,0.0,0.0,0.0,-2.0321,-2.2203,-2.363,-2.4491,-2.513,-2.516,-2.4557,-2.3585,-2.2377,0.0,0.0,0.0,0.0,0.0,0.0,0.0,0.0,0.0,0.0,0.0,0.0,0.0,0.0,0.0,0.0,0.0,0.0,0.0,0.0,0.0,0.0,0.0,0.0,0.0,0.0,0.0,0.0,0.0,0.0,0.0,0.0,0.0,0.0,0.0,0.0,0.0,0.0,0.0,0.0,0.0,-1.0994,-1.1477,-1.0672,0.0,0.0,0.0,0.0,-0.7999,-1.0313,0.0,0.0,0.0,0.0,0.0,0.0,0.0,0.0,0.0,0.0,0.0,0.0,0.0,0.0,0.0,0.0,0.0,0.0,0.0,0.0,0.0,0.0,0.0,0.0,0.0,0.0,0.0,0.0,0.0,0.0,0.0,0.0,0.0,0.0,0.0,0.0,0.0,0.0,0.0,0.0,0.0,0.0,0.0,0.0,0.0,0.0,0.0,0.0,0.0,0.0,0.0,0.0,0.0,0.0,0.0,0.0,-2.1929,-2.3454,-2.4663,-2.5468,-2.557,-2.5522,-2.5422,-2.3302,-2.209,0.0,0.0,0.0,0.0,0.0,0.0,0.0,0.0,0.0,0.0,0.0,0.0,0.0,0.0,0.0,0.0,0.0,0.0,0.0,0.0,0.0,0.0,0.0,0.0,0.0,0.0,0.0,0.0,0.0,0.0,0.0,0.0,0.0,0.0,0.0,0.0,0.0,0.0,0.0,0.0,0.0,-1.1025,-1.1373,-0.9565,-0.7956,0.0,0.0,-1.1932,-1.1705,-1.446,0.0,0.0,0.0,0.0,0.0,0.0,0.0,0.0,0.0,0.0,0.0,0.0,0.0,0.0,0.0,0.0,0.0,0.0,0.0,0.0,0.0,0.0,0.0,0.0,0.0,0.0,0.0,0.0,0.0,0.0,0.0,0.0,0.0,0.0,0.0,0.0,0.0,0.0,0.0,0.0,0.0,0.0,0.0,0.0,0.0,0.0,0.0,0.0,0.0,0.0,0.0,0.0,0.0,0.0,0.0,-2.1462,-2.2015,-2.4255,-2.5664,-2.6151,-2.6602,-2.6629,-2.6188,-2.4041,-2.2616,0.0,0.0,0.0,0.0,0.0,0.0,0.0,0.0,0.0,0.0,0.0,0.0,0.0,0.0,0.0,0.0,0.0,0.0,0.0,0.0,0.0,0.0,0.0,0.0,0.0,0.0,0.0,0.0,0.0,0.0,0.0,0.0,0.0,0.0,0.0,0.0,0.0,0.0,0.0,0.0,0.0,0.0,-1.2308,-1.1277,0.0,0.0,0.0,-1.2091,-1.0464,0.0,0.0,0.0,0.0,0.0,0.0,0.0,0.0,0.0,0.0,0.0,0.0,0.0,0.0,0.0,0.0,0.0,0.0,0.0,0.0,0.0,0.0,0.0,0.0,0.0,0.0,0.0,0.0,0.0,0.0,0.0,0.0,0.0,0.0,0.0,0.0,0.0,0.0,0.0,0.0,0.0,0.0,0.0,0.0,0.0,0.0,0.0,0.0,0.0,0.0,0.0,0.0,0.0,0.0,0.0,0.0,0.0,-2.2399,-2.5153,-2.6667,-2.6897,-2.7464,-2.751,-2.6929,-2.5048,0.0,0.0,0.0,0.0,0.0,0.0,0.0,0.0,0.0,0.0,0.0,0.0,0.0,0.0,0.0,0.0,0.0,0.0,0.0,0.0,0.0,0.0,0.0,0.0,0.0,0.0,0.0,-1.6243,0.0,0.0,0.0,0.0,0.0,0.0,0.0,0.0,0.0,0.0,0.0,0.0,0.0,0.0,-1.2896,-1.4002,-1.322,-1.2847,0.0,0.0,-1.258,-1.1377,-1.7218,-1.9899,0.0,0.0,0.0,0.0,0.0,0.0,0.0,0.0,0.0,0.0,0.0,0.0,0.0,0.0,0.0,0.0,0.0,0.0,0.0,0.0,0.0,0.0,0.0,0.0,0.0,0.0,0.0,0.0,0.0,0.0,0.0,0.0,0.0,0.0,0.0,0.0,0.0,0.0,0.0,0.0,0.0,0.0,0.0,0.0,0.0,0.0,0.0,0.0,0.0,0.0,0.0,0.0,0.0,0.0,0.0,-2.3933,-2.632,-2.7689,-2.7883,-2.7771,-2.7771,-2.7872,-2.6087,-2.4432,0.0,0.0,0.0,0.0,0.0,0.0,0.0,0.0,0.0,0.0,0.0,0.0,0.0,0.0,0.0,0.0,0.0,0.0,0.0,0.0,0.0,0.0,0.0,0.0,0.0,0.0,0.0,0.0,0.0,0.0,0.0,0.0,0.0,0.0,0.0,0.0,0.0,0.0,0.0,0.0,0.0,-1.3835,-1.6624,-1.4654,-1.395,0.0,0.0,-1.5044,-1.7764,-2.1404,-2.1732,-1.5135,0.0,0.0,0.0,0.0,0.0,0.0,0.0,0.0,0.0,0.0,0.0,0.0,0.0,0.0,0.0,0.0,0.0,0.0,0.0,0.0,0.0,0.0,0.0,0.0,0.0,0.0,0.0,0.0,0.0,0.0,0.0,0.0,0.0,0.0,0.0,0.0,0.0,0.0,0.0,0.0,0.0,0.0,0.0,0.0,0.0,0.0,0.0,0.0,0.0,0.0,0.0,0.0,0.0,-2.4462,-2.4053,-2.6662,-2.795,-2.7694,-2.7662,-2.7644,-2.7692,-2.6163,-2.4606,0.0,0.0,0.0,0.0,0.0,0.0,0.0,0.0,0.0,0.0,0.0,0.0,0.0,0.0,0.0,0.0,0.0,0.0,0.0,0.0,0.0,0.0,0.0,0.0,0.0,0.0,0.0,0.0,-1.843,-1.8567,-1.7845,0.0,0.0,0.0,0.0,0.0,0.0,0.0,0.0,0.0,0.0,-1.6757,-1.8256,-1.747,0.0,0.0,-1.7866,-1.6987,-1.6182,-1.8886,-1.8828,-1.2285,-1.25,0.0,0.0,0.0,0.0,0.0,0.0,0.0,0.0,0.0,0.0,0.0,0.0,0.0,0.0,0.0,0.0,0.0,0.0,0.0,0.0,0.0,0.0,0.0,0.0,0.0,0.0,0.0,0.0,0.0,0.0,0.0,0.0,0.0,0.0,0.0,0.0,0.0,0.0,0.0,0.0,0.0,0.0,0.0,0.0,0.0,0.0,0.0,0.0,0.0,0.0,0.0,0.0,-2.4975,-2.4389,-2.7056,-2.8272,-2.7936,-2.7709,-2.7554,-2.7472,-2.6486,-2.519,0.0,0.0,0.0,0.0,0.0,0.0,0.0,0.0,0.0,0.0,0.0,0.0,0.0,0.0,0.0,0.0,0.0,0.0,0.0,0.0,0.0,0.0,0.0,0.0,0.0,0.0,0.0,0.0,-1.9419,-1.988,-1.9463,0.0,0.0,0.0,0.0,0.0,0.0,0.0,0.0,0.0,0.0,-1.8712,-1.8993,-1.8256,-1.7674,-1.7728,-1.6903,-1.5797,-1.4504,-1.6961,-1.7137,-1.1723,0.0,0.0,0.0,0.0,0.0,0.0,0.0,0.0,0.0,0.0,0.0,0.0,0.0,0.0,0.0,0.0,0.0,0.0,0.0,0.0,0.0,0.0,0.0,0.0,0.0,0.0,0.0,0.0,0.0,0.0,-1.4077,0.0,0.0,0.0,0.0,0.0,0.0,0.0,0.0,0.0,0.0,0.0,0.0,0.0,0.0,0.0,0.0,0.0,0.0,0.0,0.0,0.0,0.0,-2.5207,-2.5211,-2.7563,-2.88,-2.8822,-2.8047,-2.7589,-2.7496,-2.7284,-2.6486,-2.5053,0.0,0.0,0.0,0.0,0.0,0.0,0.0,0.0,0.0,0.0,0.0,0.0,0.0,0.0,0.0,0.0,0.0,0.0,0.0,0.0,0.0,0.0,0.0,0.0,0.0,0.0,-1.8695,-1.98,-2.0359,0.0,0.0,0.0,0.0,0.0,0.0,0.0,0.0,0.0,0.0,-1.8716,-1.9136,-1.8757,-1.6263,-1.4581,-1.4598,-1.1872,-1.0818,-1.3945,-1.6817,-1.7734,0.0,0.0,0.0,0.0,0.0,0.0,0.0,0.0,0.0,0.0,0.0,0.0,0.0,0.0,0.0,0.0,0.0,0.0,0.0,0.0,0.0,0.0,0.0,0.0,0.0,0.0,0.0,-1.7435,-1.5658,0.0,0.0,0.0,0.0,0.0,0.0,0.0,0.0,0.0,0.0,0.0,-2.0691,-2.0728,0.0,0.0,0.0,0.0,0.0,0.0,0.0,0.0,0.0,0.0,0.0,0.0,-2.5824,-2.548,-2.8117,-2.9293,-2.8788,-2.8383,-2.7861,-2.7202,-2.7568,-2.6778,-2.4646,0.0,0.0,0.0,0.0,0.0,0.0,0.0,0.0,0.0,0.0,0.0,0.0,0.0,0.0,0.0,0.0,0.0,0.0,0.0,0.0,0.0,0.0,0.0,0.0,0.0,-2.0108,0.0,0.0,0.0,0.0,0.0,0.0,0.0,0.0,0.0,0.0,0.0,-1.7766,-2.0907,-1.9704,-1.8535,-1.8666,-1.6256,-1.515,0.0,0.0,0.0,0.0,0.0,0.0,0.0,0.0,0.0,0.0,0.0,0.0,0.0,0.0,-2.0204,-1.8669,-1.8792,-2.0073,-2.3155,0.0,0.0,0.0,0.0,0.0,0.0,0.0,0.0,0.0,0.0,0.0,0.0,0.0,0.0,-1.6633,0.0,-1.5649,0.0,0.0,0.0,0.0,0.0,0.0,0.0,0.0,-2.0535,-2.1576,-2.2132,-2.2388,-2.2588,0.0,-2.3097,-2.2505,0.0,0.0,0.0,0.0,0.0,0.0,0.0,0.0,-2.6088,-2.5607,-2.8708,-2.9833,-2.8793,-2.8891,-2.8436,-2.7434,-2.7828,-2.7173,-2.5299,-2.3786,-2.2077,0.0,0.0,0.0,0.0,0.0,0.0,0.0,0.0,0.0,0.0,0.0,0.0,0.0,0.0,0.0,0.0,0.0,0.0,0.0,0.0,0.0,0.0,0.0,-2.0959,0.0,0.0,0.0,0.0,0.0,0.0,0.0,0.0,0.0,-2.2525,-2.0854,-2.0435,-2.2579,-2.1115,-1.946,-1.8547,0.0,0.0,0.0,0.0,0.0,0.0,0.0,-1.5706,-1.5656,-1.6857,-1.8034,-1.8694,-2.0809,-2.3038,-2.5,0.0,0.0,-2.176,-2.1587,-2.2638,-2.488,-2.5364,-2.5317,-2.5077,-2.4929,-2.4763,0.0,0.0,0.0,0.0,0.0,0.0,0.0,0.0,-1.4034,-1.4128,0.0,-1.3441,0.0,0.0,0.0,0.0,0.0,-1.9316,0.0,0.0,-2.3751,-2.4643,-2.3711,-2.4289,-2.4608,-2.4615,-2.4393,-2.4433,-2.4714,-2.4898,0.0,0.0,0.0,0.0,0.0,0.0,-2.5976,-2.5747,-2.9289,-3.0416,-2.8856,-2.939,-2.9194,-2.8118,-2.8015,-2.7674,-2.6986,-2.5069,-2.3771,-2.322,-2.041,0.0,0.0,0.0,0.0,0.0,0.0,0.0,0.0,0.0,0.0,0.0,0.0,0.0,0.0,0.0,0.0,0.0,0.0,0.0,0.0,-2.1151,0.0,0.0,0.0,0.0,0.0,0.0,0.0,0.0,0.0,0.0,-2.2689,-2.2616,-2.2656,-2.2578,0.0,0.0,0.0,0.0,-1.7109,-1.3979,-1.3321,-1.3412,-1.3723,-1.6777,-1.942,-2.0427,0.0,0.0,-2.7097,-2.7068,-2.6888,-2.6993,-2.7471,-2.7504,-2.6094,-2.573,-2.6023,-2.6805,-2.6959,-2.6926,-2.6843,-2.6468,-2.6082,-1.5476,0.0,0.0,0.0,0.0,-1.5408,-1.4421,-1.3042,-1.4367,-1.3781,-1.2008,-1.3428,0.0,0.0,0.0,0.0,0.0,0.0,-2.1091,-2.2833,-2.3515,-2.45,-2.5765,-2.5462,-2.5342,-2.5404,-2.5843,-2.6189,-2.6419,-2.697,-2.5556,-2.2259,0.0,0.0,0.0,0.0,-2.5968,-2.7551,-2.8997,-2.9363,-2.8612,-2.8724,-2.8509,-2.7894,-2.7963,-2.7675,-2.7024,-2.6503,-2.5572,-2.4119,-2.3115,0.0,0.0,0.0,0.0,0.0,0.0,0.0,0.0,0.0,0.0,0.0,0.0,0.0,0.0,0.0,0.0,0.0,0.0,0.0,-2.1135,-2.1463,-2.1602,0.0,0.0,0.0,0.0,0.0,0.0,0.0,0.0,0.0,-2.3808,-2.29,-2.2209,0.0,0.0,-1.8683,-1.7731,-1.705,-1.7008,-1.8131,-1.7462,0.0,-2.2609,-2.233,-2.2398,-2.4603,-2.6467,-2.7603,-2.7521,-2.8203,-2.875,-2.875,-2.8888,-2.9059,-2.9248,-2.8716,-2.8408,-2.8665,-2.8527,-2.8334,-2.8334,-2.7736,-2.7183,-1.3982,-1.4186,-1.5031,-1.4974,-1.4311,-1.4007,-1.2932,-1.15,-1.2577,-1.2203,-1.0872,-1.2021,-1.2385,-1.2313,-1.5044,0.0,0.0,0.0,-2.1672,-2.2661,-2.3602,-2.4226,-2.4603,-2.5587,-2.6059,-2.6154,-2.6812,-2.7294,-2.7625,-2.721,-2.5911,-2.3807,0.0,0.0,-2.3868,-2.517,-2.6469,-2.775,-2.8748,-2.8846,-2.8018,-2.8407,-2.8527,-2.8299,-2.8334,-2.8065,-2.7335,-2.716,-2.6576,-2.5432,-2.4459,-2.2646,0.0,0.0,0.0,0.0,0.0,0.0,0.0,0.0,0.0,0.0,0.0,-2.0115,-1.9957,0.0,0.0,0.0,-2.0876,-2.0942,-2.123,-2.1386,0.0,0.0,0.0,0.0,0.0,0.0,0.0,-2.3209,-2.3681,-2.4174,-2.4577,-2.411,-2.367,-2.3502,-2.2183,-2.1207,-2.1152,0.0,-2.0976,-2.2689,-2.2224,-2.2929,-2.6498,-2.5857,-2.5613,-2.7708,-2.8635,-2.9018,-2.8829,-2.9536,-3.0117,-3.0135,-3.0135,-3.0272,-3.077,-3.0275,-2.9858,-3.0081,-2.9952,-2.9747,-2.9616,-2.8975,-2.8477,-1.2989,-1.2529,-1.4484,-1.4325,-1.2805,-1.2432,-1.1418,-1.0053,-0.9696,-0.9913,-1.0523,-0.9825,-1.0588,-1.2596,-1.5118,0.0,-2.2719,-2.2826,-2.2374,-2.1517,-2.4122,-2.406,-2.1946,-2.5113,-2.6665,-2.674,-2.7231,-2.7744,-2.8133,-2.6252,-2.5446,-2.5818,-2.6429,-2.6298,-2.551,-2.6511,-2.6963,-2.6828,-2.8401,-2.8611,-2.7368,-2.8407,-2.8993,-2.8993,-2.8993,-2.8637,-2.7841,-2.7233,-2.6893,-2.6856,-2.4957,-2.3726,-2.3276,0.0,0.0,0.0,0.0,0.0,0.0,0.0,0.0,0.0,0.0,0.0,0.0,0.0,0.0,0.0,-2.1167,0.0,-2.1328,-2.1231,0.0,0.0,0.0,-2.2461,-2.3096,-2.3455,-2.3677,-2.3742,0.0,0.0,-2.5288,-2.6044,-2.6436,-2.6047,-2.6568,-2.6908,-2.6742,-2.6816,-2.7193,-2.6837,-2.7062,-2.7181,-2.7538,-2.7945,-2.8596,-2.9589,-3.0289,-3.0369,-3.0328,-3.0684,-3.101,-3.0962,-3.1047,-3.103,-3.1047,-3.0701,-3.0584,-3.0824,-3.0917,-3.0818,-3.0464,-2.9966,-2.9576,-1.3286,-1.2943,-1.346,-1.298,-1.1849,-1.1281,-1.0818,-1.0403,-0.9772,-0.9627,-0.975,-0.9576,-1.1997,-1.629,-1.671,-1.9722,-2.4613,-2.4409,-2.4576,-2.5045,-2.5379,-2.5546,-2.5592,-2.5917,-2.6104,-2.6104,-2.6138,-2.6295,-2.6488,-2.6051,-2.5851,-2.597,-2.6072,-2.5604,-2.4632,-2.4377,-2.5093,-2.6709,-2.6849,-2.7308,-2.8105,-2.8679,-2.8993,-2.8993,-2.8993,-2.8673,-2.7963,-2.7267,-2.6926,-2.6975,-2.6435,-2.5308,-2.3474,-2.0588,0.0,0.0,0.0,0.0,0.0,0.0,0.0,0.0,0.0,-2.0008,-1.9869,0.0,-2.0308,0.0,-2.1219,-2.1928,-2.2436,-2.2552,0.0,0.0,-2.275,-2.3074,-2.3575,-2.4544,-2.5352,-2.5829,-2.6323,-2.6895,-2.7589,-2.8027,-2.8551,-2.9123,-2.7811,-2.6775,-2.6792,-2.7947,-2.8767,-2.8731,-2.9692,-3.0589,-3.0467,-3.0471,-3.0238,-2.9913,-3.0194,-3.0372,-3.0011,-3.0335,-3.0625,-3.0642,-3.0642,-3.0642,-3.0625,-3.0559,-3.0377,-3.0166,-3.0102,-3.0204,-3.0398,-2.9837,-2.938,-1.3794,-1.3465,-1.337,-1.2863,-1.2074,-1.1318,-1.0909,-1.0709,-1.004,-0.9638,-0.9478,-0.9478,-1.3008,-1.8764,-1.7822,-2.0218,-2.5067,-2.5029,-2.4455,-2.3699,-2.4848,-2.4959,-2.424,-2.5211,-2.5696,-2.5768,-2.5624,-2.5661,-2.5791,-2.5846,-2.5895,-2.5965,-2.5909,-2.5359,-2.4337,-2.4012,-2.4537,-2.583,-2.6068,-2.6981,-2.8613,-2.9202,-2.9024,-2.8067,-2.7977,-2.7235,-2.5786,-2.5026,-2.4543,-2.4392,-2.4385,-2.3727,-2.2216,-1.9856,-1.7829,0.0,0.0,0.0,0.0,0.0,0.0,0.0,0.0,0.0,0.0,0.0,-2.0841,-2.1239,-2.188,-2.2382,-2.2656,-2.297,-2.3243,-2.3398,-2.3811,-2.4288,-2.4854,-2.5654,-2.6318,-2.6657,-2.7304,-2.8043,-2.8738,-2.9282,-2.9938,-3.0761,-2.9718,-2.8865,-2.9058,-2.9865,-3.0416,-3.0414,-3.1175,-3.1709,-3.1523,-3.1123,-3.0621,-2.9989,-2.9837,-2.9772,-2.9544,-2.9881,-3.0182,-3.0182,-3.0182,-3.0204,-3.0182,-3.0011,-2.9772,-2.9589,-2.9493,-2.9589,-2.9815,-2.9454,-2.9213,-1.436,-1.3909,-1.375,-1.3366,-1.2833,-1.2033,-1.1447,-1.0996,-1.0393,-0.9911,-0.9578,-0.9829,-1.3783,-2.0055,-1.8673,-2.0568,-2.4955,-2.5048,-2.3533,-2.1092,-2.3786,-2.3756,-2.1505,-2.4106,-2.5432,-2.5524,-2.5451,-2.5473,-2.5591,-2.5682,-2.5709,-2.5697,-2.5714,-2.52,-2.4233,-2.4336,-2.4564,-2.4861,-2.5643,-2.6868,-2.8574,-2.8978,-2.826,-2.6434,-2.608,-2.4962,-2.2897,-2.2062,-2.1466,-2.1079,-2.1135,-2.1185,-2.1081,-1.871,-1.7368,0.0,-1.4811,0.0,0.0,0.0,0.0,0.0,0.0,0.0,0.0,-2.1728,-2.2044,-2.2831,-2.297,-2.2985,-2.2898,-2.3392,-2.3933,-2.4518,-2.5066,-2.5696,-2.6364,-2.6732,-2.6983,-2.7039,-2.8045,-2.886,-2.9247,-2.9951,-3.0675,-3.1123,-3.1155,-3.104,-3.1492,-3.157,-3.1661,-3.1727,-3.1671,-3.1389,-3.0985,-3.0642,-3.0262,-2.9788,-2.9425,-2.9114,-2.916,-2.9432,-2.9722,-2.9705,-2.9722,-2.9722,-2.9722,-2.938,-2.9137,-2.9036,-2.9029,-2.9052,-2.9059,-2.9121,-2.9052,-1.4386,-1.4073,-1.4037,-1.3756,-1.3359,-1.2895,-1.2192,-1.1302,-1.0882,-1.0398,-0.9965,-1.1661,-1.4413,-1.7796,-1.9367,-2.1739,-2.4652,-2.469,-2.4365,-2.3821,-2.4694,-2.4831,-2.4341,-2.4941,-2.5227,-2.5204,-2.5339,-2.5285,-2.5059,-2.5605,-2.5408,-2.4529,-2.4677,-2.4327,-2.3526,0.0,0.0,0.0,-2.5165,-2.5613,-2.6472,-2.4999,-2.4081,-2.3789,-2.2943,0.0,-2.2152,-2.1311,-2.0841,-2.086,-2.0671,0.0,0.0,0.0,0.0,0.0,0.0,0.0,0.0,0.0,0.0,0.0,-2.4159,-2.3648,-2.3787,-2.3575,-2.3741,-2.445,-2.4658,-2.4973,-2.5592,-2.574,-2.5841,-2.5911,-2.6087,-2.6441,-2.7103,-2.747,-2.7884,-2.8449,-2.898,-2.9418,-2.9626,-2.9946,-3.0204,-3.0518,-3.0638,-3.0683,-3.0764,-3.1351,-3.1634,-3.1315,-3.1004,-3.0601,-3.0118,-3.0011,-2.9832,-2.9357,-2.919,-2.9114,-2.9114,-2.9183,-2.9236,-2.9259,-2.9236,-2.9259,-2.9275,-2.9144,-2.9045,-2.8685,-2.8637,-2.8622,-2.8622,-2.8873,-2.8897,-1.4489,0.0,-1.4165,-1.3985,0.0,-1.3201,-1.2542,-1.1802,-1.1342,-1.1354,-1.1685,-1.1723,-1.4329,-1.8846,-1.9002,-2.0999,-2.4354,-2.4364,-2.4302,-2.4224,-2.4553,-2.4731,-2.4811,-2.4946,-2.4989,-2.4966,-2.5091,-2.5075,-2.5017,-2.5435,-2.558,-2.5428,-2.5546,-2.5584,-2.5589,-2.5668,-2.5865,-2.6193,-2.592,-2.6646,-2.8263,-2.7373,-2.6318,-2.535,-2.4736,0.0,0.0,0.0,0.0,0.0,0.0,0.0,0.0,0.0,0.0,-2.3541,-2.2413,-2.2629,-2.4723,-2.4832,-2.5584,-2.7339,-2.6978,-2.6066,-2.4814,-2.4967,-2.5297,-2.5647,-2.5768,-2.5966,-2.6349,-2.671,-2.6872,-2.6872,-2.7165,-2.7534,-2.7835,-2.8038,-2.828,-2.8599,-2.8905,-2.9198,-2.9572,-2.9633,-2.9859,-3.0309,-3.0368,-3.0368,-3.0497,-3.0865,-3.1044,-3.0845,-3.0662,-3.0314,-2.9903,-2.9793,-2.9633,-2.9236,-2.9114,-2.9114,-2.9114,-2.9114,-2.9114,-2.9114,-2.9114,-2.9193,-2.9556,-2.9478,-2.9332,-2.9441,-2.9335,-2.9124,-2.8926,-2.8698,-2.8391,-1.4605,-1.4533,-1.4238,-1.4129,-1.4129,-1.3258,-1.2636,-1.2154,0.0,0.0,0.0,-1.2108,-1.486,-2.0008,-1.9355,-2.0983,-2.4273,-2.4365,-2.4279,-2.4187,-2.4322,-2.4487,-2.4627,-2.4703,-2.4686,-2.4722,-2.4921,-2.5124,-2.5219,-2.5566,-2.6128,-2.6755,-2.6859,-2.7214,-2.7891,-2.807,-2.7927,-2.7485,-2.6969,-2.7812,-3.0038,-2.9778,-2.8711,-2.6772,-2.6586,-2.5565,-2.3649,-2.3508,-2.3334,-2.2985,-2.3028,-2.3116,-2.3242,-2.3108,-2.3171,-2.3475,-2.324,-2.4247,-2.6829,-2.6893,-2.7687,-2.9771,-2.9357,-2.8045,-2.5756,-2.629,-2.6734,-2.6749,-2.6749,-2.6749,-2.6772,-2.7226,-2.758,-2.758,-2.8073,-2.8396,-2.8396,-2.8411,-2.8405,-2.842,-2.8525,-2.8771,-2.9189,-2.925,-2.9454,-2.9995,-3.0027,-3.0044,-3.0225,-3.033,-3.0414,-3.0372,-3.023,-3.0054,-2.9788,-2.9655,-2.9515,-2.9167,-2.9225,-2.9288,-2.9304,-2.9398,-2.9461,-2.9604,-2.9493,-2.9746,-3.0203,-3.0112,-2.9937,-3.0305,-3.0158,-2.9765,-2.927,-2.8588,-2.8117,-1.4533,-1.4425,-1.4209,-1.4274,-1.4453,-1.3368,-1.2452,-1.1755,-1.1111,-1.094,-1.1359,-1.5541,-1.7704,-1.8609,-2.297,-2.5138,-2.5393,-2.54,-2.5431,-2.5477,-2.509,-2.4979,-2.5072,-2.4594,-2.438,-2.4446,-2.5207,-2.5576,-2.5728,-2.6634,-2.7208,-2.7302,-2.7478,-2.7681,-2.7899,-2.7987,-2.8367,-2.8947,-2.7519,-2.6894,-2.7091,-2.5473,-2.4242,-2.3429,-2.3261,-2.3024,-2.2919,-2.2835,-2.272,-2.2821,-2.2583,-2.3548,-2.6,-2.5895,-2.6785,-2.907,-2.9248,-2.9451,-2.985,-2.9861,-2.9769,-2.9581,-2.947,-2.8963,-2.802,-2.8033,-2.8134,-2.8119,-2.8057,-2.8119,-2.8134,-2.8165,-2.8227,-2.8242,-2.8334,-2.8411,-2.8411,-2.8411,-2.8436,-2.842,-2.8517,-2.8621,-2.8771,-2.8897,-2.902,-2.9136,-2.9341,-2.9305,-2.9425,-2.9655,-2.9859,-2.9837,-2.9544,-2.9305,-2.9362,-2.9213,-2.927,-2.9137,-2.9674,-3.0038,-3.0038,-3.0433,-3.0709,-3.0851,-3.0756,-3.0851,-3.1049,-3.1016,-3.0703,-3.0313,-3.0084,-2.9759,-2.9121,-2.8773,-2.8625,-1.4497,-1.4389,-1.4173,-1.4137,-1.4109,-1.3003,-1.2893,-1.3179,-1.1593,-1.09,-1.1323,-1.5246,-1.7571,-1.8815,-2.2714,-2.5047,-2.5909,-2.5786,-2.5786,-2.5871,-2.5735,-2.571,-2.5852,-2.5927,-2.598,-2.6033,-2.651,-2.6826,-2.6969,-2.7275,-2.765,-2.8146,-2.8697,-2.9035,-2.9139,-2.9247,-2.9515,-2.9902,-2.88,-2.8352,-2.8634,-2.7817,-2.7223,-2.6944,-2.6795,-2.6823,-2.6963,-2.6888,-2.687,-2.6963,-2.6842,-2.7394,-2.8706,-2.8672,-2.9177,-3.0393,-3.0489,-3.0405,-3.0236,-2.9853,-2.9522,-2.922,-2.899,-2.8763,-2.842,-2.8411,-2.8411,-2.8411,-2.8411,-2.8411,-2.8411,-2.8411,-2.8411,-2.8411,-2.8411,-2.8411,-2.8436,-2.8484,-2.8517,-2.8532,-2.8636,-2.8732,-2.8771,-2.885,-2.8928,-2.899,-2.9075,-2.9114,-2.9146,-2.96,-2.9879,-2.9482,-2.9236,-2.9327,-2.9611,-2.9706,-2.9848,-3.0156,-3.0528,-3.0717,-3.0749,-3.1081,-3.1167,-3.1182,-3.1198,-3.1381,-3.1681,-3.1589,-3.1311,-3.1128,-3.079,-3.0413,-2.99,-2.9726,-2.9493,-1.4497,-1.4389,-1.4274,-1.4324,-1.4427,-1.3571,-1.3825,-1.4574,-1.2745,-1.2007,-1.2578,-1.5483,-1.7664,-1.928,-2.2728,-2.5165,-2.6364,-2.6317,-2.6285,-2.6403,-2.6558,-2.6688,-2.6826,-2.738,-2.7635,-2.7744,-2.8015,-2.8316,-2.8509,-2.8269,-2.8421,-2.9065,-2.967,-3.0055,-3.0146,-3.0274,-3.0396,-3.0452,-2.9943,-2.9926,-3.0472,-3.0489,-3.0472,-3.0489,-3.0464,-3.0489,-3.0489,-3.0489,-3.0489,-3.0489,-3.0489,-3.0489,-3.0489,-3.0489,-3.0489,-3.0489,-3.0489,-3.0342,-2.9995,-2.9477,-2.9067,-2.8904,-2.8653,-2.8493,-2.842,-2.8411,-2.8411,-2.8411,-2.8411,-2.8411,-2.8411,-2.8411,-2.8411,-2.8411,-2.8411,-2.8411,-2.8436,-2.8517,-2.8612,-2.8612,-2.8732,-2.8834,-2.8897,-2.8928,-2.899,-2.9075,-2.9114,-2.9146,-2.9367,-2.9864,-2.9911,-2.9746,-2.9572,-2.9809,-3.0338,-3.0417,-3.0622,-3.1135,-3.1349,-3.1428,-3.1492,-3.1555,-3.1688,-3.1767,-3.176,-3.1981,-3.2367,-3.2149,-3.1948,-3.1916,-3.1558,-3.1072,-3.0601,-3.0496,-3.0322,-1.4425,-1.4425,-1.4561,-1.5345,-1.6595,-1.6132,-1.5535,-1.4869,-1.4519,-1.4797,-1.5485,-1.8667,-1.9719,-2.0204,-2.5485,-2.7805,-2.747,-2.743,-2.749,-2.7614,-2.7758,-2.7896,-2.8066,-2.8255,-2.8432,-2.8755,-2.9333,-2.9864,-3.0311,-3.0277,-3.0142,-2.9842,-2.9886,-2.9978,-3.0049,-3.0162,-3.0274,-3.0401,-3.0418,-3.0423,-3.0472,-3.0489,-3.0489,-3.0489,-3.0489,-3.0489,-3.0489,-3.0489,-3.0489,-3.0489,-3.0489,-3.0489,-3.0489,-3.0489,-3.0489,-3.0468,-3.0468,-3.0359,-3.0017,-2.993,-2.956,-2.8997,-2.885,-2.87,-2.842,-2.8411,-2.8411,-2.8411,-2.8411,-2.8411,-2.8411,-2.8411,-2.8411,-2.8411,-2.8411,-2.8411,-2.8436,-2.8517,-2.8612,-2.8612,-2.8771,-2.8897,-2.8943,-2.899,-2.9091,-2.9209,-2.924,-2.9461,-2.999,-3.0299,-3.0583,-3.0875,-3.0993,-3.1009,-3.1144,-3.1128,-3.1239,-3.1309,-3.1776,-3.2092,-3.2276,-3.2613,-3.3072,-3.2708,-3.2877,-3.2883,-3.2909,-3.2837,-3.2451,-3.2167,-3.1752,-3.1146,-3.0762,-3.0612,-3.0452,-1.4461,-1.4627,-1.5537,-1.7695,-1.9985,-1.8683,-1.7597,-1.6905,-1.5404,-1.5176,-1.6111,-1.888,-2.0985,-2.2694,-2.6666,-2.8244,-2.7949,-2.7775,-2.8001,-2.849,-2.8657,-2.8996,-2.9521,-2.9986,-3.032,-3.0573,-3.1005,-3.1406,-3.1686,-3.1533,-3.132,-3.1105,-3.0807,-3.0668,-3.0746,-3.0466,-3.0359,-3.0464,-3.0506,-3.0489,-3.0489,-3.0489,-3.0489,-3.0489,-3.0489,-3.0489,-3.0489,-3.0489,-3.0489,-3.0489,-3.0489,-3.0422,-3.0231,-3.0194,-3.021,-3.0189,-3.0022,-2.9722,-2.9403,-2.919,-2.8936,-2.8621,-2.8597,-2.8549,-2.8436,-2.8411,-2.8411,-2.8411,-2.8411,-2.8411,-2.8411,-2.8411,-2.8411,-2.8411,-2.8411,-2.8411,-2.8411,-2.8565,-2.8708,-2.8732,-2.8905,-2.9013,-2.9013,-2.9052,-2.9288,-2.9611,-2.9753,-3.0022,-3.067,-3.1128,-3.1532,-3.1808,-3.2155,-3.2218,-3.195,-3.1839,-3.1997,-3.2345,-3.2661,-3.2866,-3.2898,-3.304,-3.3293,-3.3266,-3.3038,-3.2888,-3.2815,-3.2508,-3.216,-3.1936,-3.1537,-3.091,-3.0672,-3.0612,-3.0612,-1.4389,-1.4822,-1.6284,-1.9273,-2.2795,-2.0852,-1.978,-1.937,-1.7656,-1.7329,-1.8127,-2.003,-2.2717,-2.5772,-2.7529,-2.8213,-2.8272,-2.8112,-2.8449,-2.9197,-2.955,-3.0031,-3.0641,-3.1446,-3.1942,-3.2207,-3.2477,-3.2654,-3.2713,-3.2458,-3.2206,-3.1963,-3.157,-3.1401,-3.1471,-3.0948,-3.0677,-3.0724,-3.06,-3.0489,-3.0489,-3.0489,-3.0489,-3.0489,-3.0489,-3.0489,-3.0489,-3.0489,-3.0464,-3.0342,-3.0359,-3.0231,-2.9908,-2.9864,-2.9864,-2.9842,-2.9643,-2.9335,-2.8928,-2.8677,-2.8517,-2.842,-2.8411,-2.8411,-2.8411,-2.8411,-2.8411,-2.8411,-2.8411,-2.8411,-2.8411,-2.8411,-2.8411,-2.8411,-2.8411,-2.8411,-2.8436,-2.8652,-2.8794,-2.8818,-2.899,-2.9114,-2.9146,-2.9288,-2.9643,-3.0038,-3.0362,-3.0717,-3.1349,-3.1918,-3.2307,-3.2529,-3.2898,-3.2919,-3.2619,-3.2576,-3.2861,-3.3014,-3.315,-3.2986,-3.3065,-3.3011,-3.2904,-3.2617,-3.2492,-3.2422,-3.2382,-3.2048,-3.168,-3.1379,-3.1131,-3.091,-3.0717,-3.0672,-3.0628,-1.4145,-1.4874,-1.6303,-1.9692,-2.3548,-2.2546,-2.2014,-2.1817,-2.1937,-2.2479,-2.2868,-2.3142,-2.5366,-2.8638,-2.844,-2.8369,-2.858,-2.8599,-2.9038,-2.9803,-3.0512,-3.1013,-3.1236,-3.2292,-3.2953,-3.3114,-3.3344,-3.337,-3.3113,-3.3048,-3.2692,-3.2077,-3.2035,-3.2017,-3.2076,-3.1591,-3.1303,-3.1331,-3.0905,-3.0555,-3.0522,-3.0522,-3.0539,-3.0506,-3.0489,-3.0489,-3.0489,-3.0489,-3.0342,-3.0038,-3.0038,-2.9886,-2.956,-2.9515,-2.9515,-2.9509,-2.9493,-2.9312,-2.8951,-2.8834,-2.8685,-2.8468,-2.8411,-2.8411,-2.8411,-2.8411,-2.8411,-2.8411,-2.8411,-2.8411,-2.8411,-2.8411,-2.8411,-2.8411,-2.8411,-2.8411,-2.8411,-2.8628,-2.8771,-2.8794,-2.8881,-2.9069,-2.9122,-2.9722,-3.0061,-3.0361,-3.0772,-3.1378,-3.1927,-3.223,-3.254,-3.2819,-3.2853,-3.2749,-3.3124,-3.2876,-3.2977,-3.3049,-3.2738,-3.2614,-3.2449,-3.2327,-3.216,-3.202,-3.1992,-3.1936,-3.1879,-3.168,-3.135,-3.119,-3.1307,-3.1131,-3.0791,-3.0702,-3.0672,-1.5952,-1.8597,-2.0467,-2.2781,-2.4956,-2.4704,-2.3787,-2.2489,-2.2572,-2.3309,-2.4317,-2.4255,-2.6225,-2.9719,-2.9277,-2.9155,-2.9232,-2.9312,-2.9807,-3.0561,-3.0955,-3.1411,-3.2004,-3.261,-3.3032,-3.3309,-3.3581,-3.3726,-3.3752,-3.3744,-3.3615,-3.3332,-3.2942,-3.281,-3.2838,-3.237,-3.2138,-3.2199,-3.2012,-3.1686,-3.125,-3.1201,-3.0986,-3.0539,-3.0489,-3.0489,-3.0489,-3.0489,-3.0321,-3.0017,-2.9995,-2.9732,-2.9182,-2.9129,-2.9013,-2.8858,-2.899,-2.8943,-2.8629,-2.8573,-2.8525,-2.842,-2.8411,-2.8411,-2.8411,-2.8411,-2.8411,-2.8411,-2.8411,-2.8411,-2.8411,-2.8411,-2.8411,-2.8411,-2.8411,-2.8387,-2.846,-2.8628,-2.87,-2.8477,-2.8398,-2.8666,-2.9477,-2.9846,-3.0161,-3.0957,-3.1552,-3.1898,-3.2002,-3.2299,-3.25,-3.2388,-3.2272,-3.2216,-3.2327,-3.2367,-3.2382,-3.2355,-3.2216,-3.2173,-3.2033,-3.1977,-3.1851,-3.1737,-3.1667,-3.1552,-3.1523,-3.1481,-3.1146,-3.1043,-3.1161,-3.1176,-3.0866,-3.0732,-3.0702,-1.7933,-2.1284,-2.303,-2.4543,-2.5829,-2.5893,-2.5129,-2.3881,-2.4126,-2.4914,-2.5899,-2.6081,-2.7704,-2.9913,-3.0054,-3.0126,-3.0288,-3.0217,-3.0579,-3.1351,-3.1463,-3.183,-3.2364,-3.2746,-3.3032,-3.3319,-3.3684,-3.3924,-3.4059,-3.4101,-3.4101,-3.4036,-3.3705,-3.3591,-3.3597,-3.3132,-3.2892,-3.2943,-3.2812,-3.2415,-3.2017,-3.1946,-3.1555,-3.0841,-3.0688,-3.0556,-3.0338,-3.0338,-3.0108,-2.9716,-2.9649,-2.938,-2.8826,-2.8748,-2.8629,-2.8468,-2.8605,-2.8668,-2.8444,-2.8411,-2.8411,-2.8411,-2.8411,-2.8411,-2.8411,-2.8411,-2.8411,-2.8411,-2.8411,-2.8348,-2.8162,-2.8097,-2.8186,-2.8323,-2.8235,-2.8122,-2.8122,-2.8204,-2.8244,-2.8162,-2.8246,-2.8774,-2.9568,-2.9892,-3.0438,-3.1294,-3.1818,-3.2072,-3.1982,-3.2117,-3.2299,-3.1964,-3.1794,-3.1752,-3.1709,-3.1652,-3.1879,-3.1908,-3.1766,-3.1709,-3.1652,-3.1623,-3.1537,-3.1466,-3.135,-3.1219,-3.1176,-3.119,-3.1102,-3.0969,-3.1043,-3.1102,-3.0895,-3.0717,-3.0657,-2.007,-2.2672,-2.3472,-2.4632,-2.584,-2.5948,-2.6053,-2.6236,-2.7041,-2.7555,-2.8143,-2.8992,-2.9674,-3.0473,-3.0732,-3.1134,-3.1451,-3.1056,-3.1298,-3.2025,-3.2114,-3.2198,-3.241,-3.2773,-3.3096,-3.3398,-3.3848,-3.4075,-3.4101,-3.4101,-3.4101,-3.4109,-3.4202,-3.4194,-3.4276,-3.3831,-3.3604,-3.3535,-3.3164,-3.2796,-3.2718,-3.2652,-3.2148,-3.1224,-3.1098,-3.0782,-3.0103,-3.0022,-2.9677,-2.9067,-2.8958,-2.8771,-2.8517,-2.8444,-2.8436,-2.8396,-2.842,-2.8411,-2.8411,-2.8411,-2.8411,-2.8411,-2.8411,-2.8411,-2.8411,-2.8411,-2.8372,-2.8299,-2.8299,-2.8137,-2.763,-2.7515,-2.768,-2.8186,-2.7795,-2.7515,-2.7489,-2.7429,-2.7504,-2.7956,-2.8435,-2.8838,-2.9223,-2.9978,-3.074,-3.1043,-3.1551,-3.1886,-3.1751,-3.1823,-3.1879,-3.1766,-3.1495,-3.1292,-3.1131,-3.0984,-3.1321,-3.1552,-3.1379,-3.1263,-3.1219,-3.1146,-3.1029,-3.0955,-3.1014,-3.094,-3.119,-3.1205,-3.1263,-3.1176,-3.1161,-3.1073,-3.0866,-3.0702,-3.0538,-2.2192,-2.3515,-2.4717,-2.5457,-2.5906,-2.6096,-2.658,-2.7294,-2.7837,-2.8695,-2.9682,-3.009,-3.0597,-3.1119,-3.1396,-3.163,-3.1925,-3.181,-3.1924,-3.2176,-3.2302,-3.2355,-3.2496,-3.292,-3.3398,-3.3797,-3.4025,-3.4101,-3.4101,-3.4101,-3.4101,-3.4126,-3.4226,-3.4366,-3.4431,-3.4405,-3.4385,-3.4464,-3.4336,-3.3872,-3.3144,-3.3048,-3.2501,-3.1516,-3.1373,-3.1142,-3.0625,-3.0005,-2.9418,-2.892,-2.8904,-2.8732,-2.8493,-2.8411,-2.8411,-2.8411,-2.8411,-2.8411,-2.8411,-2.8411,-2.8411,-2.8411,-2.8411,-2.8411,-2.8411,-2.8372,-2.8186,-2.787,-2.777,-2.7555,-2.7108,-2.6938,-2.7041,-2.721,-2.7041,-2.6938,-2.7041,-2.7308,-2.7873,-2.8447,-2.8711,-2.9181,-2.9952,-3.0611,-3.0687,-3.1104,-3.156,-3.1709,-3.1234,-3.135,-3.1321,-3.1058,-3.0896,-3.0896,-3.0807,-3.0777,-3.0955,-3.1146,-3.1043,-3.0955,-3.0881,-3.0821,-3.0672,-3.0672,-3.0702,-3.0851,-3.1117,-3.1263,-3.1322,-3.1322,-3.1263,-3.1058,-3.0821,-3.0642,-3.0447,-2.3674,-2.4608,-2.5531,-2.5975,-2.6071,-2.6486,-2.7059,-2.7779,-2.8574,-2.9457,-3.0294,-3.0735,-3.1149,-3.1566,-3.1798,-3.194,-3.2051,-3.2219,-3.2259,-3.2274,-3.2358,-3.2453,-3.2633,-3.3171,-3.3607,-3.3915,-3.405,-3.4101,-3.4101,-3.4101,-3.4126,-3.4176,-3.425,-3.4399,-3.4546,-3.4643,-3.4715,-3.4691,-3.4626,-3.426,-3.3567,-3.3371,-3.286,-3.1865,-3.1679,-3.1353,-3.076,-3.0129,-2.9587,-2.9122,-2.8856,-2.8597,-2.8436,-2.8411,-2.8411,-2.8411,-2.8411,-2.8411,-2.8411,-2.8411,-2.8411,-2.8411,-2.8411,-2.8299,-2.8146,-2.8048,-2.7795,-2.7338,-2.721,-2.6979,-2.6508,-2.6416,-2.6295,-2.6081,-2.6269,-2.649,-2.672,-2.7092,-2.7781,-2.8493,-2.8972,-2.9514,-3.0051,-3.0551,-3.0542,-3.1013,-3.1263,-3.1335,-3.0807,-3.0881,-3.0791,-3.0687,-3.0702,-3.0702,-3.0642,-3.0642,-3.0612,-3.0687,-3.0717,-3.0732,-3.0702,-3.0702,-3.0612,-3.0732,-3.0836,-3.0969,-3.1234,-3.1351,-3.1409,-3.1365,-3.1336,-3.1205,-3.0969,-3.0568,-3.0312,-2.4629,-2.5857,-2.5921,-2.6112,-2.6454,-2.7051,-2.7602,-2.8126,-2.941,-3.0126,-3.0436,-3.1096,-3.1552,-3.1784,-3.1912,-3.2038,-3.2191,-3.233,-3.237,-3.2398,-3.2453,-3.2605,-3.2962,-3.3424,-3.371,-3.3822,-3.3984,-3.4101,-3.4126,-3.4126,-3.4176,-3.4275,-3.4275,-3.4374,-3.4521,-3.4618,-3.4472,-3.43,-3.4275,-3.4043,-3.3614,-3.3594,-3.3127,-3.2065,-3.1992,-3.1618,-3.0886,-3.0567,-3.014,-2.9489,-2.8898,-2.8574,-2.8488,-2.8442,-2.8411,-2.8411,-2.8411,-2.8411,-2.8411,-2.8411,-2.8348,-2.8275,-2.8235,-2.8097,-2.7565,-2.7439,-2.7236,-2.6745,-2.6666,-2.6443,-2.5988,-2.5852,-2.5633,-2.5298,-2.5703,-2.6162,-2.6666,-2.6905,-2.7698,-2.8625,-2.9233,-2.9697,-2.9886,-3.0294,-3.0541,-3.0643,-3.0717,-3.0687,-3.0687,-3.0702,-3.0642,-3.0612,-3.0612,-3.0612,-3.0612,-3.0612,-3.0612,-3.0612,-3.0612,-3.0612,-3.0612,-3.0612,-3.0702,-3.0836,-3.0955,-3.1132,-3.1263,-3.1409,-3.1467,-3.1438,-3.1409,-3.1351,-3.1043,-3.0583,-3.0206,-2.5539,-2.5906,-2.6096,-2.6529,-2.7065,-2.7704,-2.8536,-2.9469,-3.0076,-3.068,-3.1082,-3.1392,-3.1641,-3.1828,-3.194,-3.2066,-3.2219,-3.2342,-3.2398,-3.2453,-3.2691,-3.2908,-3.3203,-3.3529,-3.3797,-3.3975,-3.405,-3.4151,-3.425,-3.4184,-3.4209,-3.43,-3.4134,-3.4126,-3.4109,-3.4066,-3.3949,-3.3873,-3.3848,-3.3626,-3.3261,-3.3182,-3.2917,-3.24,-3.2296,-3.2149,-3.1813,-3.1397,-3.0828,-3.0156,-2.9494,-2.9166,-2.9119,-2.8719,-2.8473,-2.8458,-2.8411,-2.8411,-2.8387,-2.8372,-2.8186,-2.7795,-2.773,-2.7504,-2.6964,-2.6912,-2.664,-2.6244,-2.6123,-2.5879,-2.5397,-2.5272,-2.5337,-2.5632,-2.5901,-2.6183,-2.6647,-2.7505,-2.8432,-2.8984,-2.9811,-3.0205,-3.0336,-3.0438,-3.0612,-3.0612,-3.0612,-3.0612,-3.0612,-3.0612,-3.0612,-3.0612,-3.0612,-3.0612,-3.0612,-3.0612,-3.0612,-3.0612,-3.0612,-3.0612,-3.0612,-3.0612,-3.0762,-3.0955,-3.1043,-3.119,-3.1322,-3.1467,-3.1496,-3.1467,-3.138,-3.1263,-3.0925,-3.0523,-3.0117,-2.648,-2.6423,-2.6451,-2.6794,-2.7347,-2.8209,-2.9007,-2.9771,-3.059,-3.1021,-3.132,-3.1524,-3.1727,-3.1913,-3.2025,-3.2135,-3.2287,-3.237,-3.248,-3.2676,-3.3054,-3.3319,-3.3503,-3.3761,-3.3965,-3.4075,-3.4101,-3.4159,-3.4184,-3.4018,-3.3984,-3.4075,-3.3764,-3.3652,-3.3822,-3.3684,-3.3513,-3.3419,-3.3393,-3.3208,-3.2792,-3.2753,-3.2656,-3.2453,-3.2398,-3.2398,-3.2321,-3.1997,-3.1397,-3.0555,-3.0017,-2.9802,-2.9756,-2.9196,-2.8827,-2.8812,-2.8596,-2.8299,-2.8073,-2.8008,-2.777,-2.7312,-2.7144,-2.686,-2.6496,-2.6377,-2.6136,-2.5605,-2.5536,-2.5342,-2.5172,-2.5222,-2.5607,-2.605,-2.6542,-2.6935,-2.7244,-2.8257,-2.9092,-2.9661,-3.0187,-3.0612,-3.0612,-3.0612,-3.0612,-3.0612,-3.0612,-3.0612,-3.0612,-3.0612,-3.0612,-3.0612,-3.0552,-3.0507,-3.0477,-3.0447,-3.0342,-3.0372,-3.0447,-3.0477,-3.0538,-3.0568,-3.0836,-3.1014,-3.1102,-3.1249,-3.1395,-3.1467,-3.1394,-3.1336,-3.1292,-3.1146,-3.0881,-3.0365,-2.9991,-2.7368,-2.7337,-2.6977,-2.7094,-2.7715,-2.8695,-2.9328,-2.9696,-3.0844,-3.1335,-3.1292,-3.1597,-3.187,-3.2025,-3.2122,-3.2274,-3.2382,-3.2468,-3.273,-3.3043,-3.3398,-3.3668,-3.3745,-3.3949,-3.405,-3.4059,-3.4034,-3.4034,-3.3942,-3.3459,-3.3475,-3.3636,-3.3177,-3.314,-3.3408,-3.3424,-3.3224,-3.298,-3.2953,-3.2792,-3.252,-3.248,-3.2453,-3.2425,-3.2398,-3.2398,-3.2398,-3.229,-3.1844,-3.0678,-3.0555,-3.0494,-3.0417,-2.9848,-2.9541,-2.9383,-2.8949,-2.8333,-2.778,-2.7699,-2.7258,-2.6774,-2.6613,-2.639,-2.5961,-2.5797,-2.5605,-2.5146,-2.5005,-2.5087,-2.5291,-2.5643,-2.6196,-2.6732,-2.7607,-2.8277,-2.8806,-2.9121,-2.9648,-3.0406,-3.0538,-3.0598,-3.0612,-3.0612,-3.0612,-3.0612,-3.0612,-3.0612,-3.0612,-3.0612,-3.0612,-3.0612,-3.0507,-3.0417,-3.0357,-3.0296,-3.016,-3.0054,-3.019,-3.0282,-3.0342,-3.0477,-3.0791,-3.1014,-3.1161,-3.1292,-3.1438,-3.1438,-3.1307,-3.1188,-3.1071,-3.1071,-3.0969,-3.0207,-2.9708,-2.8167,-2.8348,-2.7996,-2.8481,-2.9374,-2.952,-3.0037,-3.0932,-3.1302,-3.1539,-3.1641,-3.1756,-3.194,-3.2135,-3.2206,-3.2259,-3.2453,-3.2703,-3.3069,-3.3503,-3.3633,-3.3822,-3.3949,-3.405,-3.4075,-3.3984,-3.3604,-3.3485,-3.3433,-3.3077,-3.2837,-3.3093,-3.2911,-3.278,-3.3,-3.285,-3.2617,-3.252,-3.2563,-3.2535,-3.2453,-3.2398,-3.2398,-3.2398,-3.2398,-3.2398,-3.2398,-3.2398,-3.2259,-3.1936,-3.149,-3.1182,-3.1059,-3.0566,-3.0217,-3.0006,-2.9516,-2.8892,-2.8334,-2.7792,-2.7136,-2.6321,-2.6198,-2.5811,-2.5286,-2.5298,-2.5229,-2.5018,-2.5018,-2.5317,-2.5697,-2.6267,-2.6849,-2.7531,-2.8163,-2.8825,-2.9572,-2.9852,-3.0031,-3.0222,-3.0462,-3.0612,-3.0612,-3.0612,-3.0612,-3.0612,-3.0612,-3.0612,-3.0612,-3.0612,-3.0507,-3.0447,-3.0221,-3.0038,-2.9732,-2.9639,-2.9532,-2.9501,-2.967,-2.9901,-2.9962,-3.0282,-3.0568,-3.0881,-3.1205,-3.1322,-3.1409,-3.1248,-3.1087,-3.0969,-3.0704,-3.0411,-3.009,-2.9639,-2.9667,-2.9187,-2.927,-2.866,-2.8768,-2.9374,-2.954,-2.9996,-3.0756,-3.1401,-3.1741,-3.1883,-3.1955,-3.2066,-3.2191,-3.2274,-3.2413,-3.2687,-3.3081,-3.3424,-3.3694,-3.3797,-3.3806,-3.3704,-3.3832,-3.3899,-3.3848,-3.3449,-3.3235,-3.305,-3.2621,-3.2434,-3.2734,-3.2477,-3.2468,-3.2648,-3.248,-3.2453,-3.2425,-3.2398,-3.2398,-3.2398,-3.2398,-3.2398,-3.2398,-3.2398,-3.2398,-3.2398,-3.2398,-3.2398,-3.2305,-3.2044,-3.1859,-3.1751,-3.1259,-3.0905,-3.0722,-2.9905,-2.9181,-2.8569,-2.7947,-2.723,-2.638,-2.6295,-2.6179,-2.5947,-2.5846,-2.586,-2.583,-2.5871,-2.6036,-2.6321,-2.6695,-2.7331,-2.7765,-2.8191,-2.8667,-2.9275,-2.9915,-3.0341,-3.0341,-3.0507,-3.0582,-3.0612,-3.0417,-3.0507,-3.0477,-3.0507,-3.0507,-3.0598,-3.0538,-3.0282,-3.0115,-2.9839,-2.9546,-2.9111,-2.8921,-2.8794,-2.8826,-2.8985,-2.9233,-2.9449,-2.9822,-3.0237,-3.0613,-3.0984,-3.119,-3.1219,-3.1029,-3.0528,-3.003,-2.9636,-2.9433,-2.9187,-2.8912,-2.9256,-3.0262,-3.0244,-2.9292,-2.8891,-2.8981,-2.952,-2.9883,-3.0172,-3.127,-3.1855,-3.2025,-3.2163,-3.2191,-3.2274,-3.2441,-3.2676,-3.3054,-3.3398,-3.3684,-3.3797,-3.3781,-3.3688,-3.3491,-3.3481,-3.3497,-3.3555,-3.3082,-3.2879,-3.261,-3.2185,-3.202,-3.2355,-3.2191,-3.2234,-3.2385,-3.2398,-3.2398,-3.2398,-3.2398,-3.2398,-3.2398,-3.2398,-3.2398,-3.2398,-3.2398,-3.2398,-3.2398,-3.2398,-3.2398,-3.2382,-3.2299,-3.2287,-3.2133,-3.1784,-3.1413,-3.1316,-3.015,-2.924,-2.8641,-2.7993,-2.7391,-2.6864,-2.6782,-2.6769,-2.6698,-2.663,-2.6603,-2.6681,-2.6678,-2.6695,-2.6877,-2.7018,-2.7317,-2.7673,-2.7927,-2.8141,-2.8634,-2.9594,-2.9962,-3.0085,-2.9886,-2.9856,-2.9948,-2.9917,-3.0146,-3.0312,-3.0312,-3.0312,-3.0342,-3.0237,-2.9825,-2.9439,-2.9062,-2.8519,-2.8051,-2.7953,-2.7901,-2.8084,-2.8247,-2.8583,-2.8912,-2.9369,-2.9822,-3.0372,-3.0747,-3.0807,-3.0558,-3.0041,-2.9513,-2.8944,-2.87,-2.8589,-2.8432,-2.8216,-2.8785,-3.0998,-3.12,-3.0494,-3.0193,-3.0193,-3.0313,-3.0423,-3.0742,-3.1494,-3.1925,-3.2163,-3.2191,-3.2274,-3.2413,-3.2691,-3.3054,-3.3424,-3.3633,-3.3745,-3.3781,-3.3594,-3.3277,-3.3298,-3.3044,-3.2969,-3.2866,-3.2492,-3.2201,-3.2033,-3.1493,-3.1695,-3.201,-3.2066,-3.2178,-3.2358,-3.2398,-3.2398,-3.2398,-3.2398,-3.2398,-3.2398,-3.2398,-3.2398,-3.2398,-3.2398,-3.2398,-3.2398,-3.2398,-3.2398,-3.237,-3.1908,-3.168,-3.1578,-3.1458,-3.1354,-3.1108,-3.0207,-2.9237,-2.8758,-2.8113,-2.7455,-2.6972,-2.6915,-2.6888,-2.6874,-2.6874,-2.704,-2.702,-2.7015,-2.699,-2.7098,-2.7183,-2.7427,-2.7768,-2.7879,-2.8032,-2.833,-2.862,-2.8857,-2.8857,-2.8857,-2.9002,-2.9205,-2.93,-2.9331,-2.9407,-2.9376,-2.9345,-2.9314,-2.9174,-2.8907,-2.8538,-2.8163,-2.7517,-2.6905,-2.6905,-2.6939,-2.7217,-2.7517,-2.8032,-2.8384,-2.8862,-2.9355,-2.9652,-2.9872,-2.9892,-2.9524,-2.9084,-2.8703,-2.8298,-2.8072,-2.7861,-2.7971,-2.8035,-2.8219,-3.1351,-3.1421,-3.0791,-3.0578,-3.0676,-3.0661,-3.08,-3.1098,-3.1721,-3.2122,-3.2274,-3.2315,-3.2441,-3.2648,-3.2816,-3.3203,-3.3539,-3.3507,-3.3517,-3.3501,-3.3082,-3.2652,-3.2668,-3.2379,-3.216,-3.1979,-3.1752,-3.1838,-3.1894,-3.1695,-3.1697,-3.1925,-3.2122,-3.2259,-3.237,-3.2398,-3.2398,-3.2398,-3.2398,-3.2398,-3.2398,-3.2398,-3.2398,-3.2398,-3.2398,-3.2398,-3.2342,-3.2035,-3.1951,-3.1794,-3.132,-3.1058,-3.0896,-3.0718,-3.0629,-3.0689,-3.0042,-2.9389,-2.9061,-2.8536,-2.8049,-2.7827,-2.7718,-2.7746,-2.7746,-2.7786,-2.774,-2.7898,-2.7805,-2.7801,-2.7924,-2.7446,-2.7271,-2.7351,-2.7351,-2.7351,-2.7451,-2.7484,-2.755,-2.7703,-2.8182,-2.8505,-2.8634,-2.8666,-2.857,-2.8505,-2.8473,-2.8409,-2.8344,-2.8312,-2.8168,-2.7868,-2.7517,-2.7095,-2.6589,-2.6555,-2.6555,-2.6748,-2.704,-2.755,-2.7848,-2.8303,-2.8434,-2.8547,-2.8711,-2.8895,-2.8647,-2.8258,-2.7963,-2.7704,-2.7445,-2.7317,-2.7697,-2.794,-2.8184,-3.1496,-3.1451,-3.0969,-3.0797,-3.0817,-3.0993,-3.1101,-3.1323,-3.1916,-3.2274,-3.2398,-3.248,-3.2648,-3.287,-3.3043,-3.3293,-3.3601,-3.3303,-3.3172,-3.2922,-3.2477,-3.1964,-3.1794,-3.1652,-3.1709,-3.1638,-3.1709,-3.1796,-3.1968,-3.194,-3.2025,-3.215,-3.233,-3.2398,-3.2398,-3.2398,-3.2398,-3.2398,-3.2398,-3.2398,-3.2398,-3.2398,-3.2398,-3.237,-3.2272,-3.2203,-3.2104,-3.158,-3.1335,-3.1131,-3.0733,-3.0284,-3.0194,-2.9673,-2.958,-2.9903,-2.9594,-2.9376,-2.9174,-2.8903,-2.8465,-2.8383,-2.8532,-2.856,-2.8532,-2.8429,-2.8652,-2.9004,-2.8481,-2.8214,-2.8076,-2.7443,-2.6985,-2.6871,-2.6714,-2.6521,-2.6645,-2.6714,-2.6782,-2.7095,-2.767,-2.7835,-2.7789,-2.7769,-2.765,-2.7637,-2.7604,-2.765,-2.7617,-2.7703,-2.7584,-2.7297,-2.6973,-2.6748,-2.6521,-2.6521,-2.6589,-2.6782,-2.7087,-2.751,-2.7624,-2.7748,-2.7811,-2.794,-2.7728,-2.7847,-2.7646,-2.7525,-2.7335,-2.7095,-2.6799,-2.704,-2.7809,-2.8139,-2.8266,-3.1496,-3.1496,-3.1593,-3.1317,-3.0966,-3.1546,-3.1594,-3.1335,-3.1943,-3.2274,-3.2453,-3.2703,-3.2843,-3.3016,-3.3372,-3.3429,-3.3293,-3.3093,-3.2853,-3.2477,-3.1992,-3.1766,-3.1751,-3.1595,-3.1724,-3.171,-3.2035,-3.2163,-3.2094,-3.2053,-3.2122,-3.2302,-3.2358,-3.2398,-3.2398,-3.2398,-3.2398,-3.2398,-3.2398,-3.2398,-3.2398,-3.237,-3.2342,-3.2231,-3.1879,-3.1595,-3.1508,-3.0984,-3.0644,-3.0554,-2.9981,-2.9628,-2.9504,-2.9058,-2.8798,-2.8812,-2.8748,-2.8716,-2.8734,-2.8683,-2.8587,-2.8587,-2.8587,-2.8587,-2.8554,-2.8651,-2.8876,-2.9415,-2.832,-2.7716,-2.7815,-2.7007,-2.6555,-2.6533,-2.6555,-2.6487,-2.6487,-2.6487,-2.6487,-2.6349,-2.6892,-2.679,-2.6688,-2.6714,-2.6692,-2.6714,-2.6748,-2.6816,-2.6952,-2.7108,-2.7162,-2.6884,-2.6782,-2.6555,-2.6487,-2.6487,-2.6658,-2.6816,-2.7087,-2.7423,-2.7505,-2.759,-2.7618,-2.7623,-2.7335,-2.699,-2.6863,-2.6756,-2.6741,-2.6854,-2.6933,-2.7546,-2.8295,-2.8432,-2.841,-3.167,-3.1655,-3.1771,-3.1717,-3.1642,-3.1987,-3.2038,-3.1965,-3.2192,-3.2441,-3.2676,-3.2827,-3.3043,-3.3293,-3.3455,-3.3319,-3.3119,-3.2718,-3.2379,-3.2117,-3.1737,-3.1566,-3.1595,-3.1566,-3.1667,-3.1953,-3.2122,-3.2191,-3.2163,-3.2203,-3.2287,-3.237,-3.2398,-3.2398,-3.2398,-3.2398,-3.2398,-3.2398,-3.2398,-3.2398,-3.2315,-3.2092,-3.1894,-3.1879,-3.1247,-3.0999,-3.0792,-3.0284,-2.995,-2.9827,-2.9314,-2.8994,-2.8962,-2.8766,-2.8619,-2.8619,-2.8619,-2.8619,-2.8619,-2.8587,-2.8587,-2.8587,-2.8554,-2.849,-2.8471,-2.8619,-2.867,-2.8643,-2.7914,-2.7584,-2.7537,-2.6871,-2.6589,-2.6452,-2.6487,-2.6487,-2.6487,-2.6452,-2.6418,-2.6211,-2.599,-2.5955,-2.5873,-2.5851,-2.606,-2.6336,-2.6336,-2.6371,-2.6508,-2.6679,-2.6714,-2.6624,-2.6555,-2.6521,-2.6487,-2.6487,-2.6692,-2.685,-2.6952,-2.7229,-2.7465,-2.7538,-2.7483,-2.7285,-2.6939,-2.66,-2.6276,-2.6438,-2.6797,-2.7038,-2.7286,-2.7902,-2.8463,-2.8527,-2.8487,-3.1841,-3.1898,-3.1898,-3.2025,-3.2191,-3.2247,-3.2272,-3.2398,-3.248,-3.2676,-3.2897,-3.3058,-3.3319,-3.3455,-3.3293,-3.3093,-3.2799,-3.2201,-3.1908,-3.1737,-3.1623,-3.1508,-3.1566,-3.1581,-3.1768,-3.1981,-3.2107,-3.2219,-3.2342,-3.2398,-3.237,-3.2398,-3.2398,-3.2398,-3.2398,-3.2398,-3.2342,-3.2076,-3.1864,-3.1807,-3.1751,-3.1436,-3.1291,-3.1058,-3.0659,-3.0238,-3.0147,-2.9625,-2.9282,-2.917,-2.8912,-2.8683,-2.8651,-2.8651,-2.8587,-2.8587,-2.8587,-2.849,-2.8457,-2.8457,-2.8522,-2.8457,-2.836,-2.8151,-2.8183,-2.8541,-2.872,-2.8293,-2.7637,-2.7438,-2.7351,-2.6884,-2.6589,-2.6487,-2.6487,-2.6487,-2.6452,-2.6383,-2.6211,-2.5955,-2.5676,-2.537,-2.5264,-2.5135,-2.5347,-2.5816,-2.5955,-2.5921,-2.6129,-2.6383,-2.6452,-2.6452,-2.6487,-2.6487,-2.6521,-2.6555,-2.6726,-2.685,-2.6952,-2.7129,-2.7378,-2.7294,-2.7124,-2.6883,-2.6674,-2.6726,-2.672,-2.6805,-2.6935,-2.734,-2.7721,-2.8082,-2.8457,-2.849,-2.8379,-3.1955,-3.2163,-3.2163,-3.2178,-3.2219,-3.233,-3.2398,-3.2425,-3.2703,-3.287,-3.2935,-3.3293,-3.334,-3.324,-3.3039,-3.2691,-3.2018,-3.1936,-3.1794,-3.1623,-3.1508,-3.1595,-3.1695,-3.1853,-3.1981,-3.2066,-3.2191,-3.2342,-3.2382,-3.2398,-3.2398,-3.2398,-3.2259,-3.2342,-3.2287,-3.2132,-3.1879,-3.1522,-3.1131,-3.0866,-3.0807,-3.0673,-3.0569,-3.0419,-2.9981,-2.9566,-2.9535,-2.9058,-2.8766,-2.8766,-2.8683,-2.8587,-2.8587,-2.849,-2.8457,-2.8457,-2.8346,-2.8183,-2.8052,-2.8262,-2.8373,-2.8131,-2.7934,-2.7809,-2.7848,-2.7676,-2.7861,-2.8051,-2.7284,-2.7082,-2.7061,-2.6926,-2.6267,-2.6117,-2.6013,-2.606,-2.606,-2.6117,-2.5943,-2.5711,-2.5312,-2.4874,-2.4504,-2.4335,-2.4731,-2.5229,-2.5523,-2.5476,-2.5886,-2.6164,-2.6314,-2.6383,-2.6452,-2.6487,-2.6533,-2.6624,-2.6726,-2.6863,-2.6952,-2.7154,-2.7377,-2.7167,-2.685,-2.6909,-2.6812,-2.702,-2.7219,-2.7321,-2.7479,-2.7848,-2.8099,-2.8118,-2.8085,-2.8006,-2.7829,-3.2094,-3.2191,-3.2302,-3.2315,-3.2315,-3.237,-3.2398,-3.2468,-3.2746,-3.2881,-3.2834,-3.2888,-3.2846,-3.2695,-3.2461,-3.2241,-3.1921,-3.1938,-3.1881,-3.191,-3.1966,-3.2035,-3.212,-3.2135,-3.2247,-3.2247,-3.237,-3.2398,-3.2398,-3.2287,-3.2076,-3.1964,-3.1807,-3.1851,-3.1794,-3.1478,-3.1131,-3.0955,-3.0629,-3.048,-3.0434,-3.0056,-2.9889,-2.9827,-2.9265,-2.8962,-2.8912,-2.8734,-2.8619,-2.8587,-2.8587,-2.8554,-2.8457,-2.8295,-2.8118,-2.8072,-2.7908,-2.7643,-2.761,-2.7921,-2.8099,-2.7855,-2.7743,-2.7683,-2.7471,-2.7397,-2.7276,-2.7129,-2.6654,-2.6414,-2.622,-2.5791,-2.5335,-2.5358,-2.5429,-2.5511,-2.5546,-2.5652,-2.537,-2.4993,-2.4599,-2.4166,-2.3801,-2.3471,-2.4034,-2.46,-2.4862,-2.5146,-2.5511,-2.5769,-2.5873,-2.6025,-2.6094,-2.6371,-2.6405,-2.6543,-2.6658,-2.6714,-2.6816,-2.6803,-2.6837,-2.6871,-2.6637,-2.6769,-2.6884,-2.6947,-2.7183,-2.7623,-2.7914,-2.8,-2.7888,-2.7762,-2.7663,-2.7597,-2.7284,-3.1967,-3.2064,-3.2148,-3.2287,-3.2398,-3.2398,-3.2342,-3.2358,-3.2594,-3.2715,-3.2668,-3.248,-3.2272,-3.2104,-3.202,-3.1851,-3.1823,-3.1925,-3.2038,-3.215,-3.2274,-3.2398,-3.2398,-3.2398,-3.237,-3.2355,-3.216,-3.212,-3.2048,-3.1921,-3.1551,-3.1233,-3.1014,-3.0955,-3.1058,-3.0569,-3.0194,-3.0194,-2.9995,-2.9948,-2.9794,-2.9515,-2.9233,-2.9233,-2.8849,-2.867,-2.8683,-2.8619,-2.8619,-2.8522,-2.8457,-2.836,-2.8151,-2.7921,-2.7643,-2.7477,-2.731,-2.7074,-2.7175,-2.741,-2.7636,-2.741,-2.733,-2.7196,-2.7074,-2.7061,-2.6939,-2.6658,-2.6025,-2.5606,-2.5535,-2.5229,-2.4933,-2.4992,-2.4957,-2.5004,-2.5004,-2.5004,-2.4623,-2.4213,-2.3922,-2.3813,-2.3482,-2.3213,-2.3618,-2.4118,-2.4347,-2.4623,-2.4969,-2.5182,-2.53,-2.5441,-2.5546,-2.5896,-2.6277,-2.6035,-2.5791,-2.5861,-2.5931,-2.5965,-2.5965,-2.6082,-2.6129,-2.5978,-2.6173,-2.6667,-2.6735,-2.6633,-2.7255,-2.7967,-2.7789,-2.753,-2.743,-2.7297,-2.671,-3.1417,-3.1709,-3.171,-3.1951,-3.2315,-3.2398,-3.2219,-3.201,-3.2219,-3.2327,-3.2327,-3.2272,-3.1992,-3.168,-3.1737,-3.1766,-3.1737,-3.191,-3.2135,-3.2315,-3.237,-3.2398,-3.2398,-3.2398,-3.2342,-3.2216,-3.1936,-3.1652,-3.1508,-3.1102,-3.0748,-3.0359,-3.0086,-2.9934,-3.0404,-2.9858,-2.9549,-2.9456,-2.8994,-2.8894,-2.8862,-2.8785,-2.8766,-2.8734,-2.867,-2.8587,-2.8587,-2.8457,-2.8425,-2.8392,-2.802,-2.7842,-2.7743,-2.731,-2.7108,-2.7162,-2.7129,-2.6973,-2.6794,-2.6952,-2.7007,-2.7007,-2.6939,-2.6714,-2.6589,-2.6555,-2.6611,-2.6452,-2.5968,-2.5606,-2.5382,-2.5052,-2.4719,-2.4432,-2.4396,-2.436,-2.4324,-2.4288,-2.3911,-2.3703,-2.3751,-2.3714,-2.3298,-2.3113,-2.3372,-2.3666,-2.3861,-2.4093,-2.4396,-2.4647,-2.4731,-2.4909,-2.5052,-2.5429,-2.5639,-2.5182,-2.4969,-2.5004,-2.5146,-2.5288,-2.5323,-2.5441,-2.537,-2.5229,-2.5581,-2.6092,-2.5721,-2.5324,-2.6208,-2.7095,-2.7443,-2.7377,-2.7242,-2.6756,-2.5988,-3.1009,-3.1234,-3.1234,-3.1423,-3.1638,-3.1667,-3.1625,-3.1538,-3.1508,-3.158,-3.1665,-3.1422,-3.1263,-3.1234,-3.1508,-3.1724,-3.1881,-3.2104,-3.2355,-3.2398,-3.2398,-3.2398,-3.2398,-3.2315,-3.2132,-3.1866,-3.1523,-3.1131,-3.0822,-3.0419,-3.0133,-2.9797,-2.9328,-2.9058,-2.9166,-2.8976,-2.8912,-2.8881,-2.8702,-2.8619,-2.8587,-2.8587,-2.8587,-2.8587,-2.8587,-2.8587,-2.8554,-2.836,-2.8151,-2.8052,-2.761,-2.731,-2.7242,-2.6837,-2.6654,-2.662,-2.6564,-2.6371,-2.6396,-2.6568,-2.6645,-2.6611,-2.6589,-2.6487,-2.6487,-2.6487,-2.6487,-2.6314,-2.5793,-2.5418,-2.5016,-2.4491,-2.4057,-2.3582,-2.3471,-2.3471,-2.3434,-2.3471,-2.3335,-2.3261,-2.3261,-2.3335,-2.3113,-2.3001,-2.3224,-2.3298,-2.3446,-2.3409,-2.3644,-2.3984,-2.4213,-2.4419,-2.4623,-2.4969,-2.5028,-2.46,-2.4576,-2.4779,-2.4814,-2.485,-2.4898,-2.4826,-2.4826,-2.4755,-2.5146,-2.5452,-2.5123,-2.4945,-2.5464,-2.6079,-2.6252,-2.6414,-2.6208,-2.5581,-2.4767,-3.0375,-3.0763,-3.0762,-3.0747,-3.0777,-3.1073,-3.1161,-3.1102,-3.0955,-3.0999,-3.1087,-3.0851,-3.0777,-3.1029,-3.1408,-3.161,-3.1896,-3.2231,-3.2382,-3.2398,-3.2398,-3.2259,-3.2132,-3.2048,-3.1637,-3.1277,-3.0866,-3.0495,-3.0133,-2.9903,-2.9563,-2.917,-2.883,-2.8734,-2.8683,-2.8651,-2.8651,-2.8651,-2.8587,-2.8587,-2.8587,-2.8587,-2.8587,-2.8587,-2.8587,-2.8587,-2.8457,-2.8151,-2.7789,-2.761,-2.7229,-2.6803,-2.6701,-2.6496,-2.6289,-2.6198,-2.6245,-2.6188,-2.6361,-2.643,-2.6452,-2.6164,-2.6361,-2.6499,-2.6418,-2.6233,-2.6176,-2.5955,-2.55,-2.4993,-2.4491,-2.3934,-2.3556,-2.3086,-2.3038,-2.3075,-2.3075,-2.3113,-2.3113,-2.3038,-2.3001,-2.3001,-2.2964,-2.3001,-2.3075,-2.3075,-2.3038,-2.3001,-2.3001,-2.3372,-2.3714,-2.3922,-2.3984,-2.419,-2.4288,-2.4143,-2.4215,-2.4528,-2.4456,-2.4288,-2.4215,-2.4118,-2.419,-2.4335,-2.4587,-2.4731,-2.4576,-2.4636,-2.4743,-2.4743,-2.4719,-2.4874,-2.504,-2.4718,-2.4141,-2.9521,-3.0211,-3.0282,-3.0052,-2.9851,-3.0643,-3.0925,-3.0791,-3.0657,-3.0642,-3.0628,-3.0881,-3.0851,-3.0866,-3.1553,-3.1796,-3.1752,-3.2203,-3.2342,-3.2342,-3.2287,-3.1964,-3.168,-3.1465,-3.1043,-3.0465,-3.0042,-2.9827,-2.9456,-2.9184,-2.8862,-2.8702,-2.8651,-2.8587,-2.8587,-2.8587,-2.8587,-2.8587,-2.8587,-2.8587,-2.8587,-2.8587,-2.8587,-2.8587,-2.8587,-2.8522,-2.8314,-2.7941,-2.7709,-2.7343,-2.6858,-2.6517,-2.6289,-2.6094,-2.6084,-2.6201,-2.6408,-2.6396,-2.6314,-2.6314,-2.6025,-2.5746,-2.599,-2.628,-2.6164,-2.5769,-2.5629,-2.5347,-2.4921,-2.4431,-2.3934,-2.3604,-2.3235,-2.3075,-2.3038,-2.3038,-2.3038,-2.3038,-2.3038,-2.3001,-2.3001,-2.2964,-2.2767,-2.2767,-2.2692,-2.2644,-2.2644,-2.2841,-2.2879,-2.3001,-2.3298,-2.3446,-2.3482,-2.3372,-2.3434,-2.3644,-2.3644,-2.3888,-2.3644,-2.346,-2.3398,-2.3508,-2.3655,-2.3801,-2.397,-2.3922,-2.3596,-2.3486,-2.3545,-2.3508,-2.3486,-2.4129,-2.4503,-2.4671,-2.4274,-2.8799,-2.9183,-2.9605,-2.9851,-3.0019,-3.0522,-3.0687,-3.0642,-3.0612,-3.0612,-3.0612,-3.0657,-3.0762,-3.094,-3.1423,-3.1697,-3.1938,-3.2176,-3.2342,-3.2259,-3.1908,-3.168,-3.1349,-3.097,-3.0419,-2.995,-2.9549,-2.9251,-2.8931,-2.8587,-2.8587,-2.8619,-2.8587,-2.8587,-2.8587,-2.8587,-2.8587,-2.8587,-2.8587,-2.8587,-2.8554,-2.8554,-2.8554,-2.8522,-2.8457,-2.8314,-2.7987,-2.751,-2.7209,-2.6769,-2.622,-2.5886,-2.6002,-2.6084,-2.6213,-2.6361,-2.643,-2.6361,-2.5968,-2.5851,-2.5606,-2.5123,-2.5182,-2.5146,-2.5146,-2.5087,-2.4957,-2.4731,-2.4479,-2.4093,-2.3813,-2.3494,-2.3187,-2.3075,-2.3038,-2.3001,-2.2964,-2.2841,-2.2841,-2.2804,-2.2804,-2.2729,-2.2531,-2.2258,-2.222,-2.2182,-2.222,-2.2419,-2.2729,-2.2841,-2.3113,-2.3261,-2.3261,-2.3224,-2.3261,-2.3434,-2.325,-2.315,-2.3038,-2.3001,-2.315,-2.3213,-2.3187,-2.3139,-2.3139,-2.2793,-2.2371,-2.2456,-2.2767,-2.2494,-2.2472,-2.3276,-2.3922,-2.3863,-2.3888,-2.8122,-2.8733,-2.913,-2.9655,-3.0174,-3.0401,-3.0507,-3.0612,-3.0612,-3.0612,-3.0628,-3.0703,-3.0851,-3.1058,-3.1509,-3.1811,-3.1953,-3.1923,-3.1964,-3.1823,-3.1407,-3.0925,-3.0599,-3.0329,-2.978,-2.9345,-2.9107,-2.8931,-2.8651,-2.8587,-2.8587,-2.8587,-2.8587,-2.8587,-2.8587,-2.8587,-2.8587,-2.8587,-2.8587,-2.8587,-2.8522,-2.8379,-2.8314,-2.8249,-2.8151,-2.7822,-2.751,-2.6994,-2.6654,-2.6427,-2.599,-2.591,-2.605,-2.6201,-2.6339,-2.643,-2.6176,-2.6002,-2.5676,-2.5347,-2.4945,-2.4551,-2.436,-2.4215,-2.4215,-2.4227,-2.4299,-2.4299,-2.4082,-2.3863,-2.3692,-2.3494,-2.3261,-2.3027,-2.3038,-2.3001,-2.2841,-2.2654,-2.2606,-2.2569,-2.2494,-2.2429,-2.2231,-2.1918,-2.1603,-2.1375,-2.1298,-2.1413,-2.1956,-2.2569,-2.2916,-2.3261,-2.3224,-2.3187,-2.315,-2.3027,-2.2916,-2.2879,-2.3038,-2.3001,-2.3001,-2.2916,-2.2879,-2.2531,-2.2145,-2.1804,-2.1499,-2.188,-2.2107,-2.1766,-2.1527,-2.2134,-2.2499,-2.2451,-2.2489,-2.7495,-2.8537,-2.8843,-2.9438,-3.0166,-3.0313,-3.0447,-3.0582,-3.0612,-3.0612,-3.0687,-3.0881,-3.0999,-3.1175,-3.1538,-3.1726,-3.1653,-3.1508,-3.1378,-3.1364,-3.0704,-3.0224,-2.9844,-2.9425,-2.917,-2.8798,-2.8619,-2.8734,-2.8651,-2.8587,-2.8587,-2.8587,-2.849,-2.8425,-2.8392,-2.8249,-2.8183,-2.8151,-2.8216,-2.8249,-2.8249,-2.8085,-2.7743,-2.763,-2.7364,-2.7027,-2.6892,-2.6654,-2.638,-2.6336,-2.6292,-2.6166,-2.627,-2.6361,-2.6465,-2.6327,-2.6002,-2.5641,-2.5312,-2.4909,-2.4371,-2.402,-2.3787,-2.3629,-2.3582,-2.3618,-2.3765,-2.3765,-2.3582,-2.346,-2.3298,-2.3261,-2.3113,-2.3038,-2.3038,-2.3001,-2.2927,-2.2542,-2.2031,-2.1956,-2.1842,-2.1728,-2.1231,-2.0837,-2.0721,-2.0498,-2.0421,-2.0498,-2.1029,-2.188,-2.2258,-2.2718,-2.2531,-2.2344,-2.2446,-2.2371,-2.2494,-2.258,-2.2692,-2.2767,-2.2569,-2.2531,-2.258,-2.1993,-2.1375,-2.1078,-2.0885,-2.1231,-2.1336,-2.0934,-2.0808,-2.1019,-2.1125,-2.1076,-2.1344,-2.7032,-2.7541,-2.874,-2.9418,-2.9693,-3.0289,-3.0538,-3.0612,-3.0612,-3.0687,-3.0896,-3.097,-3.1146,-3.1321,-3.1204,-3.1234,-3.119,-3.0911,-3.0763,-3.0539,-3.0042,-2.9673,-2.9393,-2.9089,-2.8785,-2.867,-2.8587,-2.8587,-2.8587,-2.8587,-2.8554,-2.8522,-2.8262,-2.7987,-2.7987,-2.7743,-2.7543,-2.7577,-2.751,-2.7676,-2.7809,-2.751,-2.7175,-2.7142,-2.6939,-2.6722,-2.6586,-2.6483,-2.6336,-2.6258,-2.6236,-2.627,-2.6443,-2.6465,-2.6487,-2.6383,-2.5851,-2.5312,-2.4874,-2.4407,-2.3875,-2.3471,-2.3261,-2.315,-2.3113,-2.3187,-2.3224,-2.3187,-2.3113,-2.3038,-2.3001,-2.3001,-2.3001,-2.3001,-2.3001,-2.3001,-2.2964,-2.2268,-2.1538,-2.126,-2.1106,-2.076,-2.0304,-2.0001,-1.9805,-1.9696,-1.9608,-1.9726,-2.0187,-2.0798,-2.0817,-2.1125,-2.1183,-2.1145,-2.1441,-2.1642,-2.169,-2.1728,-2.1766,-2.1918,-2.2069,-2.1842,-2.1576,-2.1106,-2.0644,-2.0265,-2.0148,-2.0556,-2.0518,-2.0079,-1.9971,-2.0148,-1.9991,-1.9874,-2.0294,-2.6679,-2.7159,-2.8398,-2.9189,-2.9536,-2.9972,-3.0292,-3.0539,-3.0431,-3.0538,-3.0703,-3.0688,-3.0851,-3.1102,-3.0777,-3.0688,-3.0644,-3.0269,-3.0117,-2.9858,-2.9501,-2.917,-2.8912,-2.8766,-2.8716,-2.8587,-2.8587,-2.8587,-2.8522,-2.8295,-2.8183,-2.8151,-2.7743,-2.7443,-2.741,-2.7142,-2.6939,-2.7007,-2.6756,-2.6824,-2.7095,-2.6803,-2.6633,-2.6633,-2.6393,-2.622,-2.6186,-2.6129,-2.6211,-2.6223,-2.6305,-2.6361,-2.6361,-2.6211,-2.6107,-2.5816,-2.5324,-2.4671,-2.4299,-2.3875,-2.3409,-2.3113,-2.3001,-2.3038,-2.3038,-2.3113,-2.3113,-2.3075,-2.3075,-2.3001,-2.3001,-2.3001,-2.3001,-2.3001,-2.2841,-2.2729,-2.2344,-2.1728,-2.0885,-2.0187,-2.0226,-2.0382,-1.9952,-1.9648,-1.9371,-1.8785,-1.8745,-1.8785,-1.9283,-1.9717,-1.9698,-1.9767,-1.9982,-2.0343,-2.0847,-2.0924,-2.0857,-2.0847,-2.0837,-2.1029,-2.1193,-2.0837,-2.0498,-2.0109,-1.9717,-1.9292,-1.9362,-1.9737,-1.9668,-1.9271,-1.9201,-1.9231,-1.9042,-1.9082,-1.9696,-2.6436,-2.7031,-2.8039,-2.8843,-2.9435,-2.9624,-3.0,-3.0404,-3.0158,-3.016,-3.0343,-3.0113,-3.0387,-3.0539,-3.0269,-3.0269,-3.0086,-2.9639,-2.9439,-2.9265,-2.8912,-2.8785,-2.8734,-2.8619,-2.8587,-2.8522,-2.8471,-2.8425,-2.8392,-2.802,-2.7689,-2.7577,-2.7276,-2.6905,-2.6905,-2.679,-2.662,-2.6449,-2.6277,-2.6104,-2.6082,-2.6094,-2.6094,-2.5873,-2.5664,-2.5488,-2.5653,-2.584,-2.6062,-2.6119,-2.6211,-2.6107,-2.5943,-2.5664,-2.5558,-2.5276,-2.4671,-2.4177,-2.3861,-2.3446,-2.3187,-2.3001,-2.3001,-2.3001,-2.3001,-2.2879,-2.2879,-2.2804,-2.2804,-2.2841,-2.2841,-2.2804,-2.2804,-2.2617,-2.2381,-2.2117,-2.1538,-2.1001,-2.0187,-1.9301,-1.9371,-1.9678,-1.949,-1.9173,-1.8825,-1.8193,-1.7991,-1.7991,-1.8152,-1.8585,-1.8807,-1.8957,-1.9164,-1.9638,-2.0031,-2.0031,-1.9844,-1.9883,-1.9913,-2.0148,-2.0304,-2.0109,-1.9717,-1.9173,-1.8785,-1.8594,-1.8554,-1.8825,-1.8643,-1.8612,-1.8603,-1.8723,-1.9121,-1.9201,-1.9548,-2.6302,-2.6718,-2.8062,-2.8725,-2.8957,-2.9485,-2.9952,-3.0083,-2.9682,-2.9701,-2.9886,-2.9605,-2.9761,-3.0539,-2.9875,-2.9673,-2.9563,-2.9121,-2.8849,-2.8683,-2.8683,-2.8619,-2.8554,-2.849,-2.8554,-2.8392,-2.8131,-2.7987,-2.7888,-2.7443,-2.7142,-2.7108,-2.6598,-2.6324,-2.6255,-2.607,-2.5791,-2.5756,-2.5756,-2.5581,-2.5558,-2.5523,-2.5488,-2.5453,-2.5535,-2.5641,-2.584,-2.6027,-2.6223,-2.6245,-2.599,-2.5594,-2.53,-2.504,-2.4945,-2.4731,-2.4129,-2.3886,-2.3556,-2.3261,-2.3075,-2.3001,-2.3001,-2.2916,-2.2767,-2.2344,-2.2268,-2.2107,-2.2145,-2.2268,-2.2268,-2.2069,-2.1956,-2.1461,-2.1126,-2.0692,-2.0148,-1.9874,-1.9411,-1.8785,-1.8465,-1.8625,-1.8585,-1.8425,-1.8385,-1.7991,-1.7991,-1.7991,-1.7991,-1.7991,-1.7991,-1.8233,-1.8505,-1.8304,-1.8465,-1.8776,-1.8745,-1.8825,-1.9015,-1.9332,-1.949,-1.949,-1.9103,-1.8625,-1.8353,-1.8193,-1.8201,-1.8282,-1.8241,-1.8241,-1.8161,-1.8273,-1.8794,-1.9152,-1.9341]},{"header":{"parameterUnit":"m.s-1","parameterCategory":1,"la1":31.0,"la2":29.5877,"lo1":-88.7671,"lo2":-86.6584,"dy":0.0162,"dx":0.0185,"nx":115,"ny":88,"refTime":"2023-08-16T12:00:00:Z","depth":0,"parameterNumber":3,"parameterNumberName":"V-component_of_WINDS"},"data":[0.0,0.0,0.0,0.0,0.0,0.0,0.0,0.0,0.0,0.0,0.0,0.0,0.0,0.0,0.0,0.0,0.0,0.0,0.0,0.0,0.0,0.0,0.0,0.0,0.0,0.0,0.0,0.0,0.0,0.0,0.0,0.0,0.0,0.0,0.0,0.0,0.0,0.0,0.0,0.0,0.0,0.0,0.0,0.0,0.0,0.0,0.0,0.0,0.0,0.0,0.0,0.0,0.0,0.0,0.0,0.0,0.0,0.0,0.0,0.0,0.0,0.0,0.0,0.0,0.0,0.0,0.0,0.0,0.0,0.0,0.0,0.0,0.0,0.0,0.0,0.0,0.0,0.0,0.0,0.0,0.0,0.0,0.0,0.0,0.0,0.0,0.0,0.0,0.0,0.0,0.0,0.0,0.0,0.0,0.0,0.0,0.0,0.0,0.0,0.0,0.0,0.0,0.0,0.0,0.0,0.0,0.0,0.0,0.0,0.0,0.0,0.0,0.0,0.0,0.0,0.0,0.0,0.0,0.0,0.0,0.0,0.0,0.0,0.0,0.0,0.0,0.0,0.0,0.0,0.0,0.0,0.0,0.0,0.0,0.0,0.0,0.0,0.0,0.0,0.0,0.0,0.0,0.0,0.0,0.0,0.0,0.0,0.0,0.0,0.0,0.0,0.0,0.0,0.0,0.0,0.0,0.0,0.0,0.0,0.0,0.0,0.0,0.0,0.0,0.0,0.0,0.0,0.0,0.0,0.0,0.0,0.0,0.0,0.0,0.0,0.0,0.0,0.0,0.0,0.0,0.0,0.0,0.0,0.0,0.0,0.0,0.0,0.0,0.0,0.0,0.0,0.0,0.0,0.0,0.0,0.0,0.0,0.0,0.0,0.0,0.0,0.0,0.0,0.0,0.0,0.0,0.0,0.0,0.0,0.0,0.0,0.0,0.0,0.0,0.0,0.0,0.0,0.0,0.0,0.0,0.0,0.0,0.0,0.0,0.0,0.0,0.0,0.0,0.0,0.0,0.0,0.0,0.0,0.0,0.0,0.0,0.0,0.0,0.0,0.0,0.0,0.0,0.0,0.0,0.0,0.0,0.0,0.0,0.0,0.0,0.0,0.0,0.0,0.0,0.0,0.0,0.0,0.0,0.0,0.0,0.0,0.0,0.0,0.0,0.0,0.0,0.0,0.0,0.0,0.0,0.0,0.0,0.0,0.0,0.0,0.0,0.0,0.0,0.0,0.0,0.0,0.0,0.0,0.0,0.0,0.0,0.0,0.0,0.0,0.0,0.0,0.0,0.0,0.0,0.0,0.0,0.0,0.0,0.0,0.0,0.0,0.0,0.0,0.0,0.0,0.0,0.0,0.0,0.0,0.0,0.0,0.0,0.0,0.0,0.0,0.0,0.0,0.0,0.0,0.0,0.0,0.0,0.0,0.0,0.0,0.0,0.0,0.0,0.0,0.0,0.0,0.0,0.0,0.0,0.0,0.0,0.0,0.0,0.0,0.0,0.0,0.0,0.0,0.0,0.0,0.0,0.0,0.0,0.0,0.0,0.0,0.0,0.0,0.0,0.0,0.0,0.0,0.0,0.0,0.0,0.0,0.0,0.0,0.0,0.0,0.0,0.0,0.0,0.0,0.0,0.0,0.0,0.0,0.0,0.0,0.0,0.0,0.0,0.0,0.0,0.0,0.0,0.0,0.0,0.0,0.0,0.0,0.0,0.0,0.0,0.0,0.0,0.0,0.0,0.0,0.0,0.0,0.0,0.0,0.0,0.0,0.0,0.0,0.0,0.0,0.0,0.0,0.0,0.0,0.0,0.0,0.0,0.0,0.0,0.0,0.0,0.0,0.0,0.0,0.0,0.0,0.0,0.0,0.0,0.0,0.0,0.0,0.0,0.0,0.0,0.0,0.0,0.0,0.0,0.0,0.0,0.0,0.0,0.0,0.0,0.0,0.0,0.0,0.0,0.0,0.0,0.0,0.0,0.0,0.0,0.0,0.0,0.0,0.0,0.0,0.0,0.0,0.0,0.0,0.0,0.0,0.0,0.0,0.0,0.0,0.0,0.0,0.0,0.0,0.0,0.0,0.0,0.0,0.0,0.0,0.0,0.0,0.0,0.0,0.0,0.0,0.0,0.0,0.0,0.0,0.0,0.0,0.0,0.0,0.0,0.0,0.0,0.0,0.0,0.0,0.0,0.0,0.0,0.0,0.0,0.0,0.0,0.0,0.0,0.0,0.0,0.0,0.0,0.0,0.0,0.0,0.0,0.0,0.0,0.0,0.0,0.0,0.0,0.0,0.0,0.0,0.0,0.0,0.0,0.0,0.0,0.0,0.0,0.0,0.0,0.0,0.0,0.0,0.0,0.0,0.0,0.0,0.0,0.0,0.0,0.0,0.0,0.0,0.0,0.0,0.0,0.0,0.0,0.0,0.0,0.0,0.0,0.0,0.0,0.0,0.0,0.0,0.0,0.0,0.0,0.0,0.0,0.0,0.0,0.0,0.0,0.0,0.0,0.0,0.0,0.0,0.0,0.0,0.0,0.0,0.0,0.0,0.0,0.0,0.0,0.0,0.0,0.0,0.0,0.0,0.0,0.0,0.0,0.0,0.0,0.0,0.0,0.0,0.0,0.0,0.0,0.0,0.0,0.0,0.0,0.0,0.0,0.0,0.0,0.0,0.0,0.0,0.0,0.0,0.0,0.0,0.0,0.0,0.0,0.0,0.0,0.0,0.0,0.0,0.0,0.0,0.0,0.0,0.0,0.0,0.0,0.0,0.0,0.0,0.0,0.0,0.0,0.0,0.0,0.0,0.0,0.0,0.0,0.0,0.0,0.0,0.0,0.0,0.0,0.0,0.0,0.0,0.0,0.0,0.0,0.0,0.0,0.0,0.0,0.0,0.0,0.0,0.0,0.0,0.0,0.0,0.0,0.0,0.0,0.0,0.0,0.0,0.0,0.0,0.0,0.0,0.0,0.0,0.0,0.0,0.0,0.0,0.0,0.0,0.0,0.0,0.0,0.0,0.0,0.0,0.0,0.0,0.0,0.0,0.0,0.0,0.0,0.0,0.0,0.0,0.0,0.0,0.0,0.0,0.0,0.0,0.0,0.0,0.0,0.0,0.0,0.0,0.0,0.0,0.0,0.0,0.0,0.0,0.0,0.0,0.0,0.0,0.0,0.0,0.0,0.0,0.0,0.0,0.0,0.0,0.0,0.0,0.0,0.0,0.0,0.0,0.0,0.0,0.0,0.0,0.0,0.0,0.0,0.0,0.0,0.0,0.0,0.0,0.0,0.0,0.0,0.0,0.0,0.0,0.0,0.0,0.0,0.0,0.0,0.0,0.0,0.0,0.0,0.0,0.0,0.0,0.0,0.0,0.0,0.0,0.0,0.0,0.0,0.0,0.0,0.0,0.0,0.0,0.0,0.0,0.0,0.0,0.0,0.0,0.0,0.0,0.0,0.0,0.0,0.0,0.0,0.0,0.0,0.0,0.0,0.0,0.0,0.0,0.0,0.0,0.0,0.0,0.0,0.0,0.0,0.0,0.0,0.0,0.0,0.0,0.0,0.0,0.0,0.0,0.0,0.0,0.0,0.0,0.0,0.0,0.0,0.0,0.0,0.0,0.0,0.0,0.0,0.0,0.0,0.0,0.0,0.0,0.0,0.0,0.0,0.0,0.0,0.0,0.0,0.0,0.0,0.0,0.0,0.0,0.0,0.0,0.0,0.0,0.0,0.0,0.0,0.0,0.0,0.0,0.0,0.0,0.0,0.0,0.0,0.0,0.0,0.0,0.0,0.0,0.0,0.0,0.0,0.0,0.0,0.0,0.0,0.0,0.0,0.0,0.0,0.0,0.0,0.0,0.0,0.0,0.0,0.0,0.0,0.0,0.0,0.0,0.0,0.0,0.0,0.0,0.0,0.0,0.0,0.0,0.0,0.0,0.0,0.0,0.0,0.0,0.0,0.0,0.0,0.0,0.0,0.0,0.0,0.0,0.0,0.0,0.0,0.0,0.0,0.0,0.0,0.0,0.0,0.0,0.0,0.0,0.0,0.0,0.0,0.0,0.0,0.0,0.0,0.0,0.0,0.0,0.0,0.0,0.0,0.0,0.0,0.0,0.0,0.0,0.0,0.0,0.0,0.0,0.0,0.0,0.0,0.0,0.0,0.0,0.0,0.0,0.0,0.0,0.0,0.0,0.0,0.0,0.0,0.0,0.0,0.0,0.0,0.0,0.0,0.0,0.0,0.0,0.0,0.0,0.0,0.0,0.0,-1.0511,0.0,0.0,0.0,0.0,0.0,0.0,0.0,0.0,0.0,0.0,0.0,0.0,0.0,0.0,0.0,0.0,0.0,0.0,0.0,0.0,0.0,0.0,0.0,0.0,0.0,0.0,0.0,0.0,0.0,0.0,0.0,0.0,0.0,0.0,0.0,0.0,0.0,0.0,0.0,0.0,0.0,0.0,0.0,0.0,0.0,0.0,0.0,0.0,0.0,0.0,0.0,0.0,0.0,0.0,0.0,0.0,0.0,0.0,0.0,0.0,0.0,0.0,0.0,0.0,0.0,0.0,0.0,0.0,0.0,0.0,0.0,0.0,0.0,0.0,0.0,0.0,0.0,0.0,0.0,0.0,0.0,0.0,0.0,0.0,0.0,0.0,0.0,0.0,0.0,0.0,0.0,0.0,0.0,0.0,0.0,0.0,0.0,0.0,0.0,0.0,0.0,0.0,0.0,0.0,0.0,0.0,0.0,0.0,0.0,0.0,-1.2381,-1.1727,-1.1896,-1.1899,-1.1629,0.0,0.0,0.0,0.0,0.0,0.0,0.0,0.0,0.0,0.0,0.0,0.0,0.0,0.0,0.0,0.0,0.0,0.0,0.0,0.0,0.0,0.0,0.0,0.0,0.0,0.0,0.0,0.0,0.0,0.0,0.0,0.0,0.0,0.0,0.0,0.0,0.0,0.0,0.0,0.0,0.0,0.0,0.0,0.0,0.0,0.0,0.0,0.0,0.0,0.0,0.0,0.0,0.0,0.0,0.0,0.0,0.0,0.0,0.0,0.0,0.0,0.0,0.0,0.0,0.0,0.0,0.0,0.0,0.0,0.0,0.0,0.0,0.0,0.0,0.0,0.0,0.0,0.0,0.0,0.0,0.0,0.0,0.0,0.0,0.0,0.0,0.0,0.0,0.0,0.0,0.0,0.0,0.0,0.0,0.0,0.0,0.0,0.0,0.0,0.0,0.0,0.0,0.0,0.0,0.0,0.0,0.0,0.0,0.0,0.0,0.0,0.0,-1.2656,-1.2716,-1.2523,0.0,0.0,0.0,0.0,0.0,0.0,0.0,0.0,0.0,0.0,0.0,0.0,0.0,0.0,0.0,0.0,0.0,0.0,0.0,0.0,0.0,0.0,0.0,0.0,0.0,0.0,0.0,0.0,0.0,0.0,0.0,0.0,0.0,0.0,0.0,0.0,0.0,0.0,0.0,0.0,0.0,0.0,0.0,0.0,0.0,0.0,0.0,0.0,0.0,0.0,0.0,0.0,0.0,0.0,0.0,0.0,0.0,0.0,0.0,0.0,0.0,0.0,0.0,0.0,0.0,0.0,0.0,0.0,0.0,0.0,0.0,0.0,0.0,0.0,0.0,0.0,0.0,0.0,0.0,0.0,0.0,0.0,0.0,0.0,0.0,0.0,0.0,0.0,0.0,0.0,0.0,0.0,0.0,0.0,0.0,0.0,0.0,0.0,0.0,0.0,0.0,0.0,0.0,0.0,0.0,0.0,0.0,0.0,0.0,0.0,-1.4065,-1.3382,-1.3401,0.0,-1.2968,0.0,0.0,0.0,0.0,0.0,0.0,0.0,0.0,0.0,0.0,0.0,0.0,0.0,0.0,0.0,0.0,0.0,0.0,0.0,0.0,0.0,0.0,0.0,0.0,0.0,0.0,0.0,0.0,0.0,0.0,0.0,0.0,0.0,0.0,0.0,0.0,0.0,0.0,0.0,0.0,0.0,0.0,0.0,0.0,0.0,0.0,0.0,0.0,0.0,0.0,0.0,0.0,0.0,0.0,0.0,0.0,0.0,0.0,0.0,0.0,0.0,0.0,0.0,0.0,0.0,0.0,0.0,0.0,0.0,0.0,0.0,0.0,0.0,0.0,0.0,0.0,0.0,0.0,0.0,0.0,0.0,0.0,0.0,0.0,0.0,0.0,0.0,0.0,0.0,0.0,0.0,0.0,0.0,0.0,0.0,0.0,0.0,0.0,0.0,0.0,0.0,0.0,0.0,0.0,0.0,0.0,0.0,0.0,0.0,0.0,-1.4559,-1.4214,-1.4325,-1.4106,0.0,0.0,0.0,0.0,0.0,0.0,0.0,0.0,0.0,0.0,0.0,0.0,0.0,0.0,0.0,0.0,0.0,0.0,0.0,0.0,0.0,0.0,0.0,0.0,0.0,0.0,0.0,0.0,0.0,0.0,0.0,0.0,0.0,0.0,0.0,0.0,0.0,0.0,0.0,0.0,0.0,0.0,0.0,0.0,0.0,0.0,0.0,0.0,0.0,0.0,0.0,0.0,0.0,0.0,0.0,0.0,0.0,0.0,0.0,0.0,0.0,0.0,0.0,0.0,0.0,0.0,0.0,0.0,0.0,0.0,0.0,0.0,0.0,0.0,0.0,0.0,0.0,0.0,0.0,0.0,0.0,0.0,0.0,0.0,0.0,0.0,0.0,0.0,0.0,0.0,0.0,0.0,0.0,0.0,0.0,0.0,0.0,0.0,0.0,0.0,0.0,0.0,0.0,0.0,0.0,0.0,0.0,0.0,0.0,0.0,-1.4747,-1.4856,-1.481,-1.4904,-1.4767,-1.4296,0.0,0.0,0.0,0.0,0.0,0.0,0.0,0.0,0.0,0.0,0.0,0.0,0.0,0.0,0.0,0.0,0.0,0.0,0.0,0.0,0.0,0.0,0.0,0.0,0.0,0.0,0.0,0.0,0.0,0.0,0.0,0.0,0.0,0.0,0.0,0.0,0.0,0.0,0.0,0.0,0.0,0.0,0.0,0.0,0.0,0.0,0.0,0.0,0.0,0.0,0.0,0.0,0.0,0.0,0.0,0.0,0.0,0.0,0.0,0.0,0.0,0.0,0.0,0.0,0.0,0.0,0.0,0.0,0.0,0.0,0.0,0.0,0.0,0.0,0.0,0.0,0.0,0.0,0.0,0.0,0.0,0.0,0.0,0.0,0.0,0.0,0.0,0.0,0.0,0.0,0.0,0.0,0.0,0.0,0.0,0.0,0.0,0.0,0.0,0.0,0.0,0.0,0.0,0.0,0.0,0.0,0.0,0.0,-1.4683,-1.4824,-1.4934,-1.4982,-1.492,-1.4995,0.0,0.0,0.0,0.0,0.0,0.0,0.0,0.0,0.0,0.0,0.0,0.0,0.0,0.0,0.0,0.0,0.0,0.0,0.0,0.0,0.0,0.0,0.0,0.0,0.0,0.0,0.0,0.0,0.0,0.0,0.0,0.0,0.0,0.0,0.0,0.0,0.0,0.0,0.0,0.0,0.0,0.0,0.0,0.0,0.0,0.0,0.0,0.0,0.0,0.0,0.0,0.0,0.0,0.0,0.0,0.0,0.0,0.0,0.0,0.0,0.0,0.0,0.0,0.0,0.0,0.0,0.0,0.0,0.0,0.0,0.0,0.0,0.0,0.0,0.0,0.0,0.0,0.0,0.0,0.0,0.0,0.0,0.0,0.0,0.0,0.0,0.0,0.0,0.0,0.0,0.0,0.0,0.0,0.0,0.0,0.0,0.0,0.0,0.0,0.0,0.0,0.0,0.0,0.0,0.0,0.0,0.0,0.0,0.0,-1.4699,-1.4839,-1.4917,-1.4934,-1.5056,-1.504,0.0,0.0,0.0,0.0,0.0,0.0,0.0,0.0,0.0,0.0,0.0,0.0,0.0,0.0,0.0,0.0,0.0,0.0,0.0,0.0,0.0,0.0,0.0,0.0,0.0,0.0,0.0,0.0,0.0,0.0,0.0,0.0,0.0,0.0,0.0,0.0,0.0,0.0,0.0,0.0,0.0,0.0,0.0,0.0,0.0,0.0,0.0,0.0,0.0,0.0,0.0,0.0,0.0,0.0,0.0,0.0,0.0,0.0,0.0,0.0,0.0,0.0,0.0,0.0,0.0,0.0,0.0,0.0,0.0,0.0,0.0,0.0,0.0,0.0,0.0,0.0,0.0,0.0,0.0,0.0,0.0,0.0,0.0,0.0,0.0,0.0,0.0,0.0,0.0,0.0,0.0,0.0,0.0,0.0,0.0,0.0,0.0,0.0,0.0,0.0,0.0,0.0,0.0,0.0,0.0,0.0,0.0,0.0,0.0,-1.4699,0.0,-1.4887,-1.4934,-1.5056,-1.5057,0.0,0.0,0.0,0.0,0.0,0.0,0.0,0.0,0.0,0.0,0.0,0.0,0.0,0.0,0.0,0.0,0.0,0.0,0.0,0.0,0.0,0.0,0.0,0.0,0.0,0.0,0.0,0.0,0.0,0.0,0.0,0.0,0.0,0.0,0.0,0.0,0.0,0.0,0.0,0.0,0.0,0.0,0.0,0.0,0.0,0.0,0.0,0.0,0.0,0.0,0.0,0.0,0.0,0.0,0.0,0.0,0.0,0.0,0.0,0.0,0.0,0.0,0.0,0.0,0.0,0.0,0.0,0.0,0.0,0.0,0.0,0.0,0.0,0.0,0.0,0.0,0.0,0.0,0.0,0.0,0.0,0.0,0.0,0.0,0.0,0.0,0.0,0.0,0.0,0.0,0.0,0.0,0.0,0.0,0.0,0.0,0.0,0.0,0.0,0.0,0.0,0.0,0.0,0.0,0.0,0.0,0.0,0.0,-1.4422,-1.4711,-1.4789,-1.4914,-1.4982,-1.4963,-1.5118,0.0,0.0,0.0,0.0,0.0,0.0,0.0,0.0,0.0,0.0,0.0,0.0,0.0,0.0,0.0,0.0,0.0,0.0,0.0,0.0,0.0,0.0,0.0,0.0,0.0,0.0,0.0,0.0,0.0,0.0,0.0,0.0,0.0,0.0,0.0,0.0,0.0,0.0,0.0,0.0,0.0,0.0,0.0,0.0,0.0,0.0,0.0,0.0,0.0,0.0,0.0,0.0,0.0,0.0,0.0,0.0,0.0,0.0,0.0,0.0,0.0,0.0,0.0,0.0,0.0,0.0,0.0,0.0,0.0,0.0,0.0,0.0,0.0,0.0,0.0,0.0,0.0,0.0,0.0,0.0,0.0,0.0,0.0,0.0,0.0,0.0,0.0,0.0,0.0,0.0,0.0,0.0,0.0,0.0,0.0,0.0,0.0,0.0,0.0,0.0,0.0,0.0,0.0,0.0,0.0,0.0,0.0,0.0,0.0,-1.5879,-1.5583,-1.5443,-1.5477,-1.5285,-1.5269,0.0,0.0,0.0,0.0,0.0,0.0,0.0,0.0,0.0,0.0,0.0,0.0,0.0,0.0,0.0,0.0,0.0,0.0,0.0,0.0,0.0,0.0,0.0,0.0,0.0,0.0,0.0,0.0,0.0,0.0,0.0,0.0,0.0,0.0,0.0,0.0,0.0,0.0,0.0,0.0,0.0,0.0,0.0,0.0,0.0,0.0,0.0,0.0,0.0,0.0,0.0,0.0,0.0,0.0,0.0,0.0,0.0,0.0,0.0,0.0,0.0,0.0,0.0,0.0,0.0,0.0,0.0,0.0,0.0,0.0,0.0,0.0,0.0,0.0,0.0,0.0,0.0,0.0,0.0,0.0,0.0,0.0,0.0,0.0,0.0,0.0,0.0,0.0,0.0,0.0,0.0,0.0,0.0,0.0,0.0,0.0,0.0,0.0,0.0,0.0,0.0,0.0,0.0,0.0,0.0,0.0,0.0,0.0,0.0,-1.438,-1.3803,-1.3344,-1.3019,-1.2994,-1.3831,-1.5536,0.0,0.0,0.0,0.0,0.0,0.0,0.0,0.0,0.0,0.0,0.0,0.0,0.0,0.0,0.0,0.0,0.0,0.0,0.0,0.0,0.0,0.0,0.0,0.0,0.0,0.0,0.0,0.0,0.0,0.0,0.0,0.0,0.0,0.0,0.0,0.0,0.0,0.0,0.0,0.0,0.0,0.0,0.0,0.0,0.0,0.0,0.0,0.0,0.0,0.0,0.0,0.0,0.0,0.0,0.0,0.0,0.0,0.0,0.0,0.0,0.0,0.0,0.0,0.0,0.0,0.0,0.0,0.0,0.0,0.0,0.0,0.0,0.0,0.0,0.0,0.0,0.0,0.0,0.0,0.0,0.0,0.0,0.0,0.0,0.0,0.0,0.0,0.0,0.0,0.0,0.0,0.0,0.0,0.0,0.0,0.0,0.0,0.0,0.0,0.0,0.0,0.0,0.0,0.0,0.0,0.0,0.0,0.0,-1.0599,-0.9582,-0.8746,-0.8219,-0.8803,-1.1133,0.0,0.0,0.0,0.0,0.0,0.0,0.0,0.0,0.0,0.0,0.0,0.0,0.0,0.0,0.0,0.0,0.0,0.0,0.0,0.0,0.0,0.0,0.0,0.0,0.0,0.0,0.0,0.0,0.0,0.0,0.0,0.0,0.0,0.0,0.0,0.0,0.0,0.0,0.0,0.0,0.0,0.0,0.0,0.0,0.0,0.0,0.0,0.0,0.0,0.0,0.0,0.0,0.0,0.0,0.0,0.0,0.0,0.0,0.0,0.0,0.0,0.0,0.0,0.0,0.0,0.0,0.0,0.0,0.0,0.0,0.0,0.0,0.0,0.0,0.0,0.0,0.0,0.0,0.0,0.0,0.0,0.0,0.0,0.0,0.0,0.0,0.0,0.0,0.0,0.0,0.0,0.0,0.0,0.0,0.0,0.0,0.0,0.0,0.0,0.0,0.0,0.0,0.0,0.0,0.0,0.0,0.0,0.0,0.0,-0.5609,-0.2007,-0.1414,-0.4088,-0.7178,-0.9422,0.0,0.0,0.0,0.0,0.0,0.0,0.0,0.0,0.0,0.0,0.0,0.0,0.0,0.0,0.0,0.0,0.0,0.0,0.0,0.0,0.0,0.0,0.0,0.0,0.0,0.0,0.0,0.0,0.0,0.0,0.0,0.0,0.0,0.0,0.0,0.0,0.0,0.0,0.0,0.0,0.0,0.0,0.0,0.0,0.0,0.0,0.0,0.0,0.0,0.0,0.0,0.0,0.0,0.0,0.0,0.0,0.0,0.0,0.0,0.0,0.0,0.0,0.0,0.0,0.0,0.0,0.0,0.0,0.0,0.0,0.0,0.0,0.0,0.0,0.0,0.0,0.0,0.0,0.0,0.0,0.0,0.0,0.0,0.0,0.0,0.0,0.0,0.0,0.0,0.0,0.0,0.0,0.0,0.0,0.0,0.0,0.0,0.0,0.0,0.0,0.0,0.0,0.0,0.0,0.0,0.0,0.0,0.0,-0.66,-0.3722,0.3147,0.5684,0.3472,-0.2807,-0.7007,0.0,0.0,0.0,0.0,0.0,0.0,0.0,0.0,0.0,0.0,0.0,0.0,0.0,0.0,0.0,0.0,0.0,0.0,0.0,0.0,0.0,0.0,0.0,0.0,0.0,0.0,0.0,0.0,0.0,0.0,0.0,0.0,0.0,0.0,0.0,0.0,0.0,0.0,0.0,0.0,0.0,0.0,0.0,0.0,0.0,0.0,0.0,0.0,0.0,0.0,0.0,0.0,0.0,0.0,0.0,0.0,0.0,0.0,0.0,0.0,0.0,0.0,0.0,0.0,0.0,0.0,0.0,0.0,0.0,0.0,0.0,0.0,0.0,0.0,0.0,0.0,0.0,0.0,0.0,0.0,0.0,0.0,0.0,0.0,0.0,0.0,0.0,0.0,0.0,0.0,0.0,0.0,0.0,0.0,0.0,0.0,0.0,0.0,0.0,0.0,0.0,0.0,0.0,0.0,0.0,0.0,0.0,0.0,-0.3379,-0.2979,0.6438,1.1553,1.1406,0.2373,-0.4351,0.0,0.0,0.0,0.0,0.0,0.0,0.0,0.0,0.0,0.0,0.0,0.0,0.0,0.0,0.0,0.0,0.0,0.0,0.0,0.0,0.0,0.0,0.0,0.0,0.0,0.0,0.0,0.0,0.0,0.0,0.0,0.0,0.0,0.0,0.0,0.0,0.0,0.0,0.0,0.0,0.0,0.0,0.0,0.0,0.0,0.0,0.0,0.0,0.0,0.0,0.0,0.0,0.0,0.0,0.0,0.0,0.0,0.0,0.0,0.0,0.0,0.0,0.0,0.0,0.0,0.0,0.0,0.0,0.0,0.0,0.0,0.0,0.0,0.0,0.0,0.0,0.0,0.0,0.0,0.0,0.0,0.0,0.0,0.0,0.0,0.0,0.0,0.0,0.0,0.0,0.0,0.0,0.0,0.0,0.0,0.0,0.0,0.0,0.0,0.0,0.0,0.0,0.0,0.0,0.0,0.0,0.0,0.0,-0.16,0.2318,0.833,1.1519,1.151,0.2153,-0.3172,0.0,0.0,0.0,0.0,0.0,0.0,0.0,0.0,0.0,0.0,0.0,0.0,0.0,0.0,0.0,0.0,0.0,0.0,0.0,0.0,0.0,0.0,0.0,0.0,0.0,0.0,0.0,0.0,0.0,0.0,0.0,0.0,0.0,0.0,0.0,0.0,0.0,0.0,0.0,0.0,0.0,0.0,0.0,0.0,0.0,0.0,0.0,0.0,-1.2223,0.0,0.0,0.0,0.0,0.0,0.0,0.0,0.0,0.0,0.0,0.0,0.0,0.0,0.0,0.0,0.0,0.0,0.0,0.0,0.0,0.0,0.0,0.0,0.0,0.0,0.0,0.0,0.0,0.0,0.0,0.0,0.0,0.0,0.0,0.0,0.0,0.0,0.0,0.0,0.0,0.0,0.0,0.0,0.0,0.0,0.0,0.0,0.0,0.0,0.0,0.0,0.0,0.0,0.0,0.0,0.0,0.0,0.0,0.0,-0.1006,0.3883,0.8901,1.1502,1.1249,0.4122,-0.0672,0.0,0.0,0.0,0.0,0.0,0.0,0.0,0.0,0.0,0.0,0.0,0.0,0.0,0.0,0.0,0.0,0.0,0.0,0.0,0.0,0.0,0.0,0.0,0.0,0.0,0.0,0.0,0.0,0.0,0.0,0.0,0.0,0.0,0.0,0.0,0.0,0.0,0.0,0.0,0.0,0.0,0.0,0.0,0.0,0.0,0.0,0.0,0.0,0.0,0.0,0.0,0.0,0.0,0.0,0.0,0.0,0.0,0.0,0.0,0.0,0.0,0.0,0.0,0.0,0.0,0.0,0.0,0.0,0.0,0.0,0.0,0.0,0.0,0.0,0.0,0.0,0.0,0.0,0.0,0.0,0.0,0.0,0.0,0.0,0.0,0.0,0.0,0.0,0.0,0.0,0.0,0.0,0.0,0.0,0.0,0.0,0.0,0.0,0.0,0.0,0.0,0.0,0.0,0.0,0.0,0.0,0.0,-0.5552,-0.0618,0.4985,0.9262,1.1444,1.1376,0.647,0.176,-0.2488,0.0,0.0,0.0,0.0,0.0,0.0,0.0,0.0,0.0,0.0,0.0,0.0,0.0,0.0,0.0,0.0,0.0,0.0,0.0,0.0,0.0,0.0,0.0,0.0,0.0,0.0,0.0,0.0,0.0,0.0,0.0,0.0,0.0,0.0,0.0,0.0,0.0,0.0,0.1465,0.0971,0.0,0.0,0.0,0.0,0.0,0.0,0.0,0.0,-1.2477,0.0,0.0,0.0,0.0,0.0,0.0,0.0,0.0,0.0,0.0,0.0,0.0,0.0,0.0,0.0,0.0,0.0,0.0,0.0,0.0,0.0,0.0,0.0,0.0,0.0,0.0,0.0,0.0,0.0,0.0,0.0,0.0,0.0,0.0,0.0,0.0,0.0,0.0,0.0,0.0,0.0,0.0,0.0,0.0,0.0,0.0,0.0,0.0,0.0,0.0,0.0,0.0,0.0,0.0,0.0,0.0,-0.4631,-0.3909,0.0931,1.0138,1.0906,1.1226,1.1191,0.6644,0.1829,-0.303,0.0,0.0,0.0,0.0,0.0,0.0,0.0,0.0,0.0,0.0,0.0,0.0,0.0,0.0,0.0,0.0,0.0,0.0,0.0,0.0,0.0,0.0,0.0,0.0,0.0,0.0,0.0,0.0,0.0,0.0,0.0,0.0,0.0,0.0,0.0,0.0,0.0,0.0,0.0,-0.1395,-0.4194,0.0,0.0,0.0,0.0,0.0,0.0,0.0,0.0,-1.1876,0.0,0.0,0.0,0.0,0.0,0.0,0.0,0.0,0.0,0.0,0.0,0.0,0.0,0.0,0.0,0.0,0.0,0.0,0.0,0.0,0.0,0.0,0.0,0.0,0.0,0.0,0.0,0.0,0.0,0.0,0.0,0.0,0.0,0.0,0.0,0.0,0.0,0.0,0.0,0.0,0.0,0.0,0.0,0.0,0.0,0.0,0.0,0.0,0.0,0.0,0.0,0.0,0.0,0.0,0.0,-0.376,-0.0788,0.4255,1.1541,1.1808,1.1711,1.1455,0.706,0.2169,0.0,0.0,0.0,0.0,0.0,0.0,0.0,0.0,0.0,0.0,0.0,0.0,0.0,0.0,0.0,0.0,0.0,0.0,0.0,0.0,0.0,0.0,0.0,0.0,0.0,0.0,0.0,0.0,0.0,0.0,0.0,0.0,0.0,0.0,0.0,0.0,0.0,0.0,0.0,0.0,-0.3807,-0.525,-0.5611,0.0,0.0,0.0,0.0,0.0,0.0,-0.9643,-0.8671,0.0,0.0,0.0,0.0,0.0,0.0,0.0,0.0,0.0,0.0,0.0,0.0,0.0,0.0,0.0,0.0,0.0,0.0,0.0,0.0,0.0,0.0,0.0,0.0,0.0,0.0,0.0,0.0,0.0,0.0,0.0,0.0,0.0,0.0,0.0,0.0,0.0,0.0,0.0,0.0,0.0,0.0,0.0,0.0,0.0,0.0,0.0,0.0,0.0,0.0,0.0,0.0,0.0,0.0,0.0,-0.3858,0.1674,0.6943,1.1714,1.2189,1.217,1.1713,0.6458,0.1418,0.0,0.0,0.0,0.0,0.0,0.0,0.0,0.0,0.0,0.0,0.0,0.0,0.0,0.0,0.0,0.0,0.0,0.0,0.0,0.0,0.0,0.0,0.0,0.0,0.0,0.0,0.0,0.0,0.0,0.0,0.0,0.0,0.0,0.0,0.0,0.0,0.0,0.0,0.0,0.0,0.0,-0.5526,-0.6038,-0.662,0.0,0.0,0.0,0.0,-1.1944,-0.7701,0.0,0.0,0.0,0.0,0.0,0.0,0.0,0.0,0.0,0.0,0.0,0.0,0.0,0.0,0.0,0.0,0.0,0.0,0.0,0.0,0.0,0.0,0.0,0.0,0.0,0.0,0.0,0.0,0.0,0.0,0.0,0.0,0.0,0.0,0.0,0.0,0.0,0.0,0.0,0.0,0.0,0.0,0.0,0.0,0.0,0.0,0.0,0.0,0.0,0.0,0.0,0.0,0.0,0.0,0.0,0.0,-0.4287,0.1409,0.6811,1.1607,1.1991,1.2003,1.1753,0.3016,-0.2078,0.0,0.0,0.0,0.0,0.0,0.0,0.0,0.0,0.0,0.0,0.0,0.0,0.0,0.0,0.0,0.0,0.0,0.0,0.0,0.0,0.0,0.0,0.0,0.0,0.0,0.0,0.0,0.0,0.0,0.0,0.0,0.0,0.0,0.0,0.0,0.0,0.0,0.0,0.0,0.0,0.0,-0.5724,-0.6353,-0.9905,-1.2763,0.0,0.0,-0.7028,-0.7103,-0.2893,0.0,0.0,0.0,0.0,0.0,0.0,0.0,0.0,0.0,0.0,0.0,0.0,0.0,0.0,0.0,0.0,0.0,0.0,0.0,0.0,0.0,0.0,0.0,0.0,0.0,0.0,0.0,0.0,0.0,0.0,0.0,0.0,0.0,0.0,0.0,0.0,0.0,0.0,0.0,0.0,0.0,0.0,0.0,0.0,0.0,0.0,0.0,0.0,0.0,0.0,0.0,0.0,0.0,0.0,0.0,-0.6002,-0.3931,0.4907,1.0565,1.2544,1.2688,1.263,1.2421,0.2766,-0.2502,0.0,0.0,0.0,0.0,0.0,0.0,0.0,0.0,0.0,0.0,0.0,0.0,0.0,0.0,0.0,0.0,0.0,0.0,0.0,0.0,0.0,0.0,0.0,0.0,0.0,0.0,0.0,0.0,0.0,0.0,0.0,0.0,0.0,0.0,0.0,0.0,0.0,0.0,0.0,0.0,0.0,0.0,-0.6086,-0.8137,0.0,0.0,0.0,-0.7666,-1.0418,0.0,0.0,0.0,0.0,0.0,0.0,0.0,0.0,0.0,0.0,0.0,0.0,0.0,0.0,0.0,0.0,0.0,0.0,0.0,0.0,0.0,0.0,0.0,0.0,0.0,0.0,0.0,0.0,0.0,0.0,0.0,0.0,0.0,0.0,0.0,0.0,0.0,0.0,0.0,0.0,0.0,0.0,0.0,0.0,0.0,0.0,0.0,0.0,0.0,0.0,0.0,0.0,0.0,0.0,0.0,0.0,0.0,-0.4,0.751,1.3441,1.3155,1.3284,1.3232,1.2772,0.4388,0.0,0.0,0.0,0.0,0.0,0.0,0.0,0.0,0.0,0.0,0.0,0.0,0.0,0.0,0.0,0.0,0.0,0.0,0.0,0.0,0.0,0.0,0.0,0.0,0.0,0.0,0.0,1.14,0.0,0.0,0.0,0.0,0.0,0.0,0.0,0.0,0.0,0.0,0.0,0.0,0.0,0.0,-0.5408,-0.4098,-0.5595,-0.6493,0.0,0.0,-0.788,-1.0043,0.0526,0.5425,0.0,0.0,0.0,0.0,0.0,0.0,0.0,0.0,0.0,0.0,0.0,0.0,0.0,0.0,0.0,0.0,0.0,0.0,0.0,0.0,0.0,0.0,0.0,0.0,0.0,0.0,0.0,0.0,0.0,0.0,0.0,0.0,0.0,0.0,0.0,0.0,0.0,0.0,0.0,0.0,0.0,0.0,0.0,0.0,0.0,0.0,0.0,0.0,0.0,0.0,0.0,0.0,0.0,0.0,0.0,-0.4409,0.7268,1.3356,1.3039,1.3321,1.3321,1.2923,0.8194,0.3108,0.0,0.0,0.0,0.0,0.0,0.0,0.0,0.0,0.0,0.0,0.0,0.0,0.0,0.0,0.0,0.0,0.0,0.0,0.0,0.0,0.0,0.0,0.0,0.0,0.0,0.0,0.0,0.0,0.0,0.0,0.0,0.0,0.0,0.0,0.0,0.0,0.0,0.0,0.0,0.0,0.0,-0.5104,0.0744,-0.3552,-0.5513,0.0,0.0,-0.5494,-0.0582,0.4966,0.5192,-0.5471,0.0,0.0,0.0,0.0,0.0,0.0,0.0,0.0,0.0,0.0,0.0,0.0,0.0,0.0,0.0,0.0,0.0,0.0,0.0,0.0,0.0,0.0,0.0,0.0,0.0,0.0,0.0,0.0,0.0,0.0,0.0,0.0,0.0,0.0,0.0,0.0,0.0,0.0,0.0,0.0,0.0,0.0,0.0,0.0,0.0,0.0,0.0,0.0,0.0,0.0,0.0,0.0,0.0,-0.3738,-0.4295,0.812,1.428,1.3657,1.3679,1.367,1.3619,0.8596,0.3431,0.0,0.0,0.0,0.0,0.0,0.0,0.0,0.0,0.0,0.0,0.0,0.0,0.0,0.0,0.0,0.0,0.0,0.0,0.0,0.0,0.0,0.0,0.0,0.0,0.0,0.0,0.0,0.0,1.1601,1.0964,0.9414,0.0,0.0,0.0,0.0,0.0,0.0,0.0,0.0,0.0,0.0,-0.0201,0.1537,-0.061,0.0,0.0,-0.1249,-0.3091,-0.4431,0.0124,-0.0041,-1.1282,-0.957,0.0,0.0,0.0,0.0,0.0,0.0,0.0,0.0,0.0,0.0,0.0,0.0,0.0,0.0,0.0,0.0,0.0,0.0,0.0,0.0,0.0,0.0,0.0,0.0,0.0,0.0,0.0,0.0,0.0,0.0,0.0,0.0,0.0,0.0,0.0,0.0,0.0,0.0,0.0,0.0,0.0,0.0,0.0,0.0,0.0,0.0,0.0,0.0,0.0,0.0,0.0,0.0,-0.3872,-0.4191,0.8433,1.4678,1.4005,1.3891,1.3851,1.3885,1.03,0.5931,0.0,0.0,0.0,0.0,0.0,0.0,0.0,0.0,0.0,0.0,0.0,0.0,0.0,0.0,0.0,0.0,0.0,0.0,0.0,0.0,0.0,0.0,0.0,0.0,0.0,0.0,0.0,0.0,1.2193,1.2302,1.2489,0.0,0.0,0.0,0.0,0.0,0.0,0.0,0.0,0.0,0.0,0.2256,0.162,-0.0458,-0.2053,-0.2255,-0.3709,-0.5652,-0.7957,-0.3124,-0.2542,-1.2516,0.0,0.0,0.0,0.0,0.0,0.0,0.0,0.0,0.0,0.0,0.0,0.0,0.0,0.0,0.0,0.0,0.0,0.0,0.0,0.0,0.0,0.0,0.0,0.0,0.0,0.0,0.0,0.0,0.0,0.0,-1.847,0.0,0.0,0.0,0.0,0.0,0.0,0.0,0.0,0.0,0.0,0.0,0.0,0.0,0.0,0.0,0.0,0.0,0.0,0.0,0.0,0.0,0.0,-0.4388,-0.4247,0.7969,1.4242,1.4019,1.3869,1.3868,1.401,1.4165,1.1723,0.6246,0.0,0.0,0.0,0.0,0.0,0.0,0.0,0.0,0.0,0.0,0.0,0.0,0.0,0.0,0.0,0.0,0.0,0.0,0.0,0.0,0.0,0.0,0.0,0.0,0.0,0.0,1.3645,1.3292,1.2753,0.0,0.0,0.0,0.0,0.0,0.0,0.0,0.0,0.0,0.0,0.205,0.0961,0.1394,-0.3961,-0.7814,-0.7782,-1.2483,-1.4323,-0.8863,-0.2928,-0.0832,0.0,0.0,0.0,0.0,0.0,0.0,0.0,0.0,0.0,0.0,0.0,0.0,0.0,0.0,0.0,0.0,0.0,0.0,0.0,0.0,0.0,0.0,0.0,0.0,0.0,0.0,0.0,-1.8134,-2.1601,0.0,0.0,0.0,0.0,0.0,0.0,0.0,0.0,0.0,0.0,0.0,-0.3999,-0.3912,0.0,0.0,0.0,0.0,0.0,0.0,0.0,0.0,0.0,0.0,0.0,0.0,-0.4004,-0.3666,0.8229,1.4565,1.4353,1.4462,1.4581,1.4654,1.5046,1.2451,0.6575,0.0,0.0,0.0,0.0,0.0,0.0,0.0,0.0,0.0,0.0,0.0,0.0,0.0,0.0,0.0,0.0,0.0,0.0,0.0,0.0,0.0,0.0,0.0,0.0,0.0,1.3499,0.0,0.0,0.0,0.0,0.0,0.0,0.0,0.0,0.0,0.0,0.0,0.2418,0.8156,0.4936,0.1907,0.1551,-0.4072,-0.6884,0.0,0.0,0.0,0.0,0.0,0.0,0.0,0.0,0.0,0.0,0.0,0.0,0.0,0.0,0.6711,0.4396,0.4209,0.6353,1.2572,0.0,0.0,0.0,0.0,0.0,0.0,0.0,0.0,0.0,0.0,0.0,0.0,0.0,0.0,-1.9647,0.0,-1.8202,0.0,0.0,0.0,0.0,0.0,0.0,0.0,0.0,-0.2635,0.0494,0.2253,0.2427,0.2574,0.0,0.0605,-0.5144,0.0,0.0,0.0,0.0,0.0,0.0,0.0,0.0,-0.3957,-0.3741,0.8368,1.4752,1.4474,1.48,1.508,1.5207,1.5505,1.3696,0.9522,0.3635,-0.152,0.0,0.0,0.0,0.0,0.0,0.0,0.0,0.0,0.0,0.0,0.0,0.0,0.0,0.0,0.0,0.0,0.0,0.0,0.0,0.0,0.0,0.0,0.0,1.3807,0.0,0.0,0.0,0.0,0.0,0.0,0.0,0.0,0.0,1.2421,0.8906,0.764,1.1135,0.8158,0.4784,0.2318,0.0,0.0,0.0,0.0,0.0,0.0,0.0,-0.3231,-0.2532,-0.0773,0.0689,0.1164,0.502,0.9454,1.3716,0.0,0.0,0.8654,0.8017,0.9551,1.365,1.4387,1.447,1.4882,1.509,1.5324,0.0,0.0,0.0,0.0,0.0,0.0,0.0,0.0,-2.6603,-2.5487,0.0,-2.495,0.0,0.0,0.0,0.0,0.0,-0.4282,0.0,0.0,1.136,1.4192,0.8748,0.8931,0.9139,0.8777,0.3103,-0.0107,-0.0782,-0.0462,0.0,0.0,0.0,0.0,0.0,0.0,-0.4172,-0.359,0.8468,1.4671,1.4348,1.4895,1.5319,1.5586,1.5729,1.5498,1.4767,0.9186,0.5734,0.4989,0.0089,0.0,0.0,0.0,0.0,0.0,0.0,0.0,0.0,0.0,0.0,0.0,0.0,0.0,0.0,0.0,0.0,0.0,0.0,0.0,0.0,1.457,0.0,0.0,0.0,0.0,0.0,0.0,0.0,0.0,0.0,0.0,1.2447,1.2089,1.2015,1.2036,0.0,0.0,0.0,0.0,0.0037,-0.4694,-0.5706,-0.5693,-0.5012,-0.0018,0.3885,0.4226,0.0,0.0,1.4144,1.4697,1.4943,1.5117,1.5542,1.572,1.4763,1.4373,1.4611,1.5012,1.5137,1.5195,1.5342,1.5943,1.6457,-2.6404,0.0,0.0,0.0,0.0,-2.6354,-2.684,-2.719,-2.1501,-2.1789,-2.5972,-2.053,0.0,0.0,0.0,0.0,0.0,0.0,0.1845,0.6171,0.968,1.2618,1.5177,1.4998,1.4816,1.4593,1.3167,1.2282,1.197,1.2362,0.3819,-1.3046,0.0,0.0,0.0,0.0,-0.2558,0.2623,1.0091,1.4202,1.4658,1.4953,1.5399,1.5943,1.5861,1.5538,1.498,1.307,1.0009,0.5791,0.4102,0.0,0.0,0.0,0.0,0.0,0.0,0.0,0.0,0.0,0.0,0.0,0.0,0.0,0.0,0.0,0.0,0.0,0.0,0.0,1.4559,1.4106,1.3928,0.0,0.0,0.0,0.0,0.0,0.0,0.0,0.0,0.0,1.3607,1.3188,1.2822,0.0,0.0,0.5556,0.385,-0.0149,-0.2032,0.0693,-0.2183,0.0,0.721,0.6377,0.6423,1.1245,1.3705,1.5144,1.569,1.5633,1.5529,1.5529,1.5685,1.5778,1.5839,1.5795,1.5747,1.5604,1.5935,1.6276,1.6276,1.7164,1.7992,-2.8275,-2.7691,-2.6839,-2.667,-2.6987,-2.7124,-2.7653,-2.811,-2.3285,-2.3505,-2.6994,-2.2608,-2.2344,-2.4764,-1.6967,0.0,0.0,0.0,0.4755,0.7858,1.085,1.2511,1.322,1.6144,1.7494,1.7352,1.7915,1.7894,1.7304,1.4967,0.7277,-0.5496,0.0,0.0,-0.9432,-0.3622,0.1358,0.5457,1.1324,1.45,1.4702,1.5383,1.5935,1.6297,1.6235,1.5919,1.5465,1.5016,1.3142,0.9667,0.71,0.2405,0.0,0.0,0.0,0.0,0.0,0.0,0.0,0.0,0.0,0.0,0.0,1.6001,1.6197,0.0,0.0,0.0,1.4994,1.4869,1.4523,1.4222,0.0,0.0,0.0,0.0,0.0,0.0,0.0,1.4715,1.4512,1.4489,1.4804,1.4558,1.4152,1.3706,1.061,0.8407,0.8492,0.0,0.4172,0.7896,0.5644,0.6117,1.3429,1.1648,1.0839,1.5359,1.6574,1.6965,1.7322,1.6967,1.6651,1.6619,1.6619,1.6694,1.6925,1.7129,1.7152,1.6717,1.6946,1.7304,1.7489,1.8459,1.9253,-3.0323,-2.9606,-2.7602,-2.7156,-2.7776,-2.7924,-2.8438,-2.9197,-2.9296,-2.8687,-2.7593,-2.8841,-2.7316,-2.332,-1.6213,0.0,0.8778,0.8934,0.831,0.7278,1.4386,1.3717,0.6972,1.4353,1.7817,1.7741,1.8411,1.8276,1.7114,1.1381,0.7689,0.6407,0.7236,0.4136,-0.2204,0.2816,0.57,0.558,1.1511,1.4617,1.4552,1.5949,1.6697,1.6697,1.6697,1.6492,1.6074,1.5525,1.5215,1.5002,0.9705,0.6385,0.5454,0.0,0.0,0.0,0.0,0.0,0.0,0.0,0.0,0.0,0.0,0.0,0.0,0.0,0.0,0.0,1.4718,0.0,1.4761,1.4797,0.0,0.0,0.0,1.5764,1.6322,1.6045,1.5821,1.5864,0.0,0.0,1.5994,1.6038,1.5767,1.4963,1.4917,1.5069,1.5439,1.475,1.4957,1.4914,1.5233,1.5261,1.5382,1.5292,1.577,1.7342,1.838,1.8885,1.8951,1.8482,1.8085,1.8012,1.8061,1.8051,1.8061,1.8492,1.8834,1.8247,1.8166,1.8335,1.8806,1.9553,2.0138,-3.0557,-3.0492,-2.9967,-2.924,-2.843,-2.8639,-2.8838,-2.9074,-2.9312,-2.9196,-2.8929,-2.9254,-2.2444,-1.0453,-0.8331,0.0969,1.538,1.5738,1.5732,1.5536,1.6718,1.6353,1.4775,1.6352,1.7074,1.7074,1.7341,1.7281,1.6875,1.5307,1.1849,0.6989,0.7138,0.3627,-0.338,-0.2562,0.0465,0.5282,0.6384,0.9537,1.4787,1.6102,1.6697,1.6697,1.6697,1.643,1.5901,1.5466,1.5156,1.5029,1.3724,1.0808,0.5962,-0.31,0.0,0.0,0.0,0.0,0.0,0.0,0.0,0.0,0.0,1.6166,1.6306,0.0,1.5724,0.0,1.5487,1.5605,1.6003,1.5975,0.0,0.0,1.6303,1.642,1.7128,1.6908,1.69,1.7381,1.7094,1.6888,1.7031,1.6799,1.6525,1.631,1.5734,1.5381,1.5352,1.5611,1.5823,1.6049,1.629,1.6522,1.6542,1.7021,1.7856,1.924,1.9236,1.921,1.977,1.9233,1.8767,1.8777,1.8777,1.8777,1.8767,1.8911,1.9166,1.9497,1.9595,1.9474,1.9133,2.0031,2.0764,-3.1443,-3.1246,-3.1308,-3.0674,-2.9605,-2.9484,-2.9471,-2.9524,-2.9366,-2.9336,-2.9388,-2.9388,-1.8621,-0.0963,-0.4074,0.2932,1.7389,1.8018,1.6379,1.3442,1.6175,1.5748,1.2652,1.5639,1.7088,1.7015,1.7162,1.7106,1.6909,1.6825,1.4913,1.1357,1.1434,0.7905,0.0956,-0.2286,-0.212,0.1241,0.3693,0.841,1.5495,1.6606,1.5514,1.235,1.2165,1.042,0.6849,0.6356,0.6034,0.5828,0.5939,0.4344,0.0679,-0.6764,-1.2196,0.0,0.0,0.0,0.0,0.0,0.0,0.0,0.0,0.0,0.0,0.0,1.6247,1.6371,1.6301,1.6411,1.6764,1.6997,1.7317,1.7792,1.7861,1.8137,1.8814,1.8553,1.8428,1.8796,1.8547,1.8211,1.7957,1.7856,1.7635,1.7183,1.6686,1.629,1.6065,1.6258,1.6472,1.6557,1.6751,1.7038,1.7339,1.7969,1.8811,1.9802,2.0031,2.0128,2.0495,1.9966,1.9507,1.9507,1.9507,1.9474,1.9507,1.977,2.0128,2.0431,2.0603,2.0431,2.0063,2.0624,2.1031,-3.2539,-3.199,-3.2101,-3.1776,-3.1173,-3.0547,-3.0313,-3.0313,-2.9761,-2.9513,-2.9479,-2.8344,-1.5579,0.4469,-0.147,0.3812,1.7718,1.7991,1.4491,0.8844,1.4935,1.4274,0.8067,1.4413,1.7479,1.7379,1.7451,1.7385,1.714,1.7039,1.6497,1.5632,1.5566,1.2223,0.565,-0.0027,-0.3152,-0.3715,0.2469,0.8827,1.5113,1.4845,1.1597,0.5558,0.504,0.1965,-0.4321,-0.5068,-0.5377,-0.5623,-0.5564,-0.5209,-0.4625,-1.1409,-1.467,0.0,-1.997,0.0,0.0,0.0,0.0,0.0,0.0,0.0,0.0,1.6824,1.6991,1.744,1.7388,1.7399,1.761,1.8153,1.8698,1.9155,1.9627,2.0121,2.0598,2.0281,2.0012,2.0099,1.9912,1.9558,1.8903,1.9035,1.8798,1.7969,1.7716,1.7562,1.7232,1.7007,1.6879,1.7003,1.7107,1.7579,1.8206,1.8777,1.9419,2.0139,2.07,2.1201,2.1138,2.0656,2.0237,2.0226,2.0237,2.0237,2.0237,2.0764,2.1169,2.1242,2.1285,2.1253,2.121,2.1158,2.1253,-3.289,-3.2855,-3.287,-3.2904,-3.2857,-3.2117,-3.1555,-3.1158,-3.1162,-3.0853,-2.9783,-2.2642,-1.3382,-0.2998,0.2207,0.9565,1.8367,1.8479,1.7702,1.641,1.7411,1.7146,1.5807,1.7021,1.7705,1.7772,1.7579,1.7623,1.7875,1.719,1.4229,0.9293,0.8951,0.5588,-0.0642,0.0,0.0,0.0,0.234,0.6505,0.7591,0.2435,-0.0999,-0.2369,-0.2893,0.0,-0.4936,-0.5511,-0.5755,-0.576,-0.5854,0.0,0.0,0.0,0.0,0.0,0.0,0.0,0.0,0.0,0.0,0.0,1.8081,1.8269,1.8376,1.871,1.9097,1.9492,1.9482,1.9555,1.9905,2.0065,2.0189,2.029,2.0382,2.0658,2.1175,2.0794,2.0633,2.1051,2.0719,2.0266,1.9889,1.9727,1.9474,1.8977,1.8821,1.871,1.8576,1.7647,1.7176,1.7672,1.8172,1.8844,1.9606,1.977,2.0074,2.0796,2.1063,2.1201,2.1201,2.1106,2.0999,2.0967,2.0999,2.0967,2.0978,2.1126,2.1394,2.1714,2.1776,2.1765,2.1765,2.1463,2.1431,-3.293,0.0,-3.307,-3.3147,0.0,-3.2984,-3.278,-3.2535,-3.1808,-2.9009,-2.4916,-2.4509,-1.5266,0.0247,0.0249,0.7103,1.8857,1.8907,1.8987,1.9054,1.8629,1.8425,1.8317,1.8166,1.8073,1.8139,1.7897,1.7886,1.7968,1.744,1.5599,1.2644,1.2494,1.086,0.7823,0.7421,0.5321,0.1401,0.4833,0.837,1.1743,0.8663,0.5146,0.1745,0.1215,0.0,0.0,0.0,0.0,0.0,0.0,0.0,0.0,0.0,0.0,0.0796,-0.238,-0.1112,0.6279,0.7003,1.0401,1.8181,1.9556,1.9866,1.9474,1.9815,2.0122,2.031,2.0314,2.0378,2.0586,2.0822,2.0995,2.0995,2.1223,2.1512,2.1698,2.1563,2.1504,2.1698,2.1486,2.1019,2.042,2.0366,1.9998,1.9309,1.9253,1.9253,1.9011,1.8408,1.8104,1.8442,1.8744,1.9266,1.9933,2.0096,2.0366,2.0999,2.1201,2.1201,2.1201,2.1201,2.1201,2.1201,2.1201,2.1259,2.1523,2.1762,2.2153,2.2591,2.2919,2.3218,2.3371,2.2623,2.2032,-3.29,-3.2932,-3.3039,-3.3086,-3.3086,-3.3444,-3.3684,-3.3737,0.0,0.0,0.0,-2.5601,-1.5625,0.3505,-0.0063,0.6042,1.9308,1.9599,1.9705,1.985,1.9434,1.9131,1.8982,1.8657,1.8518,1.8503,1.8398,1.8253,1.8155,1.7902,1.7915,1.8174,1.8159,1.8227,1.8373,1.8098,1.5203,0.98,0.8117,1.0329,1.6309,1.5296,1.1783,0.5843,0.5591,0.2659,-0.3219,-0.3513,-0.3618,-0.3821,-0.3802,-0.3223,-0.2136,-0.2098,-0.1544,-0.0256,-0.0304,0.2495,0.8944,0.9424,1.2436,1.9565,2.0796,2.1038,2.0487,2.0725,2.0887,2.0899,2.0899,2.0899,2.087,2.1272,2.1548,2.1548,2.1933,2.2185,2.2185,2.2197,2.2142,2.2154,2.1987,2.1632,2.0965,2.0912,2.0624,1.9759,1.9781,1.9791,1.9441,1.9276,1.9144,1.921,1.9398,1.9704,2.0139,2.0334,2.0571,2.1094,2.1282,2.1328,2.1339,2.1408,2.1454,2.1558,2.1477,2.1661,2.1994,2.2383,2.2971,2.3517,2.3989,2.4536,2.4944,2.4148,2.3281,-3.2932,-3.2979,-3.3073,-3.3024,-3.2945,-3.3401,-3.3753,-3.3899,-3.3087,-3.2113,-3.0179,-1.578,-0.7378,-0.2864,1.0681,1.8432,2.1119,2.1172,2.1104,2.0955,2.0318,1.9958,1.9809,1.9215,1.8919,1.8928,1.9124,1.9186,1.9081,1.8998,1.8963,1.8896,1.8709,1.8583,1.8466,1.8262,1.7812,1.7009,1.0875,0.8094,0.89,0.2959,-0.0873,-0.223,-0.2137,-0.2878,-0.3861,-0.377,-0.3981,-0.3973,-0.4084,-0.1105,0.5438,0.583,0.8768,1.5133,1.5757,1.6283,1.7321,1.7458,1.8332,2.0235,2.0635,2.1043,2.1842,2.1951,2.1981,2.1969,2.1921,2.1969,2.1981,2.2005,2.2053,2.2065,2.2137,2.2197,2.2197,2.2197,2.2166,2.2154,2.203,2.1862,2.1632,2.1431,2.123,2.1071,2.0784,2.0903,2.07,2.0334,1.9998,2.0031,2.0495,2.0903,2.0992,2.1031,2.112,2.1169,2.156,2.1824,2.1824,2.2111,2.2362,2.2466,2.2397,2.2466,2.2559,2.2638,2.3189,2.395,2.4362,2.4696,2.5594,2.5456,2.527,-3.2948,-3.2995,-3.3088,-3.3104,-3.3137,-3.3545,-3.0746,-2.6798,-3.153,-3.367,-3.2312,-1.969,-1.106,-0.524,0.7517,1.6227,2.1075,2.1256,2.1256,2.1091,2.0701,2.0451,2.0334,2.0302,2.0298,2.0293,2.025,2.0123,1.9865,1.941,1.9182,1.9254,1.9311,1.9263,1.9105,1.8903,1.8848,1.8821,1.5353,1.3599,1.3735,1.0539,0.8747,0.8528,0.8481,0.8457,0.8534,0.851,0.8504,0.8534,0.8463,1.0106,1.3539,1.3791,1.5351,1.8808,1.9098,1.9231,1.9495,2.0042,2.0528,2.0987,2.1305,2.1675,2.2154,2.2197,2.2197,2.2197,2.2197,2.2197,2.2197,2.2197,2.2197,2.2197,2.2197,2.2197,2.2166,2.2104,2.203,2.2042,2.1874,2.1749,2.1632,2.1494,2.1356,2.1305,2.1221,2.1201,2.1224,2.1162,2.097,2.0788,2.0999,2.1307,2.1514,2.1583,2.1686,2.196,2.218,2.2317,2.234,2.2581,2.2696,2.2707,2.2719,2.28,2.3018,2.3375,2.3971,2.4871,2.5381,2.5861,2.6511,2.6707,2.6498,-3.2948,-3.2995,-3.3024,-3.1892,-3.0078,-3.0303,-2.6139,-2.0432,-2.7567,-3.0977,-2.9904,-2.1607,-1.3554,-0.601,0.5221,1.442,2.0598,2.1502,2.1572,2.1428,2.1267,2.1134,2.1054,2.1392,2.1542,2.1433,2.1303,2.1001,2.0571,1.9932,1.9579,1.9604,1.9825,1.9846,1.9671,1.9473,1.9318,1.9121,1.8756,1.8745,1.9088,1.9098,1.9088,1.9098,1.899,1.9098,1.9098,1.9098,1.9098,1.9098,1.9098,1.9098,1.9098,1.9098,1.9098,1.9098,1.9098,1.933,1.99,2.0592,2.1167,2.1388,2.1788,2.2061,2.2154,2.2197,2.2197,2.2197,2.2197,2.2197,2.2197,2.2197,2.2197,2.2197,2.2197,2.2197,2.2166,2.203,2.1906,2.1906,2.1749,2.158,2.1431,2.1356,2.1305,2.1221,2.1201,2.1224,2.1385,2.1697,2.1732,2.1661,2.1535,2.1707,2.2042,2.2099,2.2249,2.2673,2.2777,2.2834,2.288,2.2926,2.3075,2.3133,2.3075,2.3236,2.357,2.4062,2.4681,2.5387,2.6015,2.6773,2.7252,2.7398,2.7242,-3.2979,-3.2979,-3.2706,-2.7827,-1.9909,-2.001,-1.9662,-1.929,-2.0544,-2.1231,-2.151,-1.2385,-0.7545,-0.3404,1.2396,2.1,2.2745,2.2915,2.2812,2.2662,2.2578,2.2439,2.2225,2.2175,2.1916,2.1718,2.2054,2.1897,2.1273,2.1151,2.0764,2.0129,2.0064,2.0031,1.9889,1.9681,1.9473,1.9274,1.91,1.9056,1.9088,1.9098,1.9098,1.9098,1.9098,1.9098,1.9098,1.9098,1.9098,1.9098,1.9098,1.9098,1.9098,1.9098,1.9098,1.9131,1.9131,1.9341,1.9868,1.9998,2.0506,2.1262,2.1494,2.1726,2.2154,2.2197,2.2197,2.2197,2.2197,2.2197,2.2197,2.2197,2.2197,2.2197,2.2197,2.2197,2.2166,2.203,2.1906,2.1906,2.1632,2.1431,2.1368,2.1305,2.1233,2.127,2.1293,2.1454,2.1789,2.1963,2.2169,2.2432,2.2569,2.2581,2.2627,2.2616,2.2696,2.2799,2.3087,2.3316,2.3396,2.3695,2.4028,2.3764,2.3996,2.4055,2.4185,2.4576,2.4957,2.5415,2.6117,2.6897,2.7335,2.7503,2.7359,-3.2963,-3.2376,-2.6843,-1.5518,-0.3165,-0.7667,-1.0417,-1.1084,-1.6958,-1.9867,-1.9371,-1.0736,-0.3465,0.2837,1.6181,2.2316,2.2684,2.2896,2.3083,2.3226,2.3051,2.3065,2.322,2.3481,2.337,2.3038,2.3047,2.2765,2.2238,2.1774,2.1325,2.0981,2.0584,2.0299,2.011,1.9644,1.9341,1.9175,1.9108,1.9098,1.9098,1.9098,1.9098,1.9098,1.9098,1.9098,1.9098,1.9098,1.9098,1.9098,1.9098,1.9241,1.9539,1.9561,1.9572,1.9605,1.9824,2.0237,2.0732,2.1063,2.1411,2.1862,2.1894,2.1956,2.2166,2.2197,2.2197,2.2197,2.2197,2.2197,2.2197,2.2197,2.2197,2.2197,2.2197,2.2197,2.2197,2.1968,2.1781,2.1749,2.1486,2.1273,2.1273,2.1253,2.1328,2.1514,2.1617,2.1812,2.2283,2.2616,2.2857,2.311,2.3362,2.3408,2.3213,2.3133,2.3247,2.35,2.3729,2.3879,2.3902,2.4005,2.4189,2.4225,2.4503,2.4671,2.4671,2.517,2.5581,2.5861,2.6346,2.7167,2.7436,2.7503,2.7503,-3.2995,-3.1426,-2.2619,-0.7398,0.953,0.2768,-0.0453,-0.1312,-0.8351,-1.1855,-1.1856,-0.5157,0.2966,1.1881,1.9321,2.2543,2.2843,2.3071,2.3399,2.3749,2.3717,2.3834,2.4102,2.4403,2.44,2.405,2.365,2.3238,2.2746,2.2152,2.1723,2.1559,2.1094,2.0784,2.0535,1.9906,1.9496,1.9385,1.9214,1.9098,1.9098,1.9098,1.9098,1.9098,1.9098,1.9098,1.9098,1.9098,1.9175,1.933,1.9341,1.9539,2.0031,2.0096,2.0096,2.0129,2.0421,2.0828,2.1356,2.1757,2.203,2.2154,2.2197,2.2197,2.2197,2.2197,2.2197,2.2197,2.2197,2.2197,2.2197,2.2197,2.2197,2.2197,2.2197,2.2197,2.2166,2.1886,2.1698,2.1667,2.1403,2.1201,2.1224,2.1328,2.1537,2.1824,2.2009,2.2317,2.2777,2.319,2.3419,2.3579,2.4067,2.4137,2.3754,2.3614,2.382,2.4041,2.4251,2.4409,2.4467,2.4539,2.4683,2.5028,2.5158,2.5217,2.53,2.5721,2.6173,2.6564,2.6884,2.7167,2.7356,2.7436,2.7456,-3.3122,-3.1185,-2.2388,-0.6327,1.0639,1.0009,0.9373,0.8402,0.7795,0.7358,0.5887,0.7075,1.324,2.1678,2.232,2.2973,2.3823,2.3891,2.4097,2.4459,2.4764,2.489,2.4735,2.4778,2.4551,2.4169,2.3784,2.3204,2.244,2.2291,2.2051,2.1636,2.1557,2.1444,2.118,2.0565,2.0183,1.996,1.95,1.9139,1.9119,1.9119,1.9129,1.9108,1.9098,1.9098,1.9098,1.9098,1.933,1.9835,1.9835,2.0064,2.0506,2.0571,2.0571,2.0614,2.0603,2.086,2.1325,2.1482,2.1714,2.2092,2.2197,2.2197,2.2197,2.2197,2.2197,2.2197,2.2197,2.2197,2.2197,2.2197,2.2197,2.2197,2.2197,2.2197,2.2197,2.1917,2.173,2.1698,2.1517,2.1363,2.1256,2.1594,2.1891,2.2109,2.2408,2.2903,2.341,2.3524,2.3696,2.4174,2.4588,2.4791,2.4288,2.4327,2.429,2.4455,2.4838,2.4969,2.5182,2.537,2.5581,2.5756,2.5791,2.5861,2.5931,2.6173,2.6598,2.6816,2.6679,2.6884,2.7302,2.7403,2.7436,-2.5591,-1.348,-0.3817,0.7928,1.9323,1.9738,1.6007,1.0042,0.9756,0.9358,0.8911,0.9189,1.4649,2.3693,2.3867,2.414,2.4474,2.4379,2.4516,2.4858,2.49,2.4986,2.5117,2.4909,2.461,2.42,2.3787,2.3342,2.282,2.2761,2.2673,2.243,2.2063,2.1768,2.1478,2.0871,2.0474,2.0267,2.0052,1.9799,1.9575,1.9544,1.9409,1.9129,1.9098,1.9098,1.9098,1.9098,1.9363,1.9868,1.99,2.0291,2.1008,2.1115,2.1273,2.1549,2.1305,2.1368,2.1819,2.1925,2.1987,2.2154,2.2197,2.2197,2.2197,2.2197,2.2197,2.2197,2.2197,2.2197,2.2197,2.2197,2.2197,2.2197,2.2197,2.2228,2.2135,2.1917,2.1824,2.2049,2.2087,2.1996,2.1862,2.2085,2.2676,2.3275,2.3294,2.3711,2.4611,2.4672,2.4602,2.5134,2.5441,2.5511,2.537,2.5288,2.53,2.5335,2.5511,2.5534,2.5709,2.5779,2.5965,2.6104,2.622,2.6358,2.6393,2.6474,2.6897,2.6985,2.685,2.6863,2.7248,2.7369,2.7403,-1.6796,0.0441,0.7986,1.6283,2.4564,2.5005,2.1039,1.467,1.4568,1.4348,1.4026,1.4345,1.8337,2.3794,2.483,2.5111,2.519,2.4909,2.4929,2.5218,2.5139,2.5149,2.5228,2.4957,2.461,2.4152,2.3641,2.3261,2.3027,2.3001,2.3001,2.2957,2.2468,2.2181,2.1923,2.1311,2.0854,2.0735,2.0503,2.0255,2.0006,2.001,1.9861,1.9601,1.9551,1.9467,1.9374,1.9374,1.9693,2.028,2.0377,2.0764,2.1526,2.1663,2.1819,2.2092,2.1851,2.18,2.2123,2.2197,2.2197,2.2197,2.2197,2.2197,2.2197,2.2197,2.2197,2.2197,2.2197,2.2247,2.2451,2.25,2.242,2.2278,2.2359,2.2469,2.2469,2.2334,2.2316,2.2451,2.272,2.2684,2.2586,2.3093,2.3727,2.4504,2.4305,2.4777,2.5554,2.5604,2.5406,2.5826,2.6035,2.6117,2.6139,2.6208,2.5931,2.5896,2.607,2.6139,2.6208,2.6242,2.6346,2.6461,2.6598,2.6782,2.6863,2.6875,2.6977,2.71,2.7045,2.6977,2.7214,2.7356,2.7423,-0.674,0.8845,1.0852,1.685,2.4468,2.4948,2.4669,2.3519,2.3819,2.307,2.2537,2.3846,2.403,2.5457,2.539,2.5608,2.5868,2.5487,2.5345,2.5531,2.5545,2.544,2.5264,2.4921,2.449,2.4043,2.3372,2.3038,2.3001,2.3001,2.3001,2.2953,2.2745,2.2579,2.2633,2.1813,2.1408,2.1261,2.0824,2.0493,2.0395,2.0502,2.053,2.052,2.0534,2.0374,2.0019,1.9965,2.0302,2.1167,2.1282,2.1632,2.203,2.2123,2.2166,2.2185,2.2154,2.2197,2.2197,2.2197,2.2197,2.2197,2.2197,2.2197,2.2197,2.2197,2.2216,2.2309,2.2309,2.2482,2.298,2.3088,2.2919,2.242,2.2811,2.3088,2.3118,2.322,2.313,2.2892,2.3232,2.351,2.3717,2.4275,2.4948,2.5194,2.5436,2.5706,2.6057,2.6,2.5931,2.607,2.6427,2.6667,2.6884,2.7053,2.6633,2.6358,2.6564,2.6701,2.6782,2.6837,2.6973,2.7087,2.7019,2.7134,2.6816,2.6829,2.676,2.6863,2.6909,2.7011,2.7248,2.7403,2.7556,0.52,1.1311,1.7917,2.2129,2.4908,2.4765,2.4678,2.4737,2.4628,2.4834,2.5183,2.5305,2.5674,2.6054,2.5996,2.5958,2.5968,2.5644,2.5564,2.5594,2.5465,2.5335,2.5218,2.4694,2.4043,2.3446,2.3113,2.3001,2.3001,2.3001,2.3001,2.2964,2.2815,2.2639,2.2467,2.2077,2.1853,2.1693,2.1455,2.1423,2.1473,2.1513,2.1563,2.1661,2.1663,2.1755,2.1945,2.0961,2.0743,2.14,2.1388,2.1651,2.2061,2.2197,2.2197,2.2197,2.2197,2.2197,2.2197,2.2197,2.2197,2.2197,2.2197,2.2197,2.2197,2.2216,2.242,2.272,2.2841,2.307,2.3564,2.3728,2.361,2.3446,2.361,2.3728,2.3819,2.4107,2.3964,2.3555,2.4305,2.4868,2.48,2.529,2.5749,2.6042,2.6074,2.6139,2.6735,2.6598,2.6633,2.6939,2.7154,2.7154,2.7255,2.7289,2.7087,2.6837,2.6985,2.7087,2.7201,2.7268,2.7436,2.7436,2.7403,2.7235,2.693,2.676,2.6692,2.6692,2.676,2.6998,2.7268,2.7469,2.7656,1.272,1.6677,2.2489,2.492,2.4848,2.4807,2.4849,2.4958,2.5003,2.5326,2.576,2.5904,2.6079,2.6311,2.6154,2.598,2.5781,2.5571,2.5488,2.55,2.5394,2.5241,2.504,2.4322,2.3751,2.3309,2.3075,2.3001,2.3001,2.3001,2.2964,2.2889,2.2777,2.2553,2.2327,2.2176,2.2063,2.2101,2.2166,2.2302,2.2535,2.2615,2.2637,2.2729,2.2753,2.2937,2.3179,2.2294,2.1844,2.1945,2.1843,2.1894,2.2166,2.2197,2.2197,2.2197,2.2197,2.2197,2.2197,2.2197,2.2197,2.2197,2.2197,2.2309,2.2439,2.2561,2.2811,2.3297,2.3446,2.3712,2.4237,2.4366,2.4467,2.4696,2.4496,2.4487,2.4699,2.5044,2.5014,2.4769,2.5408,2.5826,2.5894,2.6151,2.655,2.6841,2.6701,2.6586,2.7255,2.7201,2.7302,2.739,2.7403,2.7403,2.7469,2.7469,2.7503,2.739,2.7356,2.7369,2.7403,2.7403,2.7503,2.7369,2.7281,2.71,2.6794,2.6658,2.6589,2.6611,2.6645,2.6829,2.71,2.7523,2.7776,1.6888,2.4591,2.4977,2.4833,2.4669,2.506,2.5182,2.5214,2.5679,2.6016,2.6225,2.6324,2.6358,2.6201,2.6015,2.5828,2.5606,2.543,2.5347,2.5312,2.5241,2.5076,2.467,2.4007,2.3604,2.3409,2.3139,2.3001,2.2964,2.2964,2.2889,2.274,2.274,2.259,2.2365,2.2214,2.244,2.2703,2.274,2.3016,2.3537,2.3632,2.3684,2.3781,2.3781,2.3826,2.3915,2.3721,2.3442,2.3039,2.2527,2.2274,2.2258,2.2221,2.2197,2.2197,2.2197,2.2197,2.2197,2.2197,2.2247,2.234,2.2359,2.25,2.3027,2.3177,2.3416,2.3975,2.4063,2.4337,2.4878,2.502,2.53,2.5744,2.5479,2.543,2.5807,2.5925,2.5942,2.5944,2.6379,2.6739,2.6674,2.7097,2.7319,2.741,2.7356,2.739,2.739,2.7403,2.7469,2.7503,2.7503,2.7503,2.7503,2.7503,2.7503,2.7503,2.7503,2.7503,2.7503,2.7503,2.7403,2.7281,2.7146,2.6943,2.676,2.6589,2.6521,2.6555,2.6589,2.6658,2.6985,2.7477,2.7861,2.2745,2.4908,2.4765,2.4847,2.5074,2.4836,2.5135,2.573,2.5744,2.603,2.6371,2.6458,2.6374,2.6179,2.598,2.5793,2.5571,2.5382,2.5312,2.5241,2.5028,2.4742,2.4345,2.3861,2.3446,2.3187,2.3075,2.2927,2.2777,2.2841,2.2804,2.2703,2.2916,2.2964,2.2953,2.3086,2.3224,2.3335,2.3372,2.3655,2.4166,2.4274,2.4469,2.4862,2.4837,2.4836,2.4855,2.453,2.4085,2.3613,2.3095,2.2787,2.2751,2.2438,2.2246,2.2234,2.2197,2.2197,2.2228,2.2216,2.242,2.2811,2.2859,2.313,2.3699,2.3758,2.4092,2.458,2.4736,2.4991,2.5508,2.5661,2.5952,2.6428,2.6357,2.6297,2.6358,2.6794,2.7099,2.691,2.7078,2.7196,2.7255,2.7346,2.7503,2.7503,2.7503,2.7503,2.7503,2.7503,2.7503,2.7503,2.7503,2.7503,2.7503,2.7503,2.7503,2.7503,2.7503,2.7503,2.7503,2.7503,2.7335,2.7146,2.7045,2.6875,2.6692,2.6521,2.6487,2.6521,2.6624,2.676,2.7121,2.7543,2.7901,2.5183,2.513,2.4558,2.4445,2.4678,2.4738,2.516,2.5709,2.5954,2.6261,2.6573,2.6452,2.627,2.6074,2.5875,2.5676,2.5453,2.5347,2.5206,2.5016,2.4514,2.4152,2.3897,2.353,2.3235,2.3038,2.3001,2.2879,2.2841,2.3054,2.3139,2.3038,2.3423,2.3618,2.3409,2.3641,2.3849,2.3948,2.3984,2.4238,2.4767,2.485,2.4945,2.5241,2.5312,2.5312,2.5252,2.4999,2.453,2.3926,2.3505,2.3336,2.33,2.2811,2.2522,2.251,2.2342,2.2309,2.2531,2.258,2.2841,2.3327,2.3492,2.3816,2.4279,2.4436,2.4694,2.5272,2.537,2.5564,2.584,2.6118,2.6344,2.6566,2.7068,2.723,2.6948,2.7168,2.7367,2.7358,2.742,2.7503,2.7503,2.7503,2.7503,2.7503,2.7503,2.7503,2.7503,2.7503,2.7503,2.7503,2.757,2.759,2.7623,2.7656,2.7743,2.7709,2.7656,2.7623,2.7556,2.7523,2.7281,2.7079,2.6977,2.6807,2.6636,2.6521,2.6577,2.6645,2.6726,2.6837,2.7082,2.7281,2.7663,2.5465,2.5326,2.4505,2.4024,2.4145,2.4834,2.5326,2.5588,2.6169,2.6586,2.6726,2.6396,2.6097,2.5875,2.5723,2.55,2.53,2.5253,2.4945,2.4562,2.4043,2.3629,2.3519,2.3224,2.3075,2.3027,2.3065,2.3065,2.3165,2.3756,2.3768,2.3607,2.4215,2.4299,2.3995,2.4007,2.425,2.4515,2.4551,2.4767,2.5123,2.5206,2.5241,2.5276,2.5312,2.5312,2.5312,2.5228,2.4879,2.4023,2.3926,2.3878,2.3818,2.3372,2.3132,2.3111,2.2873,2.2893,2.3105,2.3294,2.3539,2.4002,2.4121,2.4394,2.4907,2.5076,2.5272,2.5757,2.5893,2.5922,2.6133,2.6554,2.6833,2.6908,2.7607,2.7848,2.7696,2.7394,2.7286,2.7498,2.7556,2.749,2.7503,2.7503,2.7503,2.7503,2.7503,2.7503,2.7503,2.7503,2.7503,2.7503,2.759,2.7689,2.7756,2.7822,2.7941,2.8026,2.7908,2.7809,2.7743,2.7623,2.7302,2.7079,2.6909,2.6726,2.6555,2.6555,2.6679,2.6637,2.6655,2.6655,2.6743,2.6901,2.7163,2.5924,2.5581,2.4714,2.4813,2.5422,2.5102,2.5428,2.6186,2.6382,2.6465,2.6374,2.6236,2.598,2.5676,2.5618,2.5488,2.5241,2.4981,2.4526,2.3897,2.3714,2.3409,2.3224,2.3075,2.3038,2.3139,2.3585,2.372,2.3793,2.4253,2.4576,2.4264,2.4576,2.4814,2.4586,2.4754,2.5028,2.5123,2.5099,2.5135,2.5241,2.5312,2.5312,2.5312,2.5312,2.5312,2.5312,2.5312,2.5204,2.4951,2.4602,2.4362,2.4266,2.3881,2.3661,2.3708,2.4008,2.4029,2.3934,2.4266,2.4649,2.4869,2.497,2.5034,2.5619,2.5744,2.5785,2.5907,2.5907,2.6217,2.661,2.72,2.7561,2.7712,2.7797,2.7958,2.794,2.7899,2.7821,2.7815,2.7669,2.7503,2.7503,2.7503,2.7503,2.7503,2.7503,2.7503,2.7503,2.7503,2.759,2.7656,2.7875,2.8072,2.8338,2.8436,2.8519,2.8551,2.8403,2.8189,2.8124,2.7809,2.7523,2.7201,2.6829,2.6692,2.6589,2.6748,2.6905,2.6743,2.6632,2.6729,2.6797,2.6745,2.6889,2.6108,2.5839,2.4695,2.457,2.5033,2.4897,2.5114,2.5636,2.6174,2.6223,2.605,2.5992,2.5793,2.5606,2.55,2.5324,2.4969,2.4478,2.4007,2.3593,2.3446,2.3398,2.3545,2.3361,2.3298,2.3372,2.3804,2.4036,2.4289,2.4862,2.517,2.4779,2.5146,2.5253,2.5052,2.5206,2.5241,2.5276,2.5312,2.5312,2.5312,2.5312,2.5312,2.5312,2.5312,2.5312,2.5312,2.5312,2.5312,2.524,2.5035,2.4891,2.4807,2.4422,2.4145,2.422,2.4488,2.4868,2.489,2.5441,2.601,2.6266,2.6295,2.6466,2.6694,2.6764,2.6778,2.6807,2.6849,2.6961,2.7256,2.8008,2.8426,2.844,2.8625,2.873,2.8643,2.8203,2.7802,2.7802,2.759,2.7536,2.7503,2.7689,2.759,2.7623,2.759,2.759,2.749,2.7556,2.7809,2.796,2.8254,2.8532,2.8921,2.9111,2.9237,2.9205,2.9048,2.8853,2.8688,2.83,2.7829,2.7443,2.7053,2.6816,2.6782,2.6973,2.7128,2.7099,2.7038,2.6971,2.6921,2.6902,2.7163,2.6306,2.6118,2.4797,2.4243,2.4318,2.477,2.4853,2.4872,2.572,2.6084,2.5875,2.5641,2.5606,2.55,2.5288,2.5016,2.4514,2.4043,2.3641,2.3446,2.3434,2.3534,2.3779,2.3827,2.3838,2.3824,2.4312,2.4552,2.4909,2.5487,2.5756,2.5335,2.5606,2.5583,2.5359,2.5312,2.5312,2.5312,2.5312,2.5312,2.5312,2.5312,2.5312,2.5312,2.5312,2.5312,2.5312,2.5312,2.5312,2.53,2.5406,2.5453,2.5332,2.5113,2.4764,2.4854,2.5355,2.5813,2.613,2.6681,2.7272,2.7818,2.7734,2.772,2.7707,2.7636,2.7608,2.775,2.7807,2.8008,2.8076,2.891,2.9166,2.9098,2.9558,2.9785,2.9393,2.8454,2.8124,2.7993,2.8176,2.8208,2.8111,2.8143,2.7927,2.7776,2.7776,2.7776,2.7743,2.7829,2.8241,2.8615,2.8998,2.9532,2.995,3.0042,3.0117,2.9919,2.9766,2.947,2.923,2.8798,2.83,2.7709,2.7323,2.7136,2.7095,2.7348,2.7461,2.7467,2.7355,2.7189,2.7099,2.707,2.7436,2.671,2.6413,2.5644,2.5335,2.5335,2.5435,2.5303,2.5285,2.5847,2.5968,2.5641,2.5606,2.55,2.5324,2.5028,2.4514,2.4007,2.3714,2.3519,2.3434,2.3632,2.4011,2.4082,2.4396,2.4563,2.4766,2.5158,2.5499,2.5709,2.6368,2.6186,2.5863,2.5793,2.5653,2.5394,2.5312,2.5312,2.5312,2.5312,2.5312,2.5312,2.5312,2.5312,2.5312,2.5312,2.5312,2.5312,2.5312,2.5312,2.5347,2.5896,2.6173,2.6205,2.6105,2.6077,2.6219,2.696,2.7384,2.735,2.793,2.8061,2.7931,2.7932,2.7904,2.789,2.789,2.8001,2.8102,2.8592,2.907,2.8996,2.9795,3.0128,2.9974,2.9897,2.9995,2.9659,2.938,2.9174,2.9174,2.9174,2.9002,2.8826,2.873,2.8698,2.8648,2.868,2.8712,2.8744,2.8857,2.9097,2.9487,2.9872,3.0494,3.1087,3.1087,3.1058,3.0763,3.0494,2.9995,2.9716,2.9306,2.8785,2.8139,2.7734,2.7511,2.7592,2.766,2.7718,2.7687,2.7527,2.7379,2.7547,2.7731,2.7852,2.6658,2.6424,2.5837,2.5544,2.5457,2.5444,2.5277,2.5127,2.563,2.5723,2.55,2.5418,2.5288,2.5052,2.4897,2.4345,2.3813,2.379,2.3742,2.3731,2.4312,2.4886,2.4898,2.524,2.5581,2.5838,2.6117,2.6013,2.5943,2.6186,2.6245,2.5968,2.5723,2.5488,2.5347,2.5312,2.5312,2.5312,2.5312,2.5312,2.5312,2.5312,2.5312,2.5312,2.5312,2.5312,2.5382,2.5769,2.5873,2.6035,2.6573,2.6879,2.7035,2.7237,2.7338,2.7271,2.7953,2.8442,2.8248,2.8723,2.8982,2.8816,2.8703,2.8731,2.8731,2.8774,2.8601,2.8638,2.8919,2.9489,2.9426,3.0348,3.0689,3.0644,3.0644,3.0644,3.0554,3.0524,3.0464,3.0299,2.9827,2.9518,2.9393,2.9362,2.9456,2.9518,2.9549,2.9611,2.9673,2.9704,2.9813,3.0147,3.0494,3.0896,3.1409,3.1438,3.1438,3.1248,3.097,3.0464,3.006,2.9631,2.9125,2.8547,2.8214,2.8026,2.7664,2.7588,2.7721,2.8008,2.8234,2.8412,2.837,2.8432,2.8494,2.6487,2.6449,2.5929,2.5556,2.5347,2.5379,2.5185,2.4971,2.5387,2.55,2.5312,2.5206,2.5052,2.4825,2.4562,2.4189,2.3692,2.3975,2.4156,2.4528,2.5146,2.5826,2.6035,2.6208,2.6139,2.6255,2.6139,2.6094,2.5945,2.598,2.5875,2.5688,2.543,2.5312,2.5312,2.5312,2.5312,2.5312,2.5312,2.5312,2.5312,2.5312,2.5312,2.5347,2.5441,2.5558,2.5652,2.6264,2.6586,2.6824,2.725,2.769,2.7789,2.8344,2.8441,2.813,2.8454,2.868,2.8857,2.9156,2.9476,2.9392,2.9546,2.9574,2.9546,2.9375,2.9348,2.9194,2.9623,2.9797,2.9846,3.0613,3.1043,3.1117,3.1278,3.1467,3.1336,3.1278,3.1219,3.0896,3.0329,3.0178,3.0194,3.0238,3.0374,3.0359,3.0389,3.0374,3.0404,3.0299,3.0434,3.0718,3.1029,3.1248,3.1467,3.1467,3.1409,3.1219,3.0955,3.0553,3.0212,2.9886,2.9371,2.887,2.8776,2.8524,2.801,2.7827,2.8368,2.8866,2.9246,2.9316,2.905,2.8949,2.9016,2.6487,2.6487,2.6217,2.5816,2.5413,2.566,2.5414,2.4925,2.5352,2.55,2.5241,2.4981,2.4861,2.4598,2.408,2.39,2.4022,2.4264,2.4588,2.5146,2.5791,2.607,2.6057,2.6277,2.6151,2.6198,2.5769,2.5641,2.5758,2.584,2.5723,2.5465,2.5394,2.5312,2.5312,2.5312,2.5312,2.5312,2.5312,2.5312,2.5312,2.5347,2.5382,2.5523,2.5931,2.6277,2.638,2.6934,2.7351,2.7451,2.8019,2.8363,2.8492,2.9058,2.9369,2.9383,2.9446,2.9477,2.9432,2.9509,2.9602,2.9602,2.9602,2.9602,2.9634,2.954,2.932,2.878,2.9777,3.0313,3.0222,3.0999,3.1438,3.1482,3.1438,3.1496,3.1496,3.1496,3.1496,3.1611,3.1073,3.116,3.1248,3.1278,3.1322,3.1278,3.1248,3.119,3.1073,3.0911,3.0837,3.1131,3.1219,3.1438,3.1496,3.1496,3.1351,3.119,3.0955,3.0657,3.0347,2.9978,2.9553,2.9173,2.9122,2.907,2.8681,2.8755,2.9247,2.9434,2.9521,2.954,2.9558,2.9507,2.942,2.6339,2.6327,2.6248,2.5914,2.5509,2.5673,2.5484,2.5199,2.5321,2.5288,2.5016,2.4849,2.4562,2.4189,2.3863,2.3986,2.4228,2.4767,2.524,2.5604,2.6104,2.6311,2.6277,2.6311,2.622,2.5933,2.5723,2.5606,2.5641,2.5558,2.5453,2.5347,2.5312,2.5312,2.5312,2.5312,2.5312,2.5312,2.5312,2.5312,2.5418,2.5699,2.5943,2.5931,2.6629,2.6947,2.7183,2.769,2.8051,2.8182,2.8744,2.9121,2.9153,2.9401,2.9571,2.9571,2.9571,2.9571,2.9571,2.9602,2.9602,2.9602,2.9634,2.9696,2.9741,2.9571,2.9495,2.9467,3.0131,3.0434,3.045,3.1117,3.1409,3.1524,3.1496,3.1496,3.1496,3.1524,3.1553,3.1726,3.1881,3.191,3.1951,3.1994,3.1824,3.1596,3.1596,3.1567,3.1452,3.1307,3.1278,3.138,3.1438,3.1467,3.1496,3.1496,3.1322,3.1161,3.1073,3.0777,3.0436,3.0053,2.9731,2.9516,2.9463,2.9349,2.9246,2.9363,2.9566,2.9636,2.9648,2.9661,2.9668,2.9605,2.9563,2.6131,2.6062,2.6062,2.5875,2.5606,2.5535,2.5441,2.5312,2.5206,2.5016,2.479,2.4574,2.4152,2.3863,2.4022,2.4264,2.466,2.5499,2.5896,2.6104,2.6242,2.638,2.6311,2.6324,2.6129,2.5898,2.5711,2.5571,2.5382,2.5312,2.5347,2.5312,2.5312,2.5312,2.5312,2.5312,2.5382,2.5687,2.5918,2.5988,2.6057,2.6436,2.6607,2.6879,2.7304,2.7769,2.7868,2.8422,2.8776,2.8917,2.923,2.9509,2.954,2.954,2.9602,2.9602,2.9602,2.9696,2.9727,2.9727,2.9665,2.9727,2.982,2.9991,2.996,2.962,2.9418,2.9749,3.0359,3.0539,3.0644,3.1131,3.1409,3.1496,3.1496,3.1496,3.1524,3.1582,3.1726,3.191,3.2135,3.2327,3.241,3.2535,3.237,3.2023,3.191,3.1938,3.1768,3.1582,3.1524,3.1524,3.1496,3.1496,3.1467,3.1438,3.1292,3.1161,3.1073,3.0866,3.054,3.038,3.0191,2.9988,2.9886,2.9944,3.0003,2.99,2.9783,2.9837,2.9857,2.9787,2.9727,2.9696,2.9775,2.5992,2.5641,2.5641,2.5653,2.5571,2.543,2.5312,2.5276,2.4981,2.4825,2.4706,2.4189,2.4057,2.4095,2.4337,2.4803,2.5697,2.5861,2.6035,2.6242,2.638,2.6277,2.6186,2.6025,2.5898,2.5793,2.5606,2.5382,2.53,2.5312,2.5312,2.5312,2.5488,2.5382,2.5453,2.5616,2.5931,2.6333,2.6765,2.7069,2.7136,2.7317,2.7404,2.7571,2.8019,2.8427,2.846,2.9058,2.9401,2.9401,2.9509,2.9602,2.9602,2.9696,2.9727,2.9727,2.9806,2.996,3.0083,2.9913,2.9834,3.0036,3.0219,3.0282,3.0192,3.0403,3.0206,2.995,3.0703,3.0881,3.0925,3.1043,3.1653,3.1752,3.1838,3.1824,3.1824,3.1752,3.1894,3.2107,3.2398,3.2711,3.2964,3.3113,3.2819,3.2437,3.2231,3.2244,3.1966,3.1739,3.164,3.1582,3.1524,3.1496,3.1482,3.138,3.1292,3.1176,3.1073,3.0896,3.0673,3.0572,3.0617,3.0617,3.0573,3.0675,3.063,3.0277,3.0054,3.006,3.0066,3.0021,3.0052,3.0099,3.0237,2.5758,2.5606,2.5465,2.5418,2.5418,2.5347,2.5312,2.5253,2.4957,2.4778,2.4743,2.4671,2.4695,2.4862,2.5134,2.5417,2.5849,2.5921,2.599,2.5955,2.5886,2.5769,2.5664,2.5676,2.5535,2.5535,2.5347,2.5312,2.5312,2.5453,2.5687,2.5826,2.5988,2.5965,2.6035,2.6355,2.6765,2.6968,2.7338,2.7504,2.7584,2.7966,2.8117,2.8182,2.8821,2.9153,2.923,2.9432,2.9571,2.9602,2.9602,2.9634,2.9727,2.9882,3.0021,3.0038,3.019,3.0433,3.0463,3.0205,3.0066,3.0266,3.0342,3.0343,3.051,3.0628,3.0762,3.0866,3.1277,3.148,3.1667,3.1992,3.2355,3.2312,3.2256,3.2216,3.2188,3.2104,3.2327,3.2645,3.2942,3.3261,3.3523,3.3755,3.3308,3.2868,3.2695,3.2477,3.2216,3.2035,3.1951,3.1853,3.1796,3.1567,3.1538,3.1423,3.1351,3.1278,3.119,3.1175,3.1146,3.1117,3.1188,3.1204,3.1131,3.0999,3.0792,3.0477,3.0264,3.0158,3.0235,3.0297,3.0388,3.0448,3.0703,2.5542,2.5734,2.5629,2.5453,2.5312,2.5312,2.5382,2.5394,2.5123,2.4933,2.4898,2.5206,2.5441,2.5652,2.5756,2.5965,2.6,2.5968,2.5828,2.5688,2.55,2.5312,2.5312,2.5312,2.5347,2.5335,2.5581,2.5664,2.5721,2.5849,2.6299,2.6676,2.69,2.6968,2.6879,2.7404,2.7789,2.7789,2.8032,2.8111,2.8274,2.8565,2.8853,2.8853,2.9293,2.9495,2.9509,2.9571,2.9571,2.9665,2.9727,2.982,2.9991,3.0205,3.0433,3.0583,3.0732,3.094,3.0851,3.0643,3.0492,3.0643,3.0688,3.0807,3.094,3.0925,3.1058,3.1351,3.1853,3.2191,3.2247,3.2437,3.2641,3.2571,3.2598,3.2586,3.2586,3.2586,3.29,3.3251,3.3461,3.3539,3.3771,3.3933,3.3652,3.3272,3.3129,3.29,3.2614,3.2449,3.2382,3.2272,3.2188,3.1908,3.1595,3.1794,3.1992,3.1936,3.1879,3.1851,3.1851,3.1781,3.1768,3.1866,3.168,3.1292,3.1234,3.1321,3.0807,3.0189,3.0326,3.0509,3.0598,3.0718,3.1204,2.5384,2.6139,2.6198,2.5873,2.5418,2.5312,2.5571,2.5863,2.5571,2.537,2.537,2.5441,2.5791,2.6173,2.6104,2.607,2.6104,2.5955,2.5676,2.5418,2.5347,2.5312,2.5312,2.5312,2.5382,2.5511,2.5861,2.6208,2.638,2.6799,2.7204,2.7637,2.7934,2.8097,2.7617,2.8149,2.8473,2.857,2.9121,2.9275,2.9306,2.9355,2.9401,2.9432,2.9495,2.9602,2.9602,2.9727,2.9758,2.9789,3.0113,3.0251,3.0342,3.0732,3.0911,3.0837,3.0866,3.1029,3.1234,3.1073,3.0999,3.0999,3.1058,3.1278,3.1409,3.1438,3.1365,3.1524,3.1925,3.2191,3.2342,3.2574,3.2803,3.3018,3.3044,3.3071,3.3097,3.3124,3.3445,3.3617,3.3607,3.3633,3.3899,3.4025,3.3848,3.3642,3.3529,3.3314,3.3044,3.2857,3.2819,3.2683,3.2574,3.2256,3.2089,3.2449,3.2614,3.2586,3.2477,3.2367,3.2339,3.2272,3.2327,3.2437,3.216,3.1722,3.2048,3.2413,3.1652,3.0896,3.0613,3.0673,3.0792,3.119,3.1807,2.579,2.6735,2.6735,2.6543,2.6255,2.622,2.6302,2.6405,2.638,2.6264,2.6161,2.6483,2.6701,2.6735,2.638,2.6151,2.599,2.5652,2.5335,2.5312,2.5312,2.5312,2.5312,2.5418,2.5616,2.5978,2.6393,2.6824,2.7149,2.7571,2.7855,2.8214,2.8757,2.9058,2.8976,2.9166,2.923,2.9261,2.9463,2.9571,2.9602,2.9602,2.9602,2.9602,2.9602,2.9602,2.9634,2.982,2.9991,3.0083,3.0463,3.0732,3.0792,3.1146,3.1277,3.1306,3.1379,3.1567,3.1597,3.1453,3.1336,3.1365,3.1409,3.1496,3.1496,3.1496,3.1496,3.164,3.2066,3.2315,3.2602,3.3022,3.334,3.3678,3.3755,3.3755,3.3781,3.3755,3.3873,3.3924,3.3924,3.3873,3.4025,3.4101,3.3949,3.3899,3.3797,3.3822,3.361,3.3393,3.3251,3.3076,3.29,3.2614,3.2544,3.2868,3.2911,3.2734,3.2707,3.268,3.2668,3.2722,3.2722,3.2776,3.2477,3.2213,3.252,3.2656,3.2228,3.1707,3.1564,3.148,3.1652,3.216,3.2792,2.6115,2.7217,2.7276,2.7323,2.7289,2.6952,2.685,2.6918,2.7087,2.7007,2.6905,2.7175,2.7289,2.6973,2.653,2.6289,2.6002,2.5523,2.53,2.5312,2.5312,2.5488,2.5616,2.5721,2.6195,2.6654,2.7069,2.7458,2.7855,2.813,2.8487,2.8917,2.9338,2.9432,2.9509,2.954,2.954,2.954,2.9602,2.9602,2.9602,2.9602,2.9602,2.9602,2.9602,2.9602,2.9727,2.9991,3.0326,3.0463,3.0777,3.1175,3.1263,3.1437,3.161,3.171,3.1697,3.1769,3.1626,3.1568,3.1524,3.1739,3.1626,3.1511,3.1553,3.1682,3.1754,3.191,3.2274,3.2645,3.3022,3.3477,3.372,3.4066,3.4075,3.405,3.405,3.4025,3.4025,3.4075,3.4101,3.4101,3.4126,3.4101,3.405,3.405,3.4075,3.4101,3.4101,3.3848,3.3633,3.3461,3.3393,3.3219,3.3124,3.323,3.3177,3.2922,3.2975,3.3124,3.3177,3.3272,3.3219,3.3113,3.2926,3.2819,3.2911,3.2841,3.2761,3.2761,3.2803,3.2711,3.2633,3.2877,3.3303,2.6291,2.7683,2.7809,2.8085,2.8327,2.741,2.7121,2.7302,2.7423,2.7469,2.7456,2.7142,2.7175,2.7188,2.6418,2.6094,2.6117,2.5558,2.5382,2.5382,2.5453,2.5826,2.6173,2.6402,2.6867,2.7491,2.7953,2.8182,2.857,2.8931,2.9306,2.9463,2.954,2.9602,2.9602,2.9602,2.9602,2.9602,2.9602,2.9602,2.9602,2.9602,2.9602,2.9602,2.9602,2.9665,2.9837,3.016,3.0372,3.0703,3.1102,3.1393,3.161,3.1796,3.1855,3.1784,3.1612,3.1597,3.164,3.164,3.1853,3.2079,3.1881,3.1668,3.1739,3.2035,3.2148,3.237,3.2699,3.3091,3.3477,3.371,3.3965,3.405,3.4075,3.4075,3.4075,3.4075,3.4075,3.4101,3.4101,3.4126,3.4234,3.4234,3.4284,3.4292,3.4292,3.4184,3.4159,3.4101,3.3899,3.3797,3.3771,3.3848,3.3781,3.361,3.361,3.3413,3.361,3.3739,3.3806,3.3729,3.3626,3.3523,3.345,3.3461,3.362,3.3697,3.3704,3.3729,3.3697,3.3288,3.3038,3.2888,3.3182,2.6622,2.7754,2.8217,2.8327,2.8177,2.7603,2.739,2.7469,2.7503,2.7503,2.7503,2.7423,2.7276,2.7074,2.6543,2.6245,2.5921,2.5594,2.5382,2.5488,2.5896,2.6173,2.6539,2.6981,2.7571,2.8051,2.8473,2.8807,2.9184,2.9602,2.9602,2.9571,2.9602,2.9602,2.9602,2.9602,2.9602,2.9602,2.9602,2.9602,2.9634,2.9634,2.9634,2.9665,2.9727,2.9837,3.0144,3.0553,3.0822,3.1204,3.1667,3.1966,3.1896,3.1855,3.1799,3.1626,3.1568,3.1626,3.1925,3.1994,3.2191,3.252,3.2449,3.2477,3.2477,3.2547,3.2672,3.2819,3.3007,3.3314,3.3539,3.3787,3.3975,3.405,3.4075,3.4101,3.4126,3.4184,3.4184,3.4209,3.4209,3.4259,3.4366,3.4521,3.4545,3.4569,3.4545,3.444,3.4259,3.4184,3.4025,3.3924,3.3924,3.3949,3.3924,3.3781,3.3908,3.4,3.4075,3.4101,3.4,3.3933,3.3975,3.3984,3.3984,3.4193,3.4448,3.4415,3.4234,3.4391,3.4358,3.3866,3.3461,3.3455,3.3413,2.6687,2.7687,2.8008,2.808,2.7954,2.7736,2.759,2.7503,2.7503,2.7503,2.7456,2.7343,2.7175,2.6939,2.644,2.6107,2.5933,2.5908,2.5826,2.6,2.6471,2.7002,2.7371,2.767,2.826,2.8712,2.898,2.9184,2.954,2.9602,2.9602,2.9602,2.9602,2.9602,2.9602,2.9602,2.9602,2.9602,2.9602,2.9602,2.9665,2.9775,2.9837,2.9898,2.9991,3.0296,3.0553,3.0984,3.1277,3.1495,3.1881,3.1996,3.1883,3.1784,3.167,3.1568,3.1754,3.1896,3.2135,3.237,3.2656,3.2953,3.3071,3.3177,3.3177,3.3193,3.314,3.314,3.3298,3.3455,3.3601,3.3787,3.3924,3.4059,3.4075,3.4101,3.4184,3.4308,3.4317,3.4341,3.4391,3.4456,3.4561,3.4738,3.4911,3.5052,3.5098,3.5028,3.4714,3.4341,3.4134,3.3924,3.3949,3.3975,3.4,3.4059,3.4134,3.4159,3.4075,3.4101,3.4101,3.4134,3.4159,3.4366,3.4593,3.4809,3.4998,3.4761,3.4617,3.4833,3.4958,3.4577,3.4317,3.4325,3.4301,2.6552,2.7497,2.7431,2.7512,2.7703,2.7716,2.7656,2.7536,2.7503,2.7503,2.739,2.7142,2.7007,2.6803,2.6405,2.6211,2.6267,2.638,2.6505,2.6552,2.7224,2.7756,2.8136,2.8602,2.8917,2.9369,2.9571,2.9432,2.954,2.9602,2.9602,2.9602,2.9696,2.9758,2.9789,2.9898,2.996,2.9991,2.9929,2.9898,2.9898,3.0052,3.0342,3.0418,3.0658,3.0955,3.1073,3.1277,3.1508,3.1596,3.1683,3.1813,3.1727,3.1626,3.1539,3.1655,3.1896,3.2163,3.2398,3.2683,3.3087,3.3366,3.3581,3.3668,3.3678,3.3652,3.3549,3.3549,3.3678,3.3739,3.3899,3.3924,3.4025,3.4075,3.4075,3.4101,3.4151,3.4382,3.4666,3.4714,3.4785,3.4857,3.5161,3.5374,3.5442,3.5594,3.5638,3.5594,3.526,3.4761,3.4521,3.4243,3.4366,3.4488,3.4399,3.4448,3.4391,3.4358,3.4284,3.4234,3.4341,3.4366,3.4358,3.469,3.5052,3.5253,3.5368,3.5161,3.5075,3.5362,3.5413,3.5243,3.5157,3.5163,3.5001,2.5991,2.625,2.68,2.7075,2.715,2.7453,2.7556,2.7503,2.7503,2.739,2.7154,2.704,2.6837,2.6633,2.6769,2.6735,2.6756,2.7048,2.7217,2.7438,2.7953,2.8344,2.8634,2.9026,2.9355,2.9495,2.9602,2.9602,2.9602,2.9602,2.9634,2.9665,2.9913,3.0144,3.0144,3.0342,3.0523,3.0493,3.0553,3.0403,3.0282,3.0553,3.0851,3.0881,3.1058,3.1219,3.1335,3.1422,3.1596,3.1712,3.1756,3.1727,3.1583,3.1539,3.1496,3.1582,3.1994,3.2398,3.2711,3.306,3.3471,3.3755,3.3924,3.4,3.4025,3.3975,3.3949,3.3975,3.4025,3.4075,3.4101,3.4101,3.4101,3.4101,3.4101,3.4101,3.4126,3.4537,3.4975,3.5121,3.5214,3.5419,3.5705,3.5898,3.6006,3.6088,3.6114,3.6049,3.5771,3.5397,3.534,3.5157,3.5168,3.5191,3.4988,3.4887,3.488,3.4857,3.4833,3.4738,3.4642,3.4785,3.4951,3.5214,3.5487,3.5727,3.5793,3.5515,3.5537,3.5854,3.5937,3.5793,3.5881,3.5946,3.5688,2.554,2.5773,2.6308,2.663,2.6829,2.7046,2.7275,2.7497,2.7703,2.7556,2.7284,2.733,2.7175,2.6858,2.7229,2.733,2.7351,2.7736,2.7901,2.8149,2.8551,2.8917,2.923,2.9401,2.9477,2.9602,2.9602,2.9602,2.9665,2.9882,2.996,2.9991,3.0342,3.0613,3.0643,3.0881,3.1058,3.0999,3.119,3.1131,3.0896,3.1175,3.1321,3.1321,3.1523,3.1667,3.1695,3.1768,3.1726,3.1741,3.1698,3.1626,3.1626,3.1726,3.1811,3.2023,3.2413,3.2888,3.314,3.3471,3.3822,3.4025,3.4101,3.4075,3.4075,3.4025,3.4025,3.405,3.405,3.4101,3.4101,3.4101,3.4101,3.4101,3.4184,3.4259,3.4488,3.4857,3.5368,3.5771,3.5749,3.5661,3.5902,3.6092,3.6241,3.6571,3.6591,3.6571,3.6266,3.6032,3.5998,3.5938,3.5864,3.5683,3.5391,3.5345,3.5407,3.5391,3.5374,3.526,3.5184,3.5374,3.5594,3.5815,3.6032,3.6284,3.6224,3.5977,3.6037,3.6339,3.6398,3.636,3.6482,3.6461,3.6088,2.5087,2.5539,2.5919,2.6256,2.662,2.6849,2.719,2.7617,2.8,2.7941,2.7683,2.802,2.7723,2.7497,2.7736,2.7736,2.7934,2.8436,2.8615,2.8821,2.923,2.9355,2.9432,2.9571,2.9602,2.9665,2.9741,2.9758,2.9789,3.0113,3.0417,3.0493,3.0762,3.1087,3.1087,3.116,3.1306,3.1451,3.1595,3.1737,3.1781,3.1796,3.1796,3.1951,3.212,3.2259,3.2178,3.2053,3.1898,3.1826,3.1726,3.1811,3.1894,3.212,3.2203,3.2425,3.2888,3.3277,3.3529,3.3797,3.3975,3.4101,3.4101,3.4101,3.4101,3.4159,3.4159,3.4209,3.4209,3.4184,3.4184,3.4209,3.4209,3.4333,3.4464,3.4634,3.4975,3.5299,3.5771,3.6301,3.6241,3.6054,3.6178,3.6346,3.655,3.6891,3.6989,3.6989,3.6911,3.6673,3.6516,3.6416,3.6329,3.6075,3.5859,3.5859,3.5985,3.5963,3.5924,3.5793,3.5705,3.5815,3.6032,3.6346,3.6571,3.669,3.671,3.655,3.6687,3.6725,3.6708,3.6647,3.644,3.6398,3.6191,2.4689,2.4644,2.5489,2.5921,2.6188,2.7375,2.7992,2.8052,2.8476,2.8371,2.8176,2.8527,2.8365,2.7438,2.8103,2.8344,2.8487,2.8994,2.9293,2.9509,2.9509,2.9571,2.9634,2.9696,2.9634,2.9789,3.0036,3.0144,3.0235,3.0613,3.0881,3.0911,3.135,3.1581,3.1638,3.1766,3.1992,3.202,3.202,3.216,3.2203,3.2231,3.2259,3.2287,3.2247,3.2163,3.2053,3.1927,3.1741,3.1697,3.1881,3.2176,3.2382,3.2559,3.2656,3.2819,3.3288,3.3487,3.372,3.3924,3.405,3.4101,3.4101,3.4134,3.4234,3.4488,3.4537,3.4617,3.4593,3.4537,3.4537,3.4642,3.4714,3.5021,3.5247,3.5481,3.5793,3.5946,3.622,3.6571,3.6733,3.6652,3.6673,3.6753,3.6774,3.6989,3.6989,3.6989,3.6989,3.6989,3.6989,3.6871,3.6713,3.6814,3.6733,3.6553,3.6591,3.655,3.643,3.6262,3.6178,3.6178,3.6406,3.6652,3.6811,3.6891,3.6908,3.6869,3.6888,3.6888,3.6928,3.6851,3.6588,3.6402,3.628]}]]